<?xml version="1.0" encoding="UTF-8" standalone="no" ?>
<gpx xmlns="http://www.topografix.com/GPX/1/1" xmlns:xsi="http://www.w3.org/2001/XMLSchema-instance" xsi:schemaLocation="http://www.topografix.com/GPX/1/1 http://www.topografix.com/GPX/1/1/gpx.xsd" version="1.1" creator="VisuGPX - https://www.visugpx.com">
  <metadata>
    <name>ETERNOZ-NANS sous Ste ANNE</name>
    <desc><![CDATA[ETERNOZ-NANS sous Ste ANNE]]></desc>
  </metadata>
  <trk>
    <name><![CDATA[ETERNOZ-NANS SOUS STE ANNE]]></name>
    <trkseg>
      <trkpt lat="47.00768" lon="6.0295">
        <ele>511</ele>
        <time>2012-05-10T07:55:18Z</time>
      </trkpt>
      <trkpt lat="47.00768" lon="6.0295">
        <ele>552.4</ele>
        <time>2012-05-10T07:56:24Z</time>
      </trkpt>
      <trkpt lat="47.00768" lon="6.0295">
        <ele>511</ele>
        <time>2012-05-10T07:56:35Z</time>
      </trkpt>
      <trkpt lat="47.00768" lon="6.0295">
        <ele>511</ele>
        <time>2012-05-10T07:56:41Z</time>
      </trkpt>
      <trkpt lat="47.00768" lon="6.0295">
        <ele>511</ele>
        <time>2012-05-10T07:56:52Z</time>
      </trkpt>
      <trkpt lat="47.00768" lon="6.0295">
        <ele>511</ele>
        <time>2012-05-10T07:57:37Z</time>
      </trkpt>
      <trkpt lat="47.00768" lon="6.0295">
        <ele>511</ele>
        <time>2012-05-10T07:57:48Z</time>
      </trkpt>
      <trkpt lat="47.00768" lon="6.0295">
        <ele>511</ele>
        <time>2012-05-10T08:04:26Z</time>
      </trkpt>
      <trkpt lat="47.00768" lon="6.0295">
        <ele>511</ele>
        <time>2012-05-10T08:04:38Z</time>
      </trkpt>
      <trkpt lat="47.00768" lon="6.0295">
        <ele>511</ele>
        <time>2012-05-10T08:04:59Z</time>
      </trkpt>
      <trkpt lat="47.00768" lon="6.0295">
        <ele>511</ele>
        <time>2012-05-10T08:05:11Z</time>
      </trkpt>
      <trkpt lat="47.00768" lon="6.0295">
        <ele>511</ele>
        <time>2012-05-10T08:05:26Z</time>
      </trkpt>
      <trkpt lat="47.00779" lon="6.02962">
        <ele>561.3</ele>
        <time>2012-05-10T08:05:31Z</time>
      </trkpt>
      <trkpt lat="47.00783" lon="6.02971">
        <ele>560.3</ele>
        <time>2012-05-10T08:05:37Z</time>
      </trkpt>
      <trkpt lat="47.00784" lon="6.02983">
        <ele>560.6</ele>
        <time>2012-05-10T08:05:46Z</time>
      </trkpt>
      <trkpt lat="47.00787" lon="6.02992">
        <ele>561</ele>
        <time>2012-05-10T08:05:52Z</time>
      </trkpt>
      <trkpt lat="47.00787" lon="6.03002">
        <ele>560.1</ele>
        <time>2012-05-10T08:05:57Z</time>
      </trkpt>
      <trkpt lat="47.00789" lon="6.03011">
        <ele>556.5</ele>
        <time>2012-05-10T08:06:04Z</time>
      </trkpt>
      <trkpt lat="47.00785" lon="6.03019">
        <ele>556.5</ele>
        <time>2012-05-10T08:06:08Z</time>
      </trkpt>
      <trkpt lat="47.00779" lon="6.03022">
        <ele>556.3</ele>
        <time>2012-05-10T08:06:10Z</time>
      </trkpt>
      <trkpt lat="47.00775" lon="6.03031">
        <ele>556.8</ele>
        <time>2012-05-10T08:06:16Z</time>
      </trkpt>
      <trkpt lat="47.00773" lon="6.03042">
        <ele>557.3</ele>
        <time>2012-05-10T08:06:21Z</time>
      </trkpt>
      <trkpt lat="47.00772" lon="6.03052">
        <ele>555.7</ele>
        <time>2012-05-10T08:06:29Z</time>
      </trkpt>
      <trkpt lat="47.00773" lon="6.03062">
        <ele>556.7</ele>
        <time>2012-05-10T08:06:36Z</time>
      </trkpt>
      <trkpt lat="47.00773" lon="6.03062">
        <ele>508.2</ele>
        <time>2012-05-10T08:06:48Z</time>
      </trkpt>
      <trkpt lat="47.00773" lon="6.03062">
        <ele>508.2</ele>
        <time>2012-05-10T08:06:50Z</time>
      </trkpt>
      <trkpt lat="47.00767" lon="6.03081">
        <ele>554.7</ele>
        <time>2012-05-10T08:06:56Z</time>
      </trkpt>
      <trkpt lat="47.00764" lon="6.03089">
        <ele>555.7</ele>
        <time>2012-05-10T08:07:02Z</time>
      </trkpt>
      <trkpt lat="47.00762" lon="6.03101">
        <ele>554.6</ele>
        <time>2012-05-10T08:07:09Z</time>
      </trkpt>
      <trkpt lat="47.00758" lon="6.03108">
        <ele>552.6</ele>
        <time>2012-05-10T08:07:14Z</time>
      </trkpt>
      <trkpt lat="47.00753" lon="6.03115">
        <ele>551.3</ele>
        <time>2012-05-10T08:07:19Z</time>
      </trkpt>
      <trkpt lat="47.00749" lon="6.03124">
        <ele>551.4</ele>
        <time>2012-05-10T08:07:25Z</time>
      </trkpt>
      <trkpt lat="47.00743" lon="6.03131">
        <ele>551</ele>
        <time>2012-05-10T08:07:31Z</time>
      </trkpt>
      <trkpt lat="47.00735" lon="6.03133">
        <ele>548.4</ele>
        <time>2012-05-10T08:07:36Z</time>
      </trkpt>
      <trkpt lat="47.00729" lon="6.03136">
        <ele>549.5</ele>
        <time>2012-05-10T08:07:40Z</time>
      </trkpt>
      <trkpt lat="47.00721" lon="6.03141">
        <ele>549.4</ele>
        <time>2012-05-10T08:07:45Z</time>
      </trkpt>
      <trkpt lat="47.00714" lon="6.03142">
        <ele>549.5</ele>
        <time>2012-05-10T08:07:49Z</time>
      </trkpt>
      <trkpt lat="47.00708" lon="6.03149">
        <ele>553.4</ele>
        <time>2012-05-10T08:07:56Z</time>
      </trkpt>
      <trkpt lat="47.00701" lon="6.03149">
        <ele>552.8</ele>
        <time>2012-05-10T08:08:00Z</time>
      </trkpt>
      <trkpt lat="47.00694" lon="6.03148">
        <ele>553.4</ele>
        <time>2012-05-10T08:08:05Z</time>
      </trkpt>
      <trkpt lat="47.00687" lon="6.03152">
        <ele>553.8</ele>
        <time>2012-05-10T08:08:11Z</time>
      </trkpt>
      <trkpt lat="47.0068" lon="6.03152">
        <ele>553.7</ele>
        <time>2012-05-10T08:08:16Z</time>
      </trkpt>
      <trkpt lat="47.00673" lon="6.03156">
        <ele>555</ele>
        <time>2012-05-10T08:08:25Z</time>
      </trkpt>
      <trkpt lat="47.00669" lon="6.03163">
        <ele>551.4</ele>
        <time>2012-05-10T08:08:36Z</time>
      </trkpt>
      <trkpt lat="47.00663" lon="6.03163">
        <ele>551.9</ele>
        <time>2012-05-10T08:08:40Z</time>
      </trkpt>
      <trkpt lat="47.00656" lon="6.03166">
        <ele>549.8</ele>
        <time>2012-05-10T08:08:46Z</time>
      </trkpt>
      <trkpt lat="47.00648" lon="6.03165">
        <ele>549.1</ele>
        <time>2012-05-10T08:08:50Z</time>
      </trkpt>
      <trkpt lat="47.00642" lon="6.03167">
        <ele>548.5</ele>
        <time>2012-05-10T08:08:55Z</time>
      </trkpt>
      <trkpt lat="47.00636" lon="6.03169">
        <ele>547.6</ele>
        <time>2012-05-10T08:09:00Z</time>
      </trkpt>
      <trkpt lat="47.0063" lon="6.03173">
        <ele>546.3</ele>
        <time>2012-05-10T08:09:06Z</time>
      </trkpt>
      <trkpt lat="47.00623" lon="6.03177">
        <ele>546.5</ele>
        <time>2012-05-10T08:09:14Z</time>
      </trkpt>
      <trkpt lat="47.00617" lon="6.0318">
        <ele>545.5</ele>
        <time>2012-05-10T08:09:19Z</time>
      </trkpt>
      <trkpt lat="47.00613" lon="6.03187">
        <ele>543.9</ele>
        <time>2012-05-10T08:09:25Z</time>
      </trkpt>
      <trkpt lat="47.00607" lon="6.03192">
        <ele>544</ele>
        <time>2012-05-10T08:09:30Z</time>
      </trkpt>
      <trkpt lat="47.00601" lon="6.03197">
        <ele>543.5</ele>
        <time>2012-05-10T08:09:35Z</time>
      </trkpt>
      <trkpt lat="47.00601" lon="6.03197">
        <ele>500.7</ele>
        <time>2012-05-10T08:09:47Z</time>
      </trkpt>
      <trkpt lat="47.00601" lon="6.03197">
        <ele>500.7</ele>
        <time>2012-05-10T08:09:49Z</time>
      </trkpt>
      <trkpt lat="47.00588" lon="6.03196">
        <ele>543.9</ele>
        <time>2012-05-10T08:09:55Z</time>
      </trkpt>
      <trkpt lat="47.00583" lon="6.03191">
        <ele>543.8</ele>
        <time>2012-05-10T08:09:58Z</time>
      </trkpt>
      <trkpt lat="47.00578" lon="6.03184">
        <ele>547.4</ele>
        <time>2012-05-10T08:10:03Z</time>
      </trkpt>
      <trkpt lat="47.00578" lon="6.03184">
        <ele>501.9</ele>
        <time>2012-05-10T08:10:15Z</time>
      </trkpt>
      <trkpt lat="47.00578" lon="6.03184">
        <ele>501.9</ele>
        <time>2012-05-10T08:10:16Z</time>
      </trkpt>
      <trkpt lat="47.00572" lon="6.03166">
        <ele>548.5</ele>
        <time>2012-05-10T08:10:20Z</time>
      </trkpt>
      <trkpt lat="47.0057" lon="6.03157">
        <ele>548.5</ele>
        <time>2012-05-10T08:10:24Z</time>
      </trkpt>
      <trkpt lat="47.00567" lon="6.03149">
        <ele>547.7</ele>
        <time>2012-05-10T08:10:29Z</time>
      </trkpt>
      <trkpt lat="47.00567" lon="6.03149">
        <ele>502</ele>
        <time>2012-05-10T08:10:41Z</time>
      </trkpt>
      <trkpt lat="47.00567" lon="6.03149">
        <ele>502</ele>
        <time>2012-05-10T08:10:42Z</time>
      </trkpt>
      <trkpt lat="47.00559" lon="6.03134">
        <ele>549.1</ele>
        <time>2012-05-10T08:10:48Z</time>
      </trkpt>
      <trkpt lat="47.00556" lon="6.03124">
        <ele>549.7</ele>
        <time>2012-05-10T08:10:52Z</time>
      </trkpt>
      <trkpt lat="47.00554" lon="6.03115">
        <ele>549.7</ele>
        <time>2012-05-10T08:10:57Z</time>
      </trkpt>
      <trkpt lat="47.0055" lon="6.03107">
        <ele>551.3</ele>
        <time>2012-05-10T08:11:01Z</time>
      </trkpt>
      <trkpt lat="47.00545" lon="6.03102">
        <ele>552</ele>
        <time>2012-05-10T08:11:06Z</time>
      </trkpt>
      <trkpt lat="47.00537" lon="6.03097">
        <ele>553.5</ele>
        <time>2012-05-10T08:11:11Z</time>
      </trkpt>
      <trkpt lat="47.0053" lon="6.03094">
        <ele>552.8</ele>
        <time>2012-05-10T08:11:16Z</time>
      </trkpt>
      <trkpt lat="47.00524" lon="6.03089">
        <ele>553.1</ele>
        <time>2012-05-10T08:11:23Z</time>
      </trkpt>
      <trkpt lat="47.00516" lon="6.03086">
        <ele>554</ele>
        <time>2012-05-10T08:11:29Z</time>
      </trkpt>
      <trkpt lat="47.00509" lon="6.03089">
        <ele>550.4</ele>
        <time>2012-05-10T08:11:38Z</time>
      </trkpt>
      <trkpt lat="47.00502" lon="6.03087">
        <ele>550</ele>
        <time>2012-05-10T08:11:45Z</time>
      </trkpt>
      <trkpt lat="47.00496" lon="6.03086">
        <ele>550.8</ele>
        <time>2012-05-10T08:11:51Z</time>
      </trkpt>
      <trkpt lat="47.00489" lon="6.03087">
        <ele>551.9</ele>
        <time>2012-05-10T08:12:02Z</time>
      </trkpt>
      <trkpt lat="47.00482" lon="6.03087">
        <ele>550.1</ele>
        <time>2012-05-10T08:12:09Z</time>
      </trkpt>
      <trkpt lat="47.00475" lon="6.03087">
        <ele>550.6</ele>
        <time>2012-05-10T08:12:15Z</time>
      </trkpt>
      <trkpt lat="47.00469" lon="6.03085">
        <ele>552.5</ele>
        <time>2012-05-10T08:12:23Z</time>
      </trkpt>
      <trkpt lat="47.00463" lon="6.0309">
        <ele>555.1</ele>
        <time>2012-05-10T08:12:28Z</time>
      </trkpt>
      <trkpt lat="47.00456" lon="6.03091">
        <ele>558.3</ele>
        <time>2012-05-10T08:12:36Z</time>
      </trkpt>
      <trkpt lat="47.00449" lon="6.03092">
        <ele>556.2</ele>
        <time>2012-05-10T08:12:44Z</time>
      </trkpt>
      <trkpt lat="47.00442" lon="6.03092">
        <ele>556.2</ele>
        <time>2012-05-10T08:12:53Z</time>
      </trkpt>
      <trkpt lat="47.00435" lon="6.03092">
        <ele>556.6</ele>
        <time>2012-05-10T08:13:02Z</time>
      </trkpt>
      <trkpt lat="47.00428" lon="6.0309">
        <ele>560.5</ele>
        <time>2012-05-10T08:13:12Z</time>
      </trkpt>
      <trkpt lat="47.00421" lon="6.03089">
        <ele>561.8</ele>
        <time>2012-05-10T08:13:20Z</time>
      </trkpt>
      <trkpt lat="47.00414" lon="6.03088">
        <ele>563.5</ele>
        <time>2012-05-10T08:13:25Z</time>
      </trkpt>
      <trkpt lat="47.00408" lon="6.03087">
        <ele>563.3</ele>
        <time>2012-05-10T08:13:36Z</time>
      </trkpt>
      <trkpt lat="47.00401" lon="6.03086">
        <ele>566.6</ele>
        <time>2012-05-10T08:13:43Z</time>
      </trkpt>
      <trkpt lat="47.00394" lon="6.03084">
        <ele>567.3</ele>
        <time>2012-05-10T08:13:50Z</time>
      </trkpt>
      <trkpt lat="47.0039" lon="6.03077">
        <ele>567.5</ele>
        <time>2012-05-10T08:13:57Z</time>
      </trkpt>
      <trkpt lat="47.00382" lon="6.03076">
        <ele>567.8</ele>
        <time>2012-05-10T08:14:04Z</time>
      </trkpt>
      <trkpt lat="47.00376" lon="6.03073">
        <ele>567.5</ele>
        <time>2012-05-10T08:14:13Z</time>
      </trkpt>
      <trkpt lat="47.0037" lon="6.0307">
        <ele>567.7</ele>
        <time>2012-05-10T08:14:19Z</time>
      </trkpt>
      <trkpt lat="47.00363" lon="6.03068">
        <ele>569.4</ele>
        <time>2012-05-10T08:14:25Z</time>
      </trkpt>
      <trkpt lat="47.00355" lon="6.03067">
        <ele>570.2</ele>
        <time>2012-05-10T08:14:32Z</time>
      </trkpt>
      <trkpt lat="47.00349" lon="6.0307">
        <ele>569.2</ele>
        <time>2012-05-10T08:14:39Z</time>
      </trkpt>
      <trkpt lat="47.00341" lon="6.0307">
        <ele>567.5</ele>
        <time>2012-05-10T08:14:46Z</time>
      </trkpt>
      <trkpt lat="47.00335" lon="6.03072">
        <ele>568.5</ele>
        <time>2012-05-10T08:14:53Z</time>
      </trkpt>
      <trkpt lat="47.00328" lon="6.03072">
        <ele>567.7</ele>
        <time>2012-05-10T08:14:58Z</time>
      </trkpt>
      <trkpt lat="47.00322" lon="6.03076">
        <ele>568.2</ele>
        <time>2012-05-10T08:15:06Z</time>
      </trkpt>
      <trkpt lat="47.00315" lon="6.03076">
        <ele>571.4</ele>
        <time>2012-05-10T08:15:15Z</time>
      </trkpt>
      <trkpt lat="47.00309" lon="6.03078">
        <ele>571.7</ele>
        <time>2012-05-10T08:15:20Z</time>
      </trkpt>
      <trkpt lat="47.00303" lon="6.03084">
        <ele>572.9</ele>
        <time>2012-05-10T08:15:28Z</time>
      </trkpt>
      <trkpt lat="47.00303" lon="6.03084">
        <ele>529.3</ele>
        <time>2012-05-10T08:15:39Z</time>
      </trkpt>
      <trkpt lat="47.00303" lon="6.03084">
        <ele>529.3</ele>
        <time>2012-05-10T08:15:55Z</time>
      </trkpt>
      <trkpt lat="47.00303" lon="6.03084">
        <ele>529.3</ele>
        <time>2012-05-10T08:16:06Z</time>
      </trkpt>
      <trkpt lat="47.00303" lon="6.03084">
        <ele>529.3</ele>
        <time>2012-05-10T08:16:54Z</time>
      </trkpt>
      <trkpt lat="47.00297" lon="6.03089">
        <ele>576.7</ele>
        <time>2012-05-10T08:17:01Z</time>
      </trkpt>
      <trkpt lat="47.00297" lon="6.03089">
        <ele>529.9</ele>
        <time>2012-05-10T08:17:12Z</time>
      </trkpt>
      <trkpt lat="47.00297" lon="6.03089">
        <ele>529.9</ele>
        <time>2012-05-10T08:17:22Z</time>
      </trkpt>
      <trkpt lat="47.00286" lon="6.03101">
        <ele>572.6</ele>
        <time>2012-05-10T08:17:26Z</time>
      </trkpt>
      <trkpt lat="47.00279" lon="6.03101">
        <ele>570.1</ele>
        <time>2012-05-10T08:17:33Z</time>
      </trkpt>
      <trkpt lat="47.00279" lon="6.03101">
        <ele>532.5</ele>
        <time>2012-05-10T08:17:44Z</time>
      </trkpt>
      <trkpt lat="47.00279" lon="6.03101">
        <ele>532.5</ele>
        <time>2012-05-10T08:17:54Z</time>
      </trkpt>
      <trkpt lat="47.00279" lon="6.03101">
        <ele>532.5</ele>
        <time>2012-05-10T08:18:05Z</time>
      </trkpt>
      <trkpt lat="47.00279" lon="6.03101">
        <ele>532.5</ele>
        <time>2012-05-10T08:18:11Z</time>
      </trkpt>
      <trkpt lat="47.00279" lon="6.03101">
        <ele>532.5</ele>
        <time>2012-05-10T08:18:22Z</time>
      </trkpt>
      <trkpt lat="47.00279" lon="6.03101">
        <ele>532.5</ele>
        <time>2012-05-10T08:18:32Z</time>
      </trkpt>
      <trkpt lat="47.00279" lon="6.03101">
        <ele>532.5</ele>
        <time>2012-05-10T08:18:43Z</time>
      </trkpt>
      <trkpt lat="47.00279" lon="6.03101">
        <ele>532.5</ele>
        <time>2012-05-10T08:18:55Z</time>
      </trkpt>
      <trkpt lat="47.00279" lon="6.03101">
        <ele>532.5</ele>
        <time>2012-05-10T08:19:06Z</time>
      </trkpt>
      <trkpt lat="47.00279" lon="6.03101">
        <ele>532.5</ele>
        <time>2012-05-10T08:19:12Z</time>
      </trkpt>
      <trkpt lat="47.00279" lon="6.03101">
        <ele>532.5</ele>
        <time>2012-05-10T08:19:23Z</time>
      </trkpt>
      <trkpt lat="47.00279" lon="6.03101">
        <ele>532.5</ele>
        <time>2012-05-10T08:19:27Z</time>
      </trkpt>
      <trkpt lat="47.00244" lon="6.0315">
        <ele>588.4</ele>
        <time>2012-05-10T08:19:35Z</time>
      </trkpt>
      <trkpt lat="47.0024" lon="6.03157">
        <ele>589.9</ele>
        <time>2012-05-10T08:19:45Z</time>
      </trkpt>
      <trkpt lat="47.00233" lon="6.03158">
        <ele>589.3</ele>
        <time>2012-05-10T08:19:54Z</time>
      </trkpt>
      <trkpt lat="47.00227" lon="6.03151">
        <ele>588.8</ele>
        <time>2012-05-10T08:20:01Z</time>
      </trkpt>
      <trkpt lat="47.0022" lon="6.03148">
        <ele>588.5</ele>
        <time>2012-05-10T08:20:06Z</time>
      </trkpt>
      <trkpt lat="47.00213" lon="6.03144">
        <ele>586.2</ele>
        <time>2012-05-10T08:20:14Z</time>
      </trkpt>
      <trkpt lat="47.00208" lon="6.03139">
        <ele>587.9</ele>
        <time>2012-05-10T08:20:20Z</time>
      </trkpt>
      <trkpt lat="47.00208" lon="6.03139">
        <ele>549.5</ele>
        <time>2012-05-10T08:20:32Z</time>
      </trkpt>
      <trkpt lat="47.00208" lon="6.03139">
        <ele>549.5</ele>
        <time>2012-05-10T08:20:32Z</time>
      </trkpt>
      <trkpt lat="47.00208" lon="6.03139">
        <ele>549.5</ele>
        <time>2012-05-10T08:20:44Z</time>
      </trkpt>
      <trkpt lat="47.00208" lon="6.03139">
        <ele>549.5</ele>
        <time>2012-05-10T08:20:46Z</time>
      </trkpt>
      <trkpt lat="47.00208" lon="6.03139">
        <ele>549.5</ele>
        <time>2012-05-10T08:20:58Z</time>
      </trkpt>
      <trkpt lat="47.00208" lon="6.03139">
        <ele>549.5</ele>
        <time>2012-05-10T08:21:01Z</time>
      </trkpt>
      <trkpt lat="47.00195" lon="6.03141">
        <ele>596.6</ele>
        <time>2012-05-10T08:21:10Z</time>
      </trkpt>
      <trkpt lat="47.00195" lon="6.03141">
        <ele>552.1</ele>
        <time>2012-05-10T08:21:22Z</time>
      </trkpt>
      <trkpt lat="47.00195" lon="6.03141">
        <ele>552.1</ele>
        <time>2012-05-10T08:21:27Z</time>
      </trkpt>
      <trkpt lat="47.00195" lon="6.03141">
        <ele>552.1</ele>
        <time>2012-05-10T08:21:39Z</time>
      </trkpt>
      <trkpt lat="47.00195" lon="6.03141">
        <ele>552.1</ele>
        <time>2012-05-10T08:21:39Z</time>
      </trkpt>
      <trkpt lat="47.00195" lon="6.03141">
        <ele>552.1</ele>
        <time>2012-05-10T08:21:51Z</time>
      </trkpt>
      <trkpt lat="47.00195" lon="6.03141">
        <ele>552.1</ele>
        <time>2012-05-10T08:21:57Z</time>
      </trkpt>
      <trkpt lat="47.00171" lon="6.03134">
        <ele>603.5</ele>
        <time>2012-05-10T08:22:06Z</time>
      </trkpt>
      <trkpt lat="47.00161" lon="6.03136">
        <ele>603.7</ele>
        <time>2012-05-10T08:22:15Z</time>
      </trkpt>
      <trkpt lat="47.00161" lon="6.03136">
        <ele>558.5</ele>
        <time>2012-05-10T08:22:27Z</time>
      </trkpt>
      <trkpt lat="47.00161" lon="6.03136">
        <ele>558.5</ele>
        <time>2012-05-10T08:22:36Z</time>
      </trkpt>
      <trkpt lat="47.00145" lon="6.03129">
        <ele>604.9</ele>
        <time>2012-05-10T08:22:39Z</time>
      </trkpt>
      <trkpt lat="47.00139" lon="6.03124">
        <ele>605.9</ele>
        <time>2012-05-10T08:22:43Z</time>
      </trkpt>
      <trkpt lat="47.00139" lon="6.03124">
        <ele>562.9</ele>
        <time>2012-05-10T08:22:55Z</time>
      </trkpt>
      <trkpt lat="47.00139" lon="6.03124">
        <ele>562.9</ele>
        <time>2012-05-10T08:23:04Z</time>
      </trkpt>
      <trkpt lat="47.00123" lon="6.03114">
        <ele>609.3</ele>
        <time>2012-05-10T08:23:08Z</time>
      </trkpt>
      <trkpt lat="47.00117" lon="6.03114">
        <ele>612.7</ele>
        <time>2012-05-10T08:23:14Z</time>
      </trkpt>
      <trkpt lat="47.00111" lon="6.03108">
        <ele>615.5</ele>
        <time>2012-05-10T08:23:23Z</time>
      </trkpt>
      <trkpt lat="47.00111" lon="6.03108">
        <ele>567.4</ele>
        <time>2012-05-10T08:23:35Z</time>
      </trkpt>
      <trkpt lat="47.00111" lon="6.03108">
        <ele>567.4</ele>
        <time>2012-05-10T08:23:48Z</time>
      </trkpt>
      <trkpt lat="47.00095" lon="6.03101">
        <ele>619</ele>
        <time>2012-05-10T08:23:50Z</time>
      </trkpt>
      <trkpt lat="47.00088" lon="6.03093">
        <ele>620.4</ele>
        <time>2012-05-10T08:23:53Z</time>
      </trkpt>
      <trkpt lat="47.00082" lon="6.03087">
        <ele>622</ele>
        <time>2012-05-10T08:23:56Z</time>
      </trkpt>
      <trkpt lat="47.00079" lon="6.03079">
        <ele>624</ele>
        <time>2012-05-10T08:24:02Z</time>
      </trkpt>
      <trkpt lat="47.00072" lon="6.03078">
        <ele>625.9</ele>
        <time>2012-05-10T08:24:09Z</time>
      </trkpt>
      <trkpt lat="47.00068" lon="6.03071">
        <ele>626.5</ele>
        <time>2012-05-10T08:24:19Z</time>
      </trkpt>
      <trkpt lat="47.00068" lon="6.03071">
        <ele>574</ele>
        <time>2012-05-10T08:24:31Z</time>
      </trkpt>
      <trkpt lat="47.00068" lon="6.03071">
        <ele>574</ele>
        <time>2012-05-10T08:24:38Z</time>
      </trkpt>
      <trkpt lat="47.00068" lon="6.03071">
        <ele>574</ele>
        <time>2012-05-10T08:24:50Z</time>
      </trkpt>
      <trkpt lat="47.00068" lon="6.03071">
        <ele>574</ele>
        <time>2012-05-10T08:24:57Z</time>
      </trkpt>
      <trkpt lat="47.00049" lon="6.03057">
        <ele>632.7</ele>
        <time>2012-05-10T08:25:07Z</time>
      </trkpt>
      <trkpt lat="47.00043" lon="6.0305">
        <ele>633</ele>
        <time>2012-05-10T08:25:12Z</time>
      </trkpt>
      <trkpt lat="47.00038" lon="6.03045">
        <ele>635.1</ele>
        <time>2012-05-10T08:25:20Z</time>
      </trkpt>
      <trkpt lat="47.00032" lon="6.03041">
        <ele>634.4</ele>
        <time>2012-05-10T08:25:27Z</time>
      </trkpt>
      <trkpt lat="47.00028" lon="6.03032">
        <ele>633.7</ele>
        <time>2012-05-10T08:25:35Z</time>
      </trkpt>
      <trkpt lat="47.00021" lon="6.03031">
        <ele>635</ele>
        <time>2012-05-10T08:25:43Z</time>
      </trkpt>
      <trkpt lat="47.00015" lon="6.03028">
        <ele>634</ele>
        <time>2012-05-10T08:25:53Z</time>
      </trkpt>
      <trkpt lat="47.00015" lon="6.03028">
        <ele>582.6</ele>
        <time>2012-05-10T08:26:05Z</time>
      </trkpt>
      <trkpt lat="47.00015" lon="6.03028">
        <ele>582.6</ele>
        <time>2012-05-10T08:26:06Z</time>
      </trkpt>
      <trkpt lat="47.00005" lon="6.03018">
        <ele>639.1</ele>
        <time>2012-05-10T08:26:17Z</time>
      </trkpt>
      <trkpt lat="46.99998" lon="6.03018">
        <ele>638.6</ele>
        <time>2012-05-10T08:26:23Z</time>
      </trkpt>
      <trkpt lat="46.99993" lon="6.03013">
        <ele>640.1</ele>
        <time>2012-05-10T08:26:29Z</time>
      </trkpt>
      <trkpt lat="46.99987" lon="6.0301">
        <ele>639.3</ele>
        <time>2012-05-10T08:26:38Z</time>
      </trkpt>
      <trkpt lat="46.99987" lon="6.0301">
        <ele>589.8</ele>
        <time>2012-05-10T08:26:50Z</time>
      </trkpt>
      <trkpt lat="46.99987" lon="6.0301">
        <ele>589.8</ele>
        <time>2012-05-10T08:27:04Z</time>
      </trkpt>
      <trkpt lat="46.9998" lon="6.0299">
        <ele>640</ele>
        <time>2012-05-10T08:27:11Z</time>
      </trkpt>
      <trkpt lat="46.99975" lon="6.02985">
        <ele>640.9</ele>
        <time>2012-05-10T08:27:17Z</time>
      </trkpt>
      <trkpt lat="46.9997" lon="6.02979">
        <ele>641.4</ele>
        <time>2012-05-10T08:27:28Z</time>
      </trkpt>
      <trkpt lat="46.99965" lon="6.02973">
        <ele>640.6</ele>
        <time>2012-05-10T08:27:35Z</time>
      </trkpt>
      <trkpt lat="46.99965" lon="6.02973">
        <ele>592</ele>
        <time>2012-05-10T08:27:47Z</time>
      </trkpt>
      <trkpt lat="46.99965" lon="6.02973">
        <ele>592</ele>
        <time>2012-05-10T08:27:50Z</time>
      </trkpt>
      <trkpt lat="46.99953" lon="6.0296">
        <ele>640.3</ele>
        <time>2012-05-10T08:27:56Z</time>
      </trkpt>
      <trkpt lat="46.99948" lon="6.02952">
        <ele>640.2</ele>
        <time>2012-05-10T08:28:02Z</time>
      </trkpt>
      <trkpt lat="46.99948" lon="6.02952">
        <ele>594.6</ele>
        <time>2012-05-10T08:28:14Z</time>
      </trkpt>
      <trkpt lat="46.99948" lon="6.02952">
        <ele>594.6</ele>
        <time>2012-05-10T08:28:23Z</time>
      </trkpt>
      <trkpt lat="46.99948" lon="6.02952">
        <ele>594.6</ele>
        <time>2012-05-10T08:28:35Z</time>
      </trkpt>
      <trkpt lat="46.99948" lon="6.02952">
        <ele>594.6</ele>
        <time>2012-05-10T08:30:55Z</time>
      </trkpt>
      <trkpt lat="46.99948" lon="6.02952">
        <ele>594.6</ele>
        <time>2012-05-10T08:31:06Z</time>
      </trkpt>
      <trkpt lat="46.99948" lon="6.02952">
        <ele>594.6</ele>
        <time>2012-05-10T08:32:18Z</time>
      </trkpt>
      <trkpt lat="46.99948" lon="6.02952">
        <ele>594.6</ele>
        <time>2012-05-10T08:32:29Z</time>
      </trkpt>
      <trkpt lat="46.99948" lon="6.02952">
        <ele>594.6</ele>
        <time>2012-05-10T08:32:45Z</time>
      </trkpt>
      <trkpt lat="46.99925" lon="6.0294">
        <ele>641.8</ele>
        <time>2012-05-10T08:32:52Z</time>
      </trkpt>
      <trkpt lat="46.99918" lon="6.02937">
        <ele>642.7</ele>
        <time>2012-05-10T08:33:02Z</time>
      </trkpt>
      <trkpt lat="46.99912" lon="6.02939">
        <ele>644.6</ele>
        <time>2012-05-10T08:33:07Z</time>
      </trkpt>
      <trkpt lat="46.99905" lon="6.02939">
        <ele>645.3</ele>
        <time>2012-05-10T08:33:11Z</time>
      </trkpt>
      <trkpt lat="46.99898" lon="6.0294">
        <ele>644.4</ele>
        <time>2012-05-10T08:33:17Z</time>
      </trkpt>
      <trkpt lat="46.99892" lon="6.02939">
        <ele>643.3</ele>
        <time>2012-05-10T08:33:23Z</time>
      </trkpt>
      <trkpt lat="46.99884" lon="6.02941">
        <ele>644</ele>
        <time>2012-05-10T08:33:29Z</time>
      </trkpt>
      <trkpt lat="46.99877" lon="6.02942">
        <ele>644.4</ele>
        <time>2012-05-10T08:33:34Z</time>
      </trkpt>
      <trkpt lat="46.99871" lon="6.02944">
        <ele>645.4</ele>
        <time>2012-05-10T08:33:40Z</time>
      </trkpt>
      <trkpt lat="46.99864" lon="6.02942">
        <ele>646.7</ele>
        <time>2012-05-10T08:33:48Z</time>
      </trkpt>
      <trkpt lat="46.99857" lon="6.02943">
        <ele>647.3</ele>
        <time>2012-05-10T08:33:53Z</time>
      </trkpt>
      <trkpt lat="46.9985" lon="6.02946">
        <ele>648.7</ele>
        <time>2012-05-10T08:33:59Z</time>
      </trkpt>
      <trkpt lat="46.99842" lon="6.02947">
        <ele>650.4</ele>
        <time>2012-05-10T08:34:05Z</time>
      </trkpt>
      <trkpt lat="46.99836" lon="6.02946">
        <ele>651.6</ele>
        <time>2012-05-10T08:34:11Z</time>
      </trkpt>
      <trkpt lat="46.99829" lon="6.02944">
        <ele>651.2</ele>
        <time>2012-05-10T08:34:18Z</time>
      </trkpt>
      <trkpt lat="46.99822" lon="6.02941">
        <ele>649.9</ele>
        <time>2012-05-10T08:34:27Z</time>
      </trkpt>
      <trkpt lat="46.99817" lon="6.02937">
        <ele>650.9</ele>
        <time>2012-05-10T08:34:34Z</time>
      </trkpt>
      <trkpt lat="46.99809" lon="6.02938">
        <ele>650</ele>
        <time>2012-05-10T08:34:39Z</time>
      </trkpt>
      <trkpt lat="46.99803" lon="6.02938">
        <ele>650</ele>
        <time>2012-05-10T08:34:45Z</time>
      </trkpt>
      <trkpt lat="46.99796" lon="6.0294">
        <ele>650.7</ele>
        <time>2012-05-10T08:34:51Z</time>
      </trkpt>
      <trkpt lat="46.9979" lon="6.02942">
        <ele>653.1</ele>
        <time>2012-05-10T08:34:57Z</time>
      </trkpt>
      <trkpt lat="46.99783" lon="6.02943">
        <ele>654.1</ele>
        <time>2012-05-10T08:35:02Z</time>
      </trkpt>
      <trkpt lat="46.99777" lon="6.02945">
        <ele>654.8</ele>
        <time>2012-05-10T08:35:07Z</time>
      </trkpt>
      <trkpt lat="46.99771" lon="6.02948">
        <ele>655.6</ele>
        <time>2012-05-10T08:35:13Z</time>
      </trkpt>
      <trkpt lat="46.99763" lon="6.02949">
        <ele>657.2</ele>
        <time>2012-05-10T08:35:23Z</time>
      </trkpt>
      <trkpt lat="46.99763" lon="6.02949">
        <ele>606</ele>
        <time>2012-05-10T08:35:35Z</time>
      </trkpt>
      <trkpt lat="46.99763" lon="6.02949">
        <ele>606</ele>
        <time>2012-05-10T08:35:35Z</time>
      </trkpt>
      <trkpt lat="46.99748" lon="6.0295">
        <ele>661.1</ele>
        <time>2012-05-10T08:35:40Z</time>
      </trkpt>
      <trkpt lat="46.99742" lon="6.02954">
        <ele>663.2</ele>
        <time>2012-05-10T08:35:47Z</time>
      </trkpt>
      <trkpt lat="46.99736" lon="6.02959">
        <ele>666.2</ele>
        <time>2012-05-10T08:35:57Z</time>
      </trkpt>
      <trkpt lat="46.99729" lon="6.02961">
        <ele>668.2</ele>
        <time>2012-05-10T08:36:05Z</time>
      </trkpt>
      <trkpt lat="46.99724" lon="6.02969">
        <ele>662.8</ele>
        <time>2012-05-10T08:36:12Z</time>
      </trkpt>
      <trkpt lat="46.99718" lon="6.02977">
        <ele>661.4</ele>
        <time>2012-05-10T08:36:18Z</time>
      </trkpt>
      <trkpt lat="46.99713" lon="6.02984">
        <ele>662.3</ele>
        <time>2012-05-10T08:36:22Z</time>
      </trkpt>
      <trkpt lat="46.9971" lon="6.02993">
        <ele>661.6</ele>
        <time>2012-05-10T08:36:31Z</time>
      </trkpt>
      <trkpt lat="46.99704" lon="6.03001">
        <ele>660.4</ele>
        <time>2012-05-10T08:36:39Z</time>
      </trkpt>
      <trkpt lat="46.997" lon="6.03012">
        <ele>659.9</ele>
        <time>2012-05-10T08:36:46Z</time>
      </trkpt>
      <trkpt lat="46.99695" lon="6.03019">
        <ele>661.5</ele>
        <time>2012-05-10T08:36:55Z</time>
      </trkpt>
      <trkpt lat="46.99687" lon="6.03023">
        <ele>662.2</ele>
        <time>2012-05-10T08:37:04Z</time>
      </trkpt>
      <trkpt lat="46.99684" lon="6.03033">
        <ele>659.5</ele>
        <time>2012-05-10T08:37:11Z</time>
      </trkpt>
      <trkpt lat="46.9968" lon="6.03042">
        <ele>658.2</ele>
        <time>2012-05-10T08:37:17Z</time>
      </trkpt>
      <trkpt lat="46.99676" lon="6.03048">
        <ele>658.7</ele>
        <time>2012-05-10T08:37:22Z</time>
      </trkpt>
      <trkpt lat="46.99672" lon="6.03058">
        <ele>659.2</ele>
        <time>2012-05-10T08:37:28Z</time>
      </trkpt>
      <trkpt lat="46.99667" lon="6.03064">
        <ele>661.2</ele>
        <time>2012-05-10T08:37:37Z</time>
      </trkpt>
      <trkpt lat="46.99662" lon="6.03072">
        <ele>660.3</ele>
        <time>2012-05-10T08:37:43Z</time>
      </trkpt>
      <trkpt lat="46.99657" lon="6.03079">
        <ele>659.4</ele>
        <time>2012-05-10T08:37:51Z</time>
      </trkpt>
      <trkpt lat="46.99651" lon="6.03085">
        <ele>658.3</ele>
        <time>2012-05-10T08:37:59Z</time>
      </trkpt>
      <trkpt lat="46.99647" lon="6.03093">
        <ele>660.7</ele>
        <time>2012-05-10T08:38:05Z</time>
      </trkpt>
      <trkpt lat="46.99643" lon="6.031">
        <ele>663.9</ele>
        <time>2012-05-10T08:38:11Z</time>
      </trkpt>
      <trkpt lat="46.99638" lon="6.03108">
        <ele>666.7</ele>
        <time>2012-05-10T08:38:17Z</time>
      </trkpt>
      <trkpt lat="46.99632" lon="6.03115">
        <ele>667</ele>
        <time>2012-05-10T08:38:24Z</time>
      </trkpt>
      <trkpt lat="46.99628" lon="6.03124">
        <ele>666.8</ele>
        <time>2012-05-10T08:38:29Z</time>
      </trkpt>
      <trkpt lat="46.99624" lon="6.03135">
        <ele>666</ele>
        <time>2012-05-10T08:38:33Z</time>
      </trkpt>
      <trkpt lat="46.9962" lon="6.03142">
        <ele>666.1</ele>
        <time>2012-05-10T08:38:37Z</time>
      </trkpt>
      <trkpt lat="46.99613" lon="6.03143">
        <ele>666.5</ele>
        <time>2012-05-10T08:38:42Z</time>
      </trkpt>
      <trkpt lat="46.99615" lon="6.03152">
        <ele>668.7</ele>
        <time>2012-05-10T08:38:44Z</time>
      </trkpt>
      <trkpt lat="46.99609" lon="6.03156">
        <ele>666.5</ele>
        <time>2012-05-10T08:38:52Z</time>
      </trkpt>
      <trkpt lat="46.99603" lon="6.03163">
        <ele>667.1</ele>
        <time>2012-05-10T08:39:01Z</time>
      </trkpt>
      <trkpt lat="46.99596" lon="6.0316">
        <ele>666</ele>
        <time>2012-05-10T08:39:10Z</time>
      </trkpt>
      <trkpt lat="46.9959" lon="6.03164">
        <ele>667.8</ele>
        <time>2012-05-10T08:39:17Z</time>
      </trkpt>
      <trkpt lat="46.99584" lon="6.03169">
        <ele>669.8</ele>
        <time>2012-05-10T08:39:25Z</time>
      </trkpt>
      <trkpt lat="46.99577" lon="6.03173">
        <ele>670</ele>
        <time>2012-05-10T08:39:31Z</time>
      </trkpt>
      <trkpt lat="46.9957" lon="6.03174">
        <ele>669.4</ele>
        <time>2012-05-10T08:39:36Z</time>
      </trkpt>
      <trkpt lat="46.99564" lon="6.03174">
        <ele>672.5</ele>
        <time>2012-05-10T08:39:41Z</time>
      </trkpt>
      <trkpt lat="46.99561" lon="6.03164">
        <ele>672.5</ele>
        <time>2012-05-10T08:39:49Z</time>
      </trkpt>
      <trkpt lat="46.99561" lon="6.03164">
        <ele>617.6</ele>
        <time>2012-05-10T08:40:01Z</time>
      </trkpt>
      <trkpt lat="46.99561" lon="6.03164">
        <ele>617.6</ele>
        <time>2012-05-10T08:40:43Z</time>
      </trkpt>
      <trkpt lat="46.9955" lon="6.03153">
        <ele>666.2</ele>
        <time>2012-05-10T08:40:48Z</time>
      </trkpt>
      <trkpt lat="46.99548" lon="6.03143">
        <ele>665.9</ele>
        <time>2012-05-10T08:40:54Z</time>
      </trkpt>
      <trkpt lat="46.99549" lon="6.03133">
        <ele>665.2</ele>
        <time>2012-05-10T08:40:58Z</time>
      </trkpt>
      <trkpt lat="46.99548" lon="6.03123">
        <ele>663.8</ele>
        <time>2012-05-10T08:41:03Z</time>
      </trkpt>
      <trkpt lat="46.99548" lon="6.03123">
        <ele>618.1</ele>
        <time>2012-05-10T08:41:15Z</time>
      </trkpt>
      <trkpt lat="46.99548" lon="6.03123">
        <ele>618.1</ele>
        <time>2012-05-10T08:41:17Z</time>
      </trkpt>
      <trkpt lat="46.99545" lon="6.03105">
        <ele>673.8</ele>
        <time>2012-05-10T08:41:23Z</time>
      </trkpt>
      <trkpt lat="46.99545" lon="6.03094">
        <ele>675.9</ele>
        <time>2012-05-10T08:41:30Z</time>
      </trkpt>
      <trkpt lat="46.99542" lon="6.03086">
        <ele>674.2</ele>
        <time>2012-05-10T08:41:38Z</time>
      </trkpt>
      <trkpt lat="46.99541" lon="6.03076">
        <ele>674</ele>
        <time>2012-05-10T08:41:44Z</time>
      </trkpt>
      <trkpt lat="46.99538" lon="6.03064">
        <ele>673.3</ele>
        <time>2012-05-10T08:41:50Z</time>
      </trkpt>
      <trkpt lat="46.99536" lon="6.03054">
        <ele>673.3</ele>
        <time>2012-05-10T08:41:56Z</time>
      </trkpt>
      <trkpt lat="46.99534" lon="6.03045">
        <ele>672.9</ele>
        <time>2012-05-10T08:42:00Z</time>
      </trkpt>
      <trkpt lat="46.99534" lon="6.03035">
        <ele>672.3</ele>
        <time>2012-05-10T08:42:04Z</time>
      </trkpt>
      <trkpt lat="46.99533" lon="6.03025">
        <ele>672.9</ele>
        <time>2012-05-10T08:42:10Z</time>
      </trkpt>
      <trkpt lat="46.99535" lon="6.03016">
        <ele>668.3</ele>
        <time>2012-05-10T08:42:20Z</time>
      </trkpt>
      <trkpt lat="46.99533" lon="6.03007">
        <ele>667.7</ele>
        <time>2012-05-10T08:42:24Z</time>
      </trkpt>
      <trkpt lat="46.99532" lon="6.02996">
        <ele>667.7</ele>
        <time>2012-05-10T08:42:29Z</time>
      </trkpt>
      <trkpt lat="46.9953" lon="6.02987">
        <ele>668</ele>
        <time>2012-05-10T08:42:36Z</time>
      </trkpt>
      <trkpt lat="46.99529" lon="6.02974">
        <ele>669.1</ele>
        <time>2012-05-10T08:42:43Z</time>
      </trkpt>
      <trkpt lat="46.99527" lon="6.02964">
        <ele>669.4</ele>
        <time>2012-05-10T08:42:46Z</time>
      </trkpt>
      <trkpt lat="46.99525" lon="6.02953">
        <ele>666.4</ele>
        <time>2012-05-10T08:42:52Z</time>
      </trkpt>
      <trkpt lat="46.99522" lon="6.02944">
        <ele>665.8</ele>
        <time>2012-05-10T08:42:55Z</time>
      </trkpt>
      <trkpt lat="46.99521" lon="6.02933">
        <ele>664.8</ele>
        <time>2012-05-10T08:42:59Z</time>
      </trkpt>
      <trkpt lat="46.99519" lon="6.02922">
        <ele>666.1</ele>
        <time>2012-05-10T08:43:03Z</time>
      </trkpt>
      <trkpt lat="46.99515" lon="6.02914">
        <ele>665.5</ele>
        <time>2012-05-10T08:43:08Z</time>
      </trkpt>
      <trkpt lat="46.99513" lon="6.02905">
        <ele>664.3</ele>
        <time>2012-05-10T08:43:13Z</time>
      </trkpt>
      <trkpt lat="46.99513" lon="6.02895">
        <ele>664</ele>
        <time>2012-05-10T08:43:19Z</time>
      </trkpt>
      <trkpt lat="46.9951" lon="6.02884">
        <ele>663.9</ele>
        <time>2012-05-10T08:43:23Z</time>
      </trkpt>
      <trkpt lat="46.99508" lon="6.02874">
        <ele>664.3</ele>
        <time>2012-05-10T08:43:28Z</time>
      </trkpt>
      <trkpt lat="46.99509" lon="6.02864">
        <ele>664.9</ele>
        <time>2012-05-10T08:43:33Z</time>
      </trkpt>
      <trkpt lat="46.99509" lon="6.02864">
        <ele>616.5</ele>
        <time>2012-05-10T08:43:44Z</time>
      </trkpt>
      <trkpt lat="46.99509" lon="6.02864">
        <ele>616.5</ele>
        <time>2012-05-10T08:43:47Z</time>
      </trkpt>
      <trkpt lat="46.99503" lon="6.02845">
        <ele>663.5</ele>
        <time>2012-05-10T08:43:55Z</time>
      </trkpt>
      <trkpt lat="46.99501" lon="6.02834">
        <ele>662.6</ele>
        <time>2012-05-10T08:44:05Z</time>
      </trkpt>
      <trkpt lat="46.99497" lon="6.02824">
        <ele>663.2</ele>
        <time>2012-05-10T08:44:07Z</time>
      </trkpt>
      <trkpt lat="46.99495" lon="6.02815">
        <ele>663.5</ele>
        <time>2012-05-10T08:44:11Z</time>
      </trkpt>
      <trkpt lat="46.99494" lon="6.02804">
        <ele>664.8</ele>
        <time>2012-05-10T08:44:14Z</time>
      </trkpt>
      <trkpt lat="46.9949" lon="6.02796">
        <ele>665.4</ele>
        <time>2012-05-10T08:44:19Z</time>
      </trkpt>
      <trkpt lat="46.99489" lon="6.02785">
        <ele>664.2</ele>
        <time>2012-05-10T08:44:24Z</time>
      </trkpt>
      <trkpt lat="46.99488" lon="6.02774">
        <ele>665.1</ele>
        <time>2012-05-10T08:44:29Z</time>
      </trkpt>
      <trkpt lat="46.99484" lon="6.02765">
        <ele>664.4</ele>
        <time>2012-05-10T08:44:40Z</time>
      </trkpt>
      <trkpt lat="46.9948" lon="6.02757">
        <ele>665.9</ele>
        <time>2012-05-10T08:44:46Z</time>
      </trkpt>
      <trkpt lat="46.99477" lon="6.02747">
        <ele>665.9</ele>
        <time>2012-05-10T08:44:51Z</time>
      </trkpt>
      <trkpt lat="46.99475" lon="6.02737">
        <ele>667.6</ele>
        <time>2012-05-10T08:44:56Z</time>
      </trkpt>
      <trkpt lat="46.99474" lon="6.02727">
        <ele>667.7</ele>
        <time>2012-05-10T08:45:01Z</time>
      </trkpt>
      <trkpt lat="46.99471" lon="6.02719">
        <ele>667.1</ele>
        <time>2012-05-10T08:45:05Z</time>
      </trkpt>
      <trkpt lat="46.99471" lon="6.02709">
        <ele>667.5</ele>
        <time>2012-05-10T08:45:11Z</time>
      </trkpt>
      <trkpt lat="46.99471" lon="6.027">
        <ele>668.3</ele>
        <time>2012-05-10T08:45:16Z</time>
      </trkpt>
      <trkpt lat="46.99469" lon="6.02688">
        <ele>666.4</ele>
        <time>2012-05-10T08:45:22Z</time>
      </trkpt>
      <trkpt lat="46.9947" lon="6.02679">
        <ele>664.3</ele>
        <time>2012-05-10T08:45:28Z</time>
      </trkpt>
      <trkpt lat="46.99469" lon="6.02668">
        <ele>664.6</ele>
        <time>2012-05-10T08:45:35Z</time>
      </trkpt>
      <trkpt lat="46.9947" lon="6.02659">
        <ele>665.2</ele>
        <time>2012-05-10T08:45:40Z</time>
      </trkpt>
      <trkpt lat="46.9947" lon="6.02648">
        <ele>665.4</ele>
        <time>2012-05-10T08:45:46Z</time>
      </trkpt>
      <trkpt lat="46.99471" lon="6.02638">
        <ele>664.9</ele>
        <time>2012-05-10T08:45:52Z</time>
      </trkpt>
      <trkpt lat="46.99471" lon="6.02628">
        <ele>665</ele>
        <time>2012-05-10T08:45:58Z</time>
      </trkpt>
      <trkpt lat="46.99469" lon="6.02617">
        <ele>661.9</ele>
        <time>2012-05-10T08:46:04Z</time>
      </trkpt>
      <trkpt lat="46.9947" lon="6.02607">
        <ele>661.4</ele>
        <time>2012-05-10T08:46:10Z</time>
      </trkpt>
      <trkpt lat="46.9947" lon="6.02598">
        <ele>661.6</ele>
        <time>2012-05-10T08:46:16Z</time>
      </trkpt>
      <trkpt lat="46.99472" lon="6.02587">
        <ele>662</ele>
        <time>2012-05-10T08:46:21Z</time>
      </trkpt>
      <trkpt lat="46.99473" lon="6.02576">
        <ele>660</ele>
        <time>2012-05-10T08:46:28Z</time>
      </trkpt>
      <trkpt lat="46.99473" lon="6.02565">
        <ele>660.8</ele>
        <time>2012-05-10T08:46:35Z</time>
      </trkpt>
      <trkpt lat="46.99475" lon="6.02556">
        <ele>659.7</ele>
        <time>2012-05-10T08:46:41Z</time>
      </trkpt>
      <trkpt lat="46.99474" lon="6.02547">
        <ele>660</ele>
        <time>2012-05-10T08:46:47Z</time>
      </trkpt>
      <trkpt lat="46.99474" lon="6.02536">
        <ele>660.7</ele>
        <time>2012-05-10T08:46:54Z</time>
      </trkpt>
      <trkpt lat="46.99477" lon="6.02526">
        <ele>659.9</ele>
        <time>2012-05-10T08:47:01Z</time>
      </trkpt>
      <trkpt lat="46.99477" lon="6.02526">
        <ele>613.8</ele>
        <time>2012-05-10T08:47:12Z</time>
      </trkpt>
      <trkpt lat="46.99477" lon="6.02526">
        <ele>613.8</ele>
        <time>2012-05-10T08:47:30Z</time>
      </trkpt>
      <trkpt lat="46.99473" lon="6.02504">
        <ele>660.8</ele>
        <time>2012-05-10T08:47:34Z</time>
      </trkpt>
      <trkpt lat="46.99476" lon="6.02493">
        <ele>661.4</ele>
        <time>2012-05-10T08:47:39Z</time>
      </trkpt>
      <trkpt lat="46.99476" lon="6.02483">
        <ele>662.3</ele>
        <time>2012-05-10T08:47:44Z</time>
      </trkpt>
      <trkpt lat="46.99476" lon="6.02472">
        <ele>663.1</ele>
        <time>2012-05-10T08:47:48Z</time>
      </trkpt>
      <trkpt lat="46.99475" lon="6.02461">
        <ele>661</ele>
        <time>2012-05-10T08:47:53Z</time>
      </trkpt>
      <trkpt lat="46.99478" lon="6.02452">
        <ele>661.2</ele>
        <time>2012-05-10T08:47:58Z</time>
      </trkpt>
      <trkpt lat="46.99479" lon="6.02443">
        <ele>659.3</ele>
        <time>2012-05-10T08:48:06Z</time>
      </trkpt>
      <trkpt lat="46.9948" lon="6.0243">
        <ele>658.6</ele>
        <time>2012-05-10T08:48:12Z</time>
      </trkpt>
      <trkpt lat="46.99481" lon="6.0242">
        <ele>658</ele>
        <time>2012-05-10T08:48:16Z</time>
      </trkpt>
      <trkpt lat="46.99482" lon="6.02408">
        <ele>656.5</ele>
        <time>2012-05-10T08:48:22Z</time>
      </trkpt>
      <trkpt lat="46.99482" lon="6.02398">
        <ele>656.3</ele>
        <time>2012-05-10T08:48:26Z</time>
      </trkpt>
      <trkpt lat="46.99483" lon="6.02389">
        <ele>655.7</ele>
        <time>2012-05-10T08:48:32Z</time>
      </trkpt>
      <trkpt lat="46.99481" lon="6.02378">
        <ele>656.6</ele>
        <time>2012-05-10T08:48:36Z</time>
      </trkpt>
      <trkpt lat="46.99481" lon="6.02369">
        <ele>656.3</ele>
        <time>2012-05-10T08:48:40Z</time>
      </trkpt>
      <trkpt lat="46.99482" lon="6.02359">
        <ele>655.3</ele>
        <time>2012-05-10T08:48:46Z</time>
      </trkpt>
      <trkpt lat="46.99482" lon="6.02348">
        <ele>656</ele>
        <time>2012-05-10T08:48:51Z</time>
      </trkpt>
      <trkpt lat="46.99483" lon="6.02337">
        <ele>655.5</ele>
        <time>2012-05-10T08:48:56Z</time>
      </trkpt>
      <trkpt lat="46.99483" lon="6.02327">
        <ele>655.2</ele>
        <time>2012-05-10T08:49:00Z</time>
      </trkpt>
      <trkpt lat="46.99482" lon="6.02317">
        <ele>656.2</ele>
        <time>2012-05-10T08:49:05Z</time>
      </trkpt>
      <trkpt lat="46.99481" lon="6.02306">
        <ele>656.9</ele>
        <time>2012-05-10T08:49:10Z</time>
      </trkpt>
      <trkpt lat="46.99482" lon="6.02296">
        <ele>657.5</ele>
        <time>2012-05-10T08:49:15Z</time>
      </trkpt>
      <trkpt lat="46.99483" lon="6.02287">
        <ele>657.9</ele>
        <time>2012-05-10T08:49:18Z</time>
      </trkpt>
      <trkpt lat="46.99482" lon="6.02277">
        <ele>657.5</ele>
        <time>2012-05-10T08:49:24Z</time>
      </trkpt>
      <trkpt lat="46.99483" lon="6.02266">
        <ele>658.2</ele>
        <time>2012-05-10T08:49:30Z</time>
      </trkpt>
      <trkpt lat="46.99479" lon="6.02256">
        <ele>657.6</ele>
        <time>2012-05-10T08:49:36Z</time>
      </trkpt>
      <trkpt lat="46.99476" lon="6.02248">
        <ele>659.3</ele>
        <time>2012-05-10T08:49:41Z</time>
      </trkpt>
      <trkpt lat="46.99472" lon="6.0224">
        <ele>659.8</ele>
        <time>2012-05-10T08:49:46Z</time>
      </trkpt>
      <trkpt lat="46.9947" lon="6.02231">
        <ele>660.2</ele>
        <time>2012-05-10T08:49:50Z</time>
      </trkpt>
      <trkpt lat="46.99471" lon="6.0222">
        <ele>660.8</ele>
        <time>2012-05-10T08:50:00Z</time>
      </trkpt>
      <trkpt lat="46.99471" lon="6.0222">
        <ele>615.2</ele>
        <time>2012-05-10T08:50:12Z</time>
      </trkpt>
      <trkpt lat="46.99471" lon="6.0222">
        <ele>615.2</ele>
        <time>2012-05-10T08:50:35Z</time>
      </trkpt>
      <trkpt lat="46.99461" lon="6.02203">
        <ele>661</ele>
        <time>2012-05-10T08:50:41Z</time>
      </trkpt>
      <trkpt lat="46.99461" lon="6.02203">
        <ele>616.3</ele>
        <time>2012-05-10T08:50:53Z</time>
      </trkpt>
      <trkpt lat="46.99461" lon="6.02203">
        <ele>616.3</ele>
        <time>2012-05-10T08:51:15Z</time>
      </trkpt>
      <trkpt lat="46.99454" lon="6.02187">
        <ele>658.5</ele>
        <time>2012-05-10T08:51:21Z</time>
      </trkpt>
      <trkpt lat="46.99453" lon="6.02178">
        <ele>660.3</ele>
        <time>2012-05-10T08:51:25Z</time>
      </trkpt>
      <trkpt lat="46.99449" lon="6.02163">
        <ele>662.9</ele>
        <time>2012-05-10T08:51:33Z</time>
      </trkpt>
      <trkpt lat="46.99445" lon="6.02155">
        <ele>663.1</ele>
        <time>2012-05-10T08:51:38Z</time>
      </trkpt>
      <trkpt lat="46.99443" lon="6.02146">
        <ele>664.7</ele>
        <time>2012-05-10T08:51:43Z</time>
      </trkpt>
      <trkpt lat="46.99439" lon="6.02138">
        <ele>663.6</ele>
        <time>2012-05-10T08:51:48Z</time>
      </trkpt>
      <trkpt lat="46.99437" lon="6.02128">
        <ele>665.8</ele>
        <time>2012-05-10T08:51:58Z</time>
      </trkpt>
      <trkpt lat="46.99437" lon="6.02128">
        <ele>617.8</ele>
        <time>2012-05-10T08:52:10Z</time>
      </trkpt>
      <trkpt lat="46.99437" lon="6.02128">
        <ele>617.8</ele>
        <time>2012-05-10T08:53:18Z</time>
      </trkpt>
      <trkpt lat="46.99435" lon="6.02107">
        <ele>665.9</ele>
        <time>2012-05-10T08:53:23Z</time>
      </trkpt>
      <trkpt lat="46.99432" lon="6.02098">
        <ele>666.2</ele>
        <time>2012-05-10T08:53:27Z</time>
      </trkpt>
      <trkpt lat="46.9943" lon="6.02088">
        <ele>665</ele>
        <time>2012-05-10T08:53:33Z</time>
      </trkpt>
      <trkpt lat="46.9943" lon="6.02078">
        <ele>667.1</ele>
        <time>2012-05-10T08:53:39Z</time>
      </trkpt>
      <trkpt lat="46.99425" lon="6.02068">
        <ele>668.5</ele>
        <time>2012-05-10T08:53:43Z</time>
      </trkpt>
      <trkpt lat="46.99424" lon="6.02059">
        <ele>668.9</ele>
        <time>2012-05-10T08:53:48Z</time>
      </trkpt>
      <trkpt lat="46.99422" lon="6.02049">
        <ele>670.3</ele>
        <time>2012-05-10T08:53:53Z</time>
      </trkpt>
      <trkpt lat="46.99418" lon="6.0204">
        <ele>669.1</ele>
        <time>2012-05-10T08:53:58Z</time>
      </trkpt>
      <trkpt lat="46.99415" lon="6.02031">
        <ele>667.6</ele>
        <time>2012-05-10T08:54:05Z</time>
      </trkpt>
      <trkpt lat="46.99416" lon="6.02021">
        <ele>667.6</ele>
        <time>2012-05-10T08:54:11Z</time>
      </trkpt>
      <trkpt lat="46.99415" lon="6.02011">
        <ele>668.7</ele>
        <time>2012-05-10T08:54:15Z</time>
      </trkpt>
      <trkpt lat="46.99411" lon="6.02002">
        <ele>667.2</ele>
        <time>2012-05-10T08:54:22Z</time>
      </trkpt>
      <trkpt lat="46.99413" lon="6.01991">
        <ele>669.1</ele>
        <time>2012-05-10T08:54:28Z</time>
      </trkpt>
      <trkpt lat="46.99414" lon="6.01981">
        <ele>668.5</ele>
        <time>2012-05-10T08:54:32Z</time>
      </trkpt>
      <trkpt lat="46.9941" lon="6.01971">
        <ele>668.4</ele>
        <time>2012-05-10T08:54:38Z</time>
      </trkpt>
      <trkpt lat="46.99409" lon="6.0196">
        <ele>669.3</ele>
        <time>2012-05-10T08:54:45Z</time>
      </trkpt>
      <trkpt lat="46.99409" lon="6.01949">
        <ele>670.4</ele>
        <time>2012-05-10T08:54:52Z</time>
      </trkpt>
      <trkpt lat="46.99408" lon="6.0194">
        <ele>669.8</ele>
        <time>2012-05-10T08:54:58Z</time>
      </trkpt>
      <trkpt lat="46.99409" lon="6.0193">
        <ele>669.4</ele>
        <time>2012-05-10T08:55:05Z</time>
      </trkpt>
      <trkpt lat="46.99409" lon="6.0192">
        <ele>670.8</ele>
        <time>2012-05-10T08:55:10Z</time>
      </trkpt>
      <trkpt lat="46.99406" lon="6.0191">
        <ele>672.1</ele>
        <time>2012-05-10T08:55:18Z</time>
      </trkpt>
      <trkpt lat="46.99405" lon="6.01899">
        <ele>672.1</ele>
        <time>2012-05-10T08:55:23Z</time>
      </trkpt>
      <trkpt lat="46.99404" lon="6.0189">
        <ele>672.1</ele>
        <time>2012-05-10T08:55:30Z</time>
      </trkpt>
      <trkpt lat="46.99406" lon="6.0188">
        <ele>671.1</ele>
        <time>2012-05-10T08:55:37Z</time>
      </trkpt>
      <trkpt lat="46.99406" lon="6.01871">
        <ele>669.6</ele>
        <time>2012-05-10T08:55:42Z</time>
      </trkpt>
      <trkpt lat="46.99405" lon="6.01861">
        <ele>671.8</ele>
        <time>2012-05-10T08:55:47Z</time>
      </trkpt>
      <trkpt lat="46.99404" lon="6.01852">
        <ele>672.3</ele>
        <time>2012-05-10T08:55:52Z</time>
      </trkpt>
      <trkpt lat="46.99404" lon="6.01842">
        <ele>670.7</ele>
        <time>2012-05-10T08:55:57Z</time>
      </trkpt>
      <trkpt lat="46.99402" lon="6.01832">
        <ele>669</ele>
        <time>2012-05-10T08:56:02Z</time>
      </trkpt>
      <trkpt lat="46.99402" lon="6.01821">
        <ele>668</ele>
        <time>2012-05-10T08:56:08Z</time>
      </trkpt>
      <trkpt lat="46.99399" lon="6.01812">
        <ele>665.4</ele>
        <time>2012-05-10T08:56:14Z</time>
      </trkpt>
      <trkpt lat="46.99401" lon="6.01802">
        <ele>666.1</ele>
        <time>2012-05-10T08:56:20Z</time>
      </trkpt>
      <trkpt lat="46.99404" lon="6.01792">
        <ele>665.9</ele>
        <time>2012-05-10T08:56:26Z</time>
      </trkpt>
      <trkpt lat="46.99407" lon="6.01782">
        <ele>667.6</ele>
        <time>2012-05-10T08:56:33Z</time>
      </trkpt>
      <trkpt lat="46.99405" lon="6.01772">
        <ele>668</ele>
        <time>2012-05-10T08:56:41Z</time>
      </trkpt>
      <trkpt lat="46.99401" lon="6.01762">
        <ele>670.1</ele>
        <time>2012-05-10T08:56:47Z</time>
      </trkpt>
      <trkpt lat="46.994" lon="6.01752">
        <ele>672.1</ele>
        <time>2012-05-10T08:56:53Z</time>
      </trkpt>
      <trkpt lat="46.994" lon="6.01742">
        <ele>671.7</ele>
        <time>2012-05-10T08:57:00Z</time>
      </trkpt>
      <trkpt lat="46.994" lon="6.01732">
        <ele>672.8</ele>
        <time>2012-05-10T08:57:07Z</time>
      </trkpt>
      <trkpt lat="46.99399" lon="6.01722">
        <ele>671.6</ele>
        <time>2012-05-10T08:57:12Z</time>
      </trkpt>
      <trkpt lat="46.99395" lon="6.01712">
        <ele>671.4</ele>
        <time>2012-05-10T08:57:18Z</time>
      </trkpt>
      <trkpt lat="46.99396" lon="6.01702">
        <ele>672.4</ele>
        <time>2012-05-10T08:57:24Z</time>
      </trkpt>
      <trkpt lat="46.994" lon="6.01694">
        <ele>673.2</ele>
        <time>2012-05-10T08:57:30Z</time>
      </trkpt>
      <trkpt lat="46.99396" lon="6.01685">
        <ele>673.4</ele>
        <time>2012-05-10T08:57:37Z</time>
      </trkpt>
      <trkpt lat="46.99398" lon="6.01675">
        <ele>675.4</ele>
        <time>2012-05-10T08:57:44Z</time>
      </trkpt>
      <trkpt lat="46.99398" lon="6.01665">
        <ele>673.1</ele>
        <time>2012-05-10T08:57:52Z</time>
      </trkpt>
      <trkpt lat="46.99397" lon="6.01655">
        <ele>672.5</ele>
        <time>2012-05-10T08:57:58Z</time>
      </trkpt>
      <trkpt lat="46.994" lon="6.01645">
        <ele>672.4</ele>
        <time>2012-05-10T08:58:04Z</time>
      </trkpt>
      <trkpt lat="46.99396" lon="6.01638">
        <ele>669.7</ele>
        <time>2012-05-10T08:58:11Z</time>
      </trkpt>
      <trkpt lat="46.99394" lon="6.01628">
        <ele>669.1</ele>
        <time>2012-05-10T08:58:15Z</time>
      </trkpt>
      <trkpt lat="46.99393" lon="6.01619">
        <ele>668.7</ele>
        <time>2012-05-10T08:58:21Z</time>
      </trkpt>
      <trkpt lat="46.9939" lon="6.0161">
        <ele>669.2</ele>
        <time>2012-05-10T08:58:28Z</time>
      </trkpt>
      <trkpt lat="46.99388" lon="6.01601">
        <ele>670.2</ele>
        <time>2012-05-10T08:58:35Z</time>
      </trkpt>
      <trkpt lat="46.9939" lon="6.01592">
        <ele>671.7</ele>
        <time>2012-05-10T08:58:41Z</time>
      </trkpt>
      <trkpt lat="46.99389" lon="6.01581">
        <ele>671.2</ele>
        <time>2012-05-10T08:58:46Z</time>
      </trkpt>
      <trkpt lat="46.99386" lon="6.01572">
        <ele>670.7</ele>
        <time>2012-05-10T08:58:51Z</time>
      </trkpt>
      <trkpt lat="46.99385" lon="6.01562">
        <ele>671.4</ele>
        <time>2012-05-10T08:58:58Z</time>
      </trkpt>
      <trkpt lat="46.99379" lon="6.01559">
        <ele>671.5</ele>
        <time>2012-05-10T08:59:03Z</time>
      </trkpt>
      <trkpt lat="46.9938" lon="6.01549">
        <ele>672.4</ele>
        <time>2012-05-10T08:59:08Z</time>
      </trkpt>
      <trkpt lat="46.9938" lon="6.01537">
        <ele>673.3</ele>
        <time>2012-05-10T08:59:13Z</time>
      </trkpt>
      <trkpt lat="46.99377" lon="6.01527">
        <ele>674.6</ele>
        <time>2012-05-10T08:59:19Z</time>
      </trkpt>
      <trkpt lat="46.99372" lon="6.0152">
        <ele>675.6</ele>
        <time>2012-05-10T08:59:24Z</time>
      </trkpt>
      <trkpt lat="46.99372" lon="6.01509">
        <ele>677.3</ele>
        <time>2012-05-10T08:59:31Z</time>
      </trkpt>
      <trkpt lat="46.99371" lon="6.01499">
        <ele>680.6</ele>
        <time>2012-05-10T08:59:39Z</time>
      </trkpt>
      <trkpt lat="46.99368" lon="6.01489">
        <ele>680.8</ele>
        <time>2012-05-10T08:59:45Z</time>
      </trkpt>
      <trkpt lat="46.99362" lon="6.01484">
        <ele>680.5</ele>
        <time>2012-05-10T08:59:51Z</time>
      </trkpt>
      <trkpt lat="46.99355" lon="6.0148">
        <ele>681.3</ele>
        <time>2012-05-10T08:59:58Z</time>
      </trkpt>
      <trkpt lat="46.99358" lon="6.01471">
        <ele>679.7</ele>
        <time>2012-05-10T09:00:02Z</time>
      </trkpt>
      <trkpt lat="46.99356" lon="6.01462">
        <ele>678.8</ele>
        <time>2012-05-10T09:00:06Z</time>
      </trkpt>
      <trkpt lat="46.99354" lon="6.01451">
        <ele>678.9</ele>
        <time>2012-05-10T09:00:11Z</time>
      </trkpt>
      <trkpt lat="46.99353" lon="6.01441">
        <ele>677.9</ele>
        <time>2012-05-10T09:00:16Z</time>
      </trkpt>
      <trkpt lat="46.99348" lon="6.01431">
        <ele>680</ele>
        <time>2012-05-10T09:00:21Z</time>
      </trkpt>
      <trkpt lat="46.99344" lon="6.01421">
        <ele>678</ele>
        <time>2012-05-10T09:00:25Z</time>
      </trkpt>
      <trkpt lat="46.99341" lon="6.01413">
        <ele>677.6</ele>
        <time>2012-05-10T09:00:29Z</time>
      </trkpt>
      <trkpt lat="46.99339" lon="6.01404">
        <ele>677.3</ele>
        <time>2012-05-10T09:00:36Z</time>
      </trkpt>
      <trkpt lat="46.99336" lon="6.01396">
        <ele>678.3</ele>
        <time>2012-05-10T09:00:43Z</time>
      </trkpt>
      <trkpt lat="46.99331" lon="6.01388">
        <ele>679.4</ele>
        <time>2012-05-10T09:00:49Z</time>
      </trkpt>
      <trkpt lat="46.9933" lon="6.01379">
        <ele>678.1</ele>
        <time>2012-05-10T09:00:55Z</time>
      </trkpt>
      <trkpt lat="46.99324" lon="6.01373">
        <ele>675.6</ele>
        <time>2012-05-10T09:01:01Z</time>
      </trkpt>
      <trkpt lat="46.99324" lon="6.01363">
        <ele>675.5</ele>
        <time>2012-05-10T09:01:07Z</time>
      </trkpt>
      <trkpt lat="46.99322" lon="6.01352">
        <ele>677.5</ele>
        <time>2012-05-10T09:01:15Z</time>
      </trkpt>
      <trkpt lat="46.99316" lon="6.01335">
        <ele>676.3</ele>
        <time>2012-05-10T09:01:20Z</time>
      </trkpt>
      <trkpt lat="46.99315" lon="6.01325">
        <ele>678.6</ele>
        <time>2012-05-10T09:01:23Z</time>
      </trkpt>
      <trkpt lat="46.99314" lon="6.01316">
        <ele>679.6</ele>
        <time>2012-05-10T09:01:28Z</time>
      </trkpt>
      <trkpt lat="46.99314" lon="6.01316">
        <ele>619.4</ele>
        <time>2012-05-10T09:01:39Z</time>
      </trkpt>
      <trkpt lat="46.99314" lon="6.01316">
        <ele>619.4</ele>
        <time>2012-05-10T09:01:48Z</time>
      </trkpt>
      <trkpt lat="46.99302" lon="6.01299">
        <ele>679</ele>
        <time>2012-05-10T09:01:52Z</time>
      </trkpt>
      <trkpt lat="46.99301" lon="6.01289">
        <ele>679.9</ele>
        <time>2012-05-10T09:01:55Z</time>
      </trkpt>
      <trkpt lat="46.99301" lon="6.0128">
        <ele>680</ele>
        <time>2012-05-10T09:01:59Z</time>
      </trkpt>
      <trkpt lat="46.99295" lon="6.01274">
        <ele>677.9</ele>
        <time>2012-05-10T09:02:06Z</time>
      </trkpt>
      <trkpt lat="46.99291" lon="6.01267">
        <ele>679.1</ele>
        <time>2012-05-10T09:02:12Z</time>
      </trkpt>
      <trkpt lat="46.99289" lon="6.01258">
        <ele>681.3</ele>
        <time>2012-05-10T09:02:18Z</time>
      </trkpt>
      <trkpt lat="46.99285" lon="6.0125">
        <ele>682.8</ele>
        <time>2012-05-10T09:02:22Z</time>
      </trkpt>
      <trkpt lat="46.9928" lon="6.01241">
        <ele>684</ele>
        <time>2012-05-10T09:02:27Z</time>
      </trkpt>
      <trkpt lat="46.9928" lon="6.01232">
        <ele>684.2</ele>
        <time>2012-05-10T09:02:33Z</time>
      </trkpt>
      <trkpt lat="46.99278" lon="6.01223">
        <ele>684.4</ele>
        <time>2012-05-10T09:02:39Z</time>
      </trkpt>
      <trkpt lat="46.99278" lon="6.01213">
        <ele>684.2</ele>
        <time>2012-05-10T09:02:44Z</time>
      </trkpt>
      <trkpt lat="46.99276" lon="6.01204">
        <ele>684.9</ele>
        <time>2012-05-10T09:02:51Z</time>
      </trkpt>
      <trkpt lat="46.99271" lon="6.01197">
        <ele>685.2</ele>
        <time>2012-05-10T09:02:56Z</time>
      </trkpt>
      <trkpt lat="46.99269" lon="6.01188">
        <ele>684.5</ele>
        <time>2012-05-10T09:03:03Z</time>
      </trkpt>
      <trkpt lat="46.99263" lon="6.01181">
        <ele>683.2</ele>
        <time>2012-05-10T09:03:10Z</time>
      </trkpt>
      <trkpt lat="46.99259" lon="6.01173">
        <ele>684.8</ele>
        <time>2012-05-10T09:03:16Z</time>
      </trkpt>
      <trkpt lat="46.99259" lon="6.01173">
        <ele>616.8</ele>
        <time>2012-05-10T09:03:27Z</time>
      </trkpt>
      <trkpt lat="46.99259" lon="6.01173">
        <ele>616.8</ele>
        <time>2012-05-10T09:03:30Z</time>
      </trkpt>
      <trkpt lat="46.99259" lon="6.01173">
        <ele>616.8</ele>
        <time>2012-05-10T09:03:41Z</time>
      </trkpt>
      <trkpt lat="46.99259" lon="6.01173">
        <ele>616.8</ele>
        <time>2012-05-10T09:03:44Z</time>
      </trkpt>
      <trkpt lat="46.99249" lon="6.01146">
        <ele>682</ele>
        <time>2012-05-10T09:03:47Z</time>
      </trkpt>
      <trkpt lat="46.99244" lon="6.0114">
        <ele>682</ele>
        <time>2012-05-10T09:03:50Z</time>
      </trkpt>
      <trkpt lat="46.9924" lon="6.01131">
        <ele>681.6</ele>
        <time>2012-05-10T09:03:55Z</time>
      </trkpt>
      <trkpt lat="46.99234" lon="6.01125">
        <ele>680.8</ele>
        <time>2012-05-10T09:04:08Z</time>
      </trkpt>
      <trkpt lat="46.99232" lon="6.01115">
        <ele>679.5</ele>
        <time>2012-05-10T09:04:13Z</time>
      </trkpt>
      <trkpt lat="46.99229" lon="6.01107">
        <ele>679.1</ele>
        <time>2012-05-10T09:04:18Z</time>
      </trkpt>
      <trkpt lat="46.99225" lon="6.01099">
        <ele>679.5</ele>
        <time>2012-05-10T09:04:23Z</time>
      </trkpt>
      <trkpt lat="46.99225" lon="6.01089">
        <ele>680</ele>
        <time>2012-05-10T09:04:28Z</time>
      </trkpt>
      <trkpt lat="46.99229" lon="6.0108">
        <ele>679</ele>
        <time>2012-05-10T09:04:32Z</time>
      </trkpt>
      <trkpt lat="46.99234" lon="6.01072">
        <ele>677</ele>
        <time>2012-05-10T09:04:41Z</time>
      </trkpt>
      <trkpt lat="46.99234" lon="6.01072">
        <ele>609.9</ele>
        <time>2012-05-10T09:04:53Z</time>
      </trkpt>
      <trkpt lat="46.99234" lon="6.01072">
        <ele>609.9</ele>
        <time>2012-05-10T09:04:54Z</time>
      </trkpt>
      <trkpt lat="46.9924" lon="6.01054">
        <ele>676.8</ele>
        <time>2012-05-10T09:05:00Z</time>
      </trkpt>
      <trkpt lat="46.99244" lon="6.01048">
        <ele>674.8</ele>
        <time>2012-05-10T09:05:06Z</time>
      </trkpt>
      <trkpt lat="46.9925" lon="6.01054">
        <ele>672.3</ele>
        <time>2012-05-10T09:05:08Z</time>
      </trkpt>
      <trkpt lat="46.9925" lon="6.01054">
        <ele>598.7</ele>
        <time>2012-05-10T09:05:20Z</time>
      </trkpt>
      <trkpt lat="46.9925" lon="6.01054">
        <ele>598.7</ele>
        <time>2012-05-10T09:05:45Z</time>
      </trkpt>
      <trkpt lat="46.9925" lon="6.01054">
        <ele>598.7</ele>
        <time>2012-05-10T09:05:57Z</time>
      </trkpt>
      <trkpt lat="46.9925" lon="6.01054">
        <ele>598.7</ele>
        <time>2012-05-10T09:17:27Z</time>
      </trkpt>
      <trkpt lat="46.99239" lon="6.01069">
        <ele>666.6</ele>
        <time>2012-05-10T09:17:31Z</time>
      </trkpt>
      <trkpt lat="46.99239" lon="6.01079">
        <ele>667.7</ele>
        <time>2012-05-10T09:17:35Z</time>
      </trkpt>
      <trkpt lat="46.99238" lon="6.0109">
        <ele>669.2</ele>
        <time>2012-05-10T09:17:39Z</time>
      </trkpt>
      <trkpt lat="46.99239" lon="6.011">
        <ele>671.4</ele>
        <time>2012-05-10T09:17:46Z</time>
      </trkpt>
      <trkpt lat="46.99239" lon="6.011">
        <ele>613.4</ele>
        <time>2012-05-10T09:17:57Z</time>
      </trkpt>
      <trkpt lat="46.99239" lon="6.011">
        <ele>613.4</ele>
        <time>2012-05-10T09:18:20Z</time>
      </trkpt>
      <trkpt lat="46.99238" lon="6.01123">
        <ele>669.4</ele>
        <time>2012-05-10T09:18:23Z</time>
      </trkpt>
      <trkpt lat="46.99244" lon="6.01128">
        <ele>669.4</ele>
        <time>2012-05-10T09:18:26Z</time>
      </trkpt>
      <trkpt lat="46.9925" lon="6.01135">
        <ele>669</ele>
        <time>2012-05-10T09:18:31Z</time>
      </trkpt>
      <trkpt lat="46.99254" lon="6.01146">
        <ele>668</ele>
        <time>2012-05-10T09:18:37Z</time>
      </trkpt>
      <trkpt lat="46.99257" lon="6.01154">
        <ele>671.3</ele>
        <time>2012-05-10T09:18:45Z</time>
      </trkpt>
      <trkpt lat="46.99257" lon="6.01154">
        <ele>615.7</ele>
        <time>2012-05-10T09:18:56Z</time>
      </trkpt>
      <trkpt lat="46.99257" lon="6.01154">
        <ele>615.7</ele>
        <time>2012-05-10T09:19:32Z</time>
      </trkpt>
      <trkpt lat="46.99243" lon="6.01155">
        <ele>672.1</ele>
        <time>2012-05-10T09:19:37Z</time>
      </trkpt>
      <trkpt lat="46.99234" lon="6.01154">
        <ele>674.8</ele>
        <time>2012-05-10T09:19:42Z</time>
      </trkpt>
      <trkpt lat="46.99228" lon="6.01156">
        <ele>674.8</ele>
        <time>2012-05-10T09:19:47Z</time>
      </trkpt>
      <trkpt lat="46.9922" lon="6.01157">
        <ele>677.4</ele>
        <time>2012-05-10T09:19:54Z</time>
      </trkpt>
      <trkpt lat="46.99213" lon="6.01156">
        <ele>676.8</ele>
        <time>2012-05-10T09:19:59Z</time>
      </trkpt>
      <trkpt lat="46.99206" lon="6.01149">
        <ele>679.6</ele>
        <time>2012-05-10T09:20:04Z</time>
      </trkpt>
      <trkpt lat="46.99206" lon="6.01149">
        <ele>623.4</ele>
        <time>2012-05-10T09:20:16Z</time>
      </trkpt>
      <trkpt lat="46.99206" lon="6.01149">
        <ele>623.4</ele>
        <time>2012-05-10T09:20:43Z</time>
      </trkpt>
      <trkpt lat="46.9919" lon="6.01144">
        <ele>680.3</ele>
        <time>2012-05-10T09:20:46Z</time>
      </trkpt>
      <trkpt lat="46.99185" lon="6.01137">
        <ele>680.7</ele>
        <time>2012-05-10T09:20:49Z</time>
      </trkpt>
      <trkpt lat="46.9918" lon="6.01131">
        <ele>680.4</ele>
        <time>2012-05-10T09:20:54Z</time>
      </trkpt>
      <trkpt lat="46.99173" lon="6.0113">
        <ele>678.7</ele>
        <time>2012-05-10T09:21:05Z</time>
      </trkpt>
      <trkpt lat="46.99173" lon="6.0113">
        <ele>626.6</ele>
        <time>2012-05-10T09:21:17Z</time>
      </trkpt>
      <trkpt lat="46.99173" lon="6.0113">
        <ele>626.6</ele>
        <time>2012-05-10T09:21:20Z</time>
      </trkpt>
      <trkpt lat="46.99159" lon="6.01127">
        <ele>681.5</ele>
        <time>2012-05-10T09:21:23Z</time>
      </trkpt>
      <trkpt lat="46.99151" lon="6.01126">
        <ele>679.2</ele>
        <time>2012-05-10T09:21:29Z</time>
      </trkpt>
      <trkpt lat="46.99144" lon="6.01125">
        <ele>679.2</ele>
        <time>2012-05-10T09:21:37Z</time>
      </trkpt>
      <trkpt lat="46.99137" lon="6.01126">
        <ele>679.3</ele>
        <time>2012-05-10T09:21:41Z</time>
      </trkpt>
      <trkpt lat="46.9913" lon="6.01122">
        <ele>678.3</ele>
        <time>2012-05-10T09:21:51Z</time>
      </trkpt>
      <trkpt lat="46.99123" lon="6.01121">
        <ele>676.3</ele>
        <time>2012-05-10T09:22:00Z</time>
      </trkpt>
      <trkpt lat="46.99117" lon="6.01127">
        <ele>678.1</ele>
        <time>2012-05-10T09:22:07Z</time>
      </trkpt>
      <trkpt lat="46.99112" lon="6.01134">
        <ele>680.7</ele>
        <time>2012-05-10T09:22:18Z</time>
      </trkpt>
      <trkpt lat="46.9911" lon="6.01143">
        <ele>682.8</ele>
        <time>2012-05-10T09:22:29Z</time>
      </trkpt>
      <trkpt lat="46.99106" lon="6.01151">
        <ele>684.5</ele>
        <time>2012-05-10T09:22:34Z</time>
      </trkpt>
      <trkpt lat="46.99106" lon="6.01151">
        <ele>633</ele>
        <time>2012-05-10T09:22:46Z</time>
      </trkpt>
      <trkpt lat="46.99106" lon="6.01151">
        <ele>633</ele>
        <time>2012-05-10T09:23:29Z</time>
      </trkpt>
      <trkpt lat="46.99102" lon="6.01172">
        <ele>684.6</ele>
        <time>2012-05-10T09:23:34Z</time>
      </trkpt>
      <trkpt lat="46.99102" lon="6.01172">
        <ele>635.1</ele>
        <time>2012-05-10T09:23:46Z</time>
      </trkpt>
      <trkpt lat="46.99102" lon="6.01172">
        <ele>635.1</ele>
        <time>2012-05-10T09:24:02Z</time>
      </trkpt>
      <trkpt lat="46.99095" lon="6.01194">
        <ele>686.7</ele>
        <time>2012-05-10T09:24:06Z</time>
      </trkpt>
      <trkpt lat="46.99095" lon="6.01194">
        <ele>637.9</ele>
        <time>2012-05-10T09:24:18Z</time>
      </trkpt>
      <trkpt lat="46.99095" lon="6.01194">
        <ele>637.9</ele>
        <time>2012-05-10T09:24:31Z</time>
      </trkpt>
      <trkpt lat="46.99085" lon="6.01212">
        <ele>687.8</ele>
        <time>2012-05-10T09:24:32Z</time>
      </trkpt>
      <trkpt lat="46.99078" lon="6.01221">
        <ele>688.3</ele>
        <time>2012-05-10T09:24:36Z</time>
      </trkpt>
      <trkpt lat="46.99071" lon="6.01226">
        <ele>691.4</ele>
        <time>2012-05-10T09:24:40Z</time>
      </trkpt>
      <trkpt lat="46.99071" lon="6.01226">
        <ele>643.6</ele>
        <time>2012-05-10T09:24:52Z</time>
      </trkpt>
      <trkpt lat="46.99071" lon="6.01226">
        <ele>643.6</ele>
        <time>2012-05-10T09:25:28Z</time>
      </trkpt>
      <trkpt lat="46.99058" lon="6.01235">
        <ele>693.2</ele>
        <time>2012-05-10T09:25:33Z</time>
      </trkpt>
      <trkpt lat="46.99058" lon="6.01235">
        <ele>646.8</ele>
        <time>2012-05-10T09:25:45Z</time>
      </trkpt>
      <trkpt lat="46.99058" lon="6.01235">
        <ele>646.8</ele>
        <time>2012-05-10T09:25:46Z</time>
      </trkpt>
      <trkpt lat="46.99041" lon="6.01229">
        <ele>699.4</ele>
        <time>2012-05-10T09:25:50Z</time>
      </trkpt>
      <trkpt lat="46.99034" lon="6.01229">
        <ele>704.7</ele>
        <time>2012-05-10T09:25:59Z</time>
      </trkpt>
      <trkpt lat="46.99027" lon="6.01229">
        <ele>705.4</ele>
        <time>2012-05-10T09:26:06Z</time>
      </trkpt>
      <trkpt lat="46.99027" lon="6.01229">
        <ele>654.1</ele>
        <time>2012-05-10T09:26:18Z</time>
      </trkpt>
      <trkpt lat="46.99027" lon="6.01229">
        <ele>654.1</ele>
        <time>2012-05-10T09:27:06Z</time>
      </trkpt>
      <trkpt lat="46.99012" lon="6.01228">
        <ele>706.2</ele>
        <time>2012-05-10T09:27:12Z</time>
      </trkpt>
      <trkpt lat="46.99011" lon="6.01218">
        <ele>712.7</ele>
        <time>2012-05-10T09:27:15Z</time>
      </trkpt>
      <trkpt lat="46.99011" lon="6.01218">
        <ele>657.4</ele>
        <time>2012-05-10T09:27:27Z</time>
      </trkpt>
      <trkpt lat="46.99011" lon="6.01218">
        <ele>657.4</ele>
        <time>2012-05-10T09:27:39Z</time>
      </trkpt>
      <trkpt lat="46.99018" lon="6.01235">
        <ele>708.4</ele>
        <time>2012-05-10T09:27:45Z</time>
      </trkpt>
      <trkpt lat="46.99014" lon="6.01244">
        <ele>708.5</ele>
        <time>2012-05-10T09:27:51Z</time>
      </trkpt>
      <trkpt lat="46.99019" lon="6.01251">
        <ele>709.4</ele>
        <time>2012-05-10T09:27:59Z</time>
      </trkpt>
      <trkpt lat="46.99021" lon="6.0126">
        <ele>710.1</ele>
        <time>2012-05-10T09:28:08Z</time>
      </trkpt>
      <trkpt lat="46.9902" lon="6.0127">
        <ele>712.3</ele>
        <time>2012-05-10T09:28:13Z</time>
      </trkpt>
      <trkpt lat="46.99013" lon="6.01272">
        <ele>710.2</ele>
        <time>2012-05-10T09:28:21Z</time>
      </trkpt>
      <trkpt lat="46.99013" lon="6.01272">
        <ele>661.7</ele>
        <time>2012-05-10T09:28:33Z</time>
      </trkpt>
      <trkpt lat="46.99013" lon="6.01272">
        <ele>661.7</ele>
        <time>2012-05-10T09:28:34Z</time>
      </trkpt>
      <trkpt lat="46.99013" lon="6.01272">
        <ele>661.7</ele>
        <time>2012-05-10T09:28:46Z</time>
      </trkpt>
      <trkpt lat="46.99013" lon="6.01272">
        <ele>661.7</ele>
        <time>2012-05-10T09:28:47Z</time>
      </trkpt>
      <trkpt lat="46.99013" lon="6.01272">
        <ele>661.7</ele>
        <time>2012-05-10T09:28:58Z</time>
      </trkpt>
      <trkpt lat="46.99013" lon="6.01272">
        <ele>661.7</ele>
        <time>2012-05-10T09:29:07Z</time>
      </trkpt>
      <trkpt lat="46.99013" lon="6.01272">
        <ele>661.7</ele>
        <time>2012-05-10T09:29:19Z</time>
      </trkpt>
      <trkpt lat="46.99013" lon="6.01272">
        <ele>661.7</ele>
        <time>2012-05-10T09:29:19Z</time>
      </trkpt>
      <trkpt lat="46.99002" lon="6.01315">
        <ele>712.4</ele>
        <time>2012-05-10T09:29:24Z</time>
      </trkpt>
      <trkpt lat="46.99002" lon="6.01315">
        <ele>665.5</ele>
        <time>2012-05-10T09:29:36Z</time>
      </trkpt>
      <trkpt lat="46.99002" lon="6.01315">
        <ele>665.5</ele>
        <time>2012-05-10T09:30:24Z</time>
      </trkpt>
      <trkpt lat="46.98998" lon="6.0133">
        <ele>713</ele>
        <time>2012-05-10T09:30:34Z</time>
      </trkpt>
      <trkpt lat="46.98998" lon="6.0133">
        <ele>666.8</ele>
        <time>2012-05-10T09:30:45Z</time>
      </trkpt>
      <trkpt lat="46.98998" lon="6.0133">
        <ele>666.8</ele>
        <time>2012-05-10T09:30:54Z</time>
      </trkpt>
      <trkpt lat="46.9899" lon="6.01347">
        <ele>715.4</ele>
        <time>2012-05-10T09:30:58Z</time>
      </trkpt>
      <trkpt lat="46.98985" lon="6.01356">
        <ele>716.2</ele>
        <time>2012-05-10T09:31:02Z</time>
      </trkpt>
      <trkpt lat="46.9898" lon="6.01362">
        <ele>716.6</ele>
        <time>2012-05-10T09:31:06Z</time>
      </trkpt>
      <trkpt lat="46.98976" lon="6.0137">
        <ele>718.2</ele>
        <time>2012-05-10T09:31:12Z</time>
      </trkpt>
      <trkpt lat="46.98971" lon="6.01377">
        <ele>720</ele>
        <time>2012-05-10T09:31:17Z</time>
      </trkpt>
      <trkpt lat="46.98965" lon="6.01386">
        <ele>719.7</ele>
        <time>2012-05-10T09:31:24Z</time>
      </trkpt>
      <trkpt lat="46.98962" lon="6.01394">
        <ele>718.7</ele>
        <time>2012-05-10T09:31:31Z</time>
      </trkpt>
      <trkpt lat="46.98957" lon="6.014">
        <ele>721</ele>
        <time>2012-05-10T09:31:37Z</time>
      </trkpt>
      <trkpt lat="46.98957" lon="6.014">
        <ele>669.8</ele>
        <time>2012-05-10T09:31:48Z</time>
      </trkpt>
      <trkpt lat="46.98957" lon="6.014">
        <ele>669.8</ele>
        <time>2012-05-10T09:31:56Z</time>
      </trkpt>
      <trkpt lat="46.98951" lon="6.01417">
        <ele>726.7</ele>
        <time>2012-05-10T09:32:01Z</time>
      </trkpt>
      <trkpt lat="46.98948" lon="6.01427">
        <ele>727.4</ele>
        <time>2012-05-10T09:32:08Z</time>
      </trkpt>
      <trkpt lat="46.98944" lon="6.01435">
        <ele>727.1</ele>
        <time>2012-05-10T09:32:14Z</time>
      </trkpt>
      <trkpt lat="46.98899" lon="6.01695">
        <ele>742.5</ele>
        <time>2012-05-10T09:36:27Z</time>
      </trkpt>
      <trkpt lat="46.98897" lon="6.01704">
        <ele>742.6</ele>
        <time>2012-05-10T09:36:33Z</time>
      </trkpt>
      <trkpt lat="46.98892" lon="6.01713">
        <ele>743.7</ele>
        <time>2012-05-10T09:36:41Z</time>
      </trkpt>
      <trkpt lat="46.98893" lon="6.01722">
        <ele>745</ele>
        <time>2012-05-10T09:36:49Z</time>
      </trkpt>
      <trkpt lat="46.98892" lon="6.01732">
        <ele>745.5</ele>
        <time>2012-05-10T09:36:57Z</time>
      </trkpt>
      <trkpt lat="46.98895" lon="6.0174">
        <ele>746.3</ele>
        <time>2012-05-10T09:37:04Z</time>
      </trkpt>
      <trkpt lat="46.989" lon="6.01747">
        <ele>748.1</ele>
        <time>2012-05-10T09:37:10Z</time>
      </trkpt>
      <trkpt lat="46.98901" lon="6.01757">
        <ele>749.2</ele>
        <time>2012-05-10T09:37:16Z</time>
      </trkpt>
      <trkpt lat="46.989" lon="6.01766">
        <ele>747.7</ele>
        <time>2012-05-10T09:37:21Z</time>
      </trkpt>
      <trkpt lat="46.989" lon="6.01766">
        <ele>692.2</ele>
        <time>2012-05-10T09:37:33Z</time>
      </trkpt>
      <trkpt lat="46.989" lon="6.01766">
        <ele>692.2</ele>
        <time>2012-05-10T09:37:39Z</time>
      </trkpt>
      <trkpt lat="46.98902" lon="6.01786">
        <ele>746.1</ele>
        <time>2012-05-10T09:37:42Z</time>
      </trkpt>
      <trkpt lat="46.98902" lon="6.01796">
        <ele>745.4</ele>
        <time>2012-05-10T09:37:47Z</time>
      </trkpt>
      <trkpt lat="46.98902" lon="6.01796">
        <ele>692.4</ele>
        <time>2012-05-10T09:37:59Z</time>
      </trkpt>
      <trkpt lat="46.98902" lon="6.01796">
        <ele>692.4</ele>
        <time>2012-05-10T09:38:25Z</time>
      </trkpt>
      <trkpt lat="46.98915" lon="6.018">
        <ele>747.3</ele>
        <time>2012-05-10T09:38:36Z</time>
      </trkpt>
      <trkpt lat="46.98915" lon="6.018">
        <ele>690.8</ele>
        <time>2012-05-10T09:38:48Z</time>
      </trkpt>
      <trkpt lat="46.98915" lon="6.018">
        <ele>690.8</ele>
        <time>2012-05-10T09:40:55Z</time>
      </trkpt>
      <trkpt lat="46.98913" lon="6.01817">
        <ele>750.2</ele>
        <time>2012-05-10T09:41:00Z</time>
      </trkpt>
      <trkpt lat="46.98914" lon="6.01827">
        <ele>752.9</ele>
        <time>2012-05-10T09:41:04Z</time>
      </trkpt>
      <trkpt lat="46.98911" lon="6.01837">
        <ele>750.1</ele>
        <time>2012-05-10T09:41:12Z</time>
      </trkpt>
      <trkpt lat="46.98913" lon="6.01847">
        <ele>749.2</ele>
        <time>2012-05-10T09:41:17Z</time>
      </trkpt>
      <trkpt lat="46.98913" lon="6.01856">
        <ele>751.5</ele>
        <time>2012-05-10T09:41:23Z</time>
      </trkpt>
      <trkpt lat="46.98913" lon="6.01856">
        <ele>693.2</ele>
        <time>2012-05-10T09:41:34Z</time>
      </trkpt>
      <trkpt lat="46.98913" lon="6.01856">
        <ele>693.2</ele>
        <time>2012-05-10T09:41:44Z</time>
      </trkpt>
      <trkpt lat="46.98918" lon="6.01873">
        <ele>750.3</ele>
        <time>2012-05-10T09:41:50Z</time>
      </trkpt>
      <trkpt lat="46.98921" lon="6.01882">
        <ele>748.8</ele>
        <time>2012-05-10T09:41:54Z</time>
      </trkpt>
      <trkpt lat="46.98922" lon="6.01891">
        <ele>754.4</ele>
        <time>2012-05-10T09:42:02Z</time>
      </trkpt>
      <trkpt lat="46.98919" lon="6.01902">
        <ele>752.6</ele>
        <time>2012-05-10T09:42:13Z</time>
      </trkpt>
      <trkpt lat="46.98921" lon="6.01912">
        <ele>753.3</ele>
        <time>2012-05-10T09:42:18Z</time>
      </trkpt>
      <trkpt lat="46.9892" lon="6.01921">
        <ele>752.5</ele>
        <time>2012-05-10T09:42:23Z</time>
      </trkpt>
      <trkpt lat="46.98923" lon="6.0193">
        <ele>752</ele>
        <time>2012-05-10T09:42:28Z</time>
      </trkpt>
      <trkpt lat="46.98924" lon="6.0194">
        <ele>751.8</ele>
        <time>2012-05-10T09:42:34Z</time>
      </trkpt>
      <trkpt lat="46.9892" lon="6.01949">
        <ele>751.1</ele>
        <time>2012-05-10T09:42:41Z</time>
      </trkpt>
      <trkpt lat="46.98916" lon="6.01958">
        <ele>749.7</ele>
        <time>2012-05-10T09:42:48Z</time>
      </trkpt>
      <trkpt lat="46.98915" lon="6.01967">
        <ele>749.3</ele>
        <time>2012-05-10T09:42:54Z</time>
      </trkpt>
      <trkpt lat="46.98917" lon="6.01976">
        <ele>749.1</ele>
        <time>2012-05-10T09:43:02Z</time>
      </trkpt>
      <trkpt lat="46.98913" lon="6.01983">
        <ele>748.3</ele>
        <time>2012-05-10T09:43:10Z</time>
      </trkpt>
      <trkpt lat="46.98913" lon="6.01983">
        <ele>695.9</ele>
        <time>2012-05-10T09:43:21Z</time>
      </trkpt>
      <trkpt lat="46.98913" lon="6.01983">
        <ele>695.9</ele>
        <time>2012-05-10T09:43:28Z</time>
      </trkpt>
      <trkpt lat="46.98901" lon="6.01994">
        <ele>748.8</ele>
        <time>2012-05-10T09:43:30Z</time>
      </trkpt>
      <trkpt lat="46.98893" lon="6.01997">
        <ele>749.6</ele>
        <time>2012-05-10T09:43:34Z</time>
      </trkpt>
      <trkpt lat="46.98885" lon="6.02">
        <ele>750.5</ele>
        <time>2012-05-10T09:43:41Z</time>
      </trkpt>
      <trkpt lat="46.98878" lon="6.02002">
        <ele>751</ele>
        <time>2012-05-10T09:43:46Z</time>
      </trkpt>
      <trkpt lat="46.9887" lon="6.02001">
        <ele>752.5</ele>
        <time>2012-05-10T09:43:54Z</time>
      </trkpt>
      <trkpt lat="46.98863" lon="6.01999">
        <ele>753</ele>
        <time>2012-05-10T09:44:04Z</time>
      </trkpt>
      <trkpt lat="46.98856" lon="6.01997">
        <ele>752.9</ele>
        <time>2012-05-10T09:44:11Z</time>
      </trkpt>
      <trkpt lat="46.98849" lon="6.01995">
        <ele>752.2</ele>
        <time>2012-05-10T09:44:19Z</time>
      </trkpt>
      <trkpt lat="46.98843" lon="6.01991">
        <ele>753.9</ele>
        <time>2012-05-10T09:44:28Z</time>
      </trkpt>
      <trkpt lat="46.98835" lon="6.01993">
        <ele>755.7</ele>
        <time>2012-05-10T09:44:35Z</time>
      </trkpt>
      <trkpt lat="46.98829" lon="6.01998">
        <ele>756.6</ele>
        <time>2012-05-10T09:44:42Z</time>
      </trkpt>
      <trkpt lat="46.98829" lon="6.01998">
        <ele>703.5</ele>
        <time>2012-05-10T09:44:54Z</time>
      </trkpt>
      <trkpt lat="46.98829" lon="6.01998">
        <ele>703.5</ele>
        <time>2012-05-10T09:44:54Z</time>
      </trkpt>
      <trkpt lat="46.9882" lon="6.02012">
        <ele>758.8</ele>
        <time>2012-05-10T09:44:59Z</time>
      </trkpt>
      <trkpt lat="46.98816" lon="6.02019">
        <ele>757.1</ele>
        <time>2012-05-10T09:45:03Z</time>
      </trkpt>
      <trkpt lat="46.98813" lon="6.02028">
        <ele>758.7</ele>
        <time>2012-05-10T09:45:08Z</time>
      </trkpt>
      <trkpt lat="46.98812" lon="6.02038">
        <ele>759.8</ele>
        <time>2012-05-10T09:45:15Z</time>
      </trkpt>
      <trkpt lat="46.98808" lon="6.02048">
        <ele>762.2</ele>
        <time>2012-05-10T09:45:22Z</time>
      </trkpt>
      <trkpt lat="46.98806" lon="6.02059">
        <ele>760.7</ele>
        <time>2012-05-10T09:45:28Z</time>
      </trkpt>
      <trkpt lat="46.98801" lon="6.02067">
        <ele>760</ele>
        <time>2012-05-10T09:45:34Z</time>
      </trkpt>
      <trkpt lat="46.98801" lon="6.02067">
        <ele>704.3</ele>
        <time>2012-05-10T09:45:46Z</time>
      </trkpt>
      <trkpt lat="46.98801" lon="6.02067">
        <ele>704.3</ele>
        <time>2012-05-10T09:45:46Z</time>
      </trkpt>
      <trkpt lat="46.98795" lon="6.02084">
        <ele>756.1</ele>
        <time>2012-05-10T09:45:51Z</time>
      </trkpt>
      <trkpt lat="46.98793" lon="6.02093">
        <ele>756.4</ele>
        <time>2012-05-10T09:45:57Z</time>
      </trkpt>
      <trkpt lat="46.9879" lon="6.02103">
        <ele>757</ele>
        <time>2012-05-10T09:46:02Z</time>
      </trkpt>
      <trkpt lat="46.9879" lon="6.02113">
        <ele>756.7</ele>
        <time>2012-05-10T09:46:09Z</time>
      </trkpt>
      <trkpt lat="46.9879" lon="6.02123">
        <ele>756.8</ele>
        <time>2012-05-10T09:46:14Z</time>
      </trkpt>
      <trkpt lat="46.98794" lon="6.02132">
        <ele>757.5</ele>
        <time>2012-05-10T09:46:19Z</time>
      </trkpt>
      <trkpt lat="46.98796" lon="6.02141">
        <ele>757.9</ele>
        <time>2012-05-10T09:46:24Z</time>
      </trkpt>
      <trkpt lat="46.98795" lon="6.02151">
        <ele>757.9</ele>
        <time>2012-05-10T09:46:29Z</time>
      </trkpt>
      <trkpt lat="46.98791" lon="6.02159">
        <ele>757.6</ele>
        <time>2012-05-10T09:46:33Z</time>
      </trkpt>
      <trkpt lat="46.98788" lon="6.02168">
        <ele>757.1</ele>
        <time>2012-05-10T09:46:38Z</time>
      </trkpt>
      <trkpt lat="46.98788" lon="6.02177">
        <ele>757.9</ele>
        <time>2012-05-10T09:46:43Z</time>
      </trkpt>
      <trkpt lat="46.98786" lon="6.02186">
        <ele>757.6</ele>
        <time>2012-05-10T09:46:48Z</time>
      </trkpt>
      <trkpt lat="46.98786" lon="6.02197">
        <ele>758.8</ele>
        <time>2012-05-10T09:46:54Z</time>
      </trkpt>
      <trkpt lat="46.98787" lon="6.02207">
        <ele>760</ele>
        <time>2012-05-10T09:47:03Z</time>
      </trkpt>
      <trkpt lat="46.98787" lon="6.02217">
        <ele>760.1</ele>
        <time>2012-05-10T09:47:12Z</time>
      </trkpt>
      <trkpt lat="46.98787" lon="6.02228">
        <ele>760.5</ele>
        <time>2012-05-10T09:47:16Z</time>
      </trkpt>
      <trkpt lat="46.98786" lon="6.02238">
        <ele>761.2</ele>
        <time>2012-05-10T09:47:22Z</time>
      </trkpt>
      <trkpt lat="46.98785" lon="6.02247">
        <ele>760.1</ele>
        <time>2012-05-10T09:47:28Z</time>
      </trkpt>
      <trkpt lat="46.98785" lon="6.02257">
        <ele>762.8</ele>
        <time>2012-05-10T09:47:36Z</time>
      </trkpt>
      <trkpt lat="46.98785" lon="6.02267">
        <ele>763.8</ele>
        <time>2012-05-10T09:47:40Z</time>
      </trkpt>
      <trkpt lat="46.98782" lon="6.02276">
        <ele>761</ele>
        <time>2012-05-10T09:47:46Z</time>
      </trkpt>
      <trkpt lat="46.9878" lon="6.02285">
        <ele>761.7</ele>
        <time>2012-05-10T09:47:52Z</time>
      </trkpt>
      <trkpt lat="46.98774" lon="6.02291">
        <ele>763</ele>
        <time>2012-05-10T09:47:57Z</time>
      </trkpt>
      <trkpt lat="46.98767" lon="6.02292">
        <ele>764.5</ele>
        <time>2012-05-10T09:48:03Z</time>
      </trkpt>
      <trkpt lat="46.98767" lon="6.02292">
        <ele>708.9</ele>
        <time>2012-05-10T09:48:15Z</time>
      </trkpt>
      <trkpt lat="46.98767" lon="6.02292">
        <ele>708.9</ele>
        <time>2012-05-10T09:50:40Z</time>
      </trkpt>
      <trkpt lat="46.98754" lon="6.02298">
        <ele>766.4</ele>
        <time>2012-05-10T09:50:49Z</time>
      </trkpt>
      <trkpt lat="46.98746" lon="6.02304">
        <ele>766.3</ele>
        <time>2012-05-10T09:50:56Z</time>
      </trkpt>
      <trkpt lat="46.98746" lon="6.02304">
        <ele>709.3</ele>
        <time>2012-05-10T09:51:08Z</time>
      </trkpt>
      <trkpt lat="46.98746" lon="6.02304">
        <ele>709.3</ele>
        <time>2012-05-10T09:51:13Z</time>
      </trkpt>
      <trkpt lat="46.98734" lon="6.02302">
        <ele>762.4</ele>
        <time>2012-05-10T09:51:21Z</time>
      </trkpt>
      <trkpt lat="46.98728" lon="6.02307">
        <ele>761.6</ele>
        <time>2012-05-10T09:51:28Z</time>
      </trkpt>
      <trkpt lat="46.9872" lon="6.02309">
        <ele>763.6</ele>
        <time>2012-05-10T09:51:38Z</time>
      </trkpt>
      <trkpt lat="46.98714" lon="6.02312">
        <ele>764.1</ele>
        <time>2012-05-10T09:51:44Z</time>
      </trkpt>
      <trkpt lat="46.98707" lon="6.02317">
        <ele>764.3</ele>
        <time>2012-05-10T09:51:48Z</time>
      </trkpt>
      <trkpt lat="46.987" lon="6.0232">
        <ele>763.9</ele>
        <time>2012-05-10T09:51:53Z</time>
      </trkpt>
      <trkpt lat="46.987" lon="6.0232">
        <ele>712.6</ele>
        <time>2012-05-10T09:52:05Z</time>
      </trkpt>
      <trkpt lat="46.987" lon="6.0232">
        <ele>712.6</ele>
        <time>2012-05-10T09:52:16Z</time>
      </trkpt>
      <trkpt lat="46.98688" lon="6.02311">
        <ele>762.8</ele>
        <time>2012-05-10T09:52:23Z</time>
      </trkpt>
      <trkpt lat="46.9868" lon="6.02316">
        <ele>763.9</ele>
        <time>2012-05-10T09:52:28Z</time>
      </trkpt>
      <trkpt lat="46.98673" lon="6.02312">
        <ele>764.2</ele>
        <time>2012-05-10T09:52:35Z</time>
      </trkpt>
      <trkpt lat="46.98667" lon="6.02315">
        <ele>763.9</ele>
        <time>2012-05-10T09:52:38Z</time>
      </trkpt>
      <trkpt lat="46.9866" lon="6.02316">
        <ele>763.9</ele>
        <time>2012-05-10T09:52:41Z</time>
      </trkpt>
      <trkpt lat="46.9866" lon="6.02316">
        <ele>717.5</ele>
        <time>2012-05-10T09:52:53Z</time>
      </trkpt>
      <trkpt lat="46.9866" lon="6.02316">
        <ele>717.5</ele>
        <time>2012-05-10T09:53:32Z</time>
      </trkpt>
      <trkpt lat="46.9866" lon="6.02339">
        <ele>767.1</ele>
        <time>2012-05-10T09:53:34Z</time>
      </trkpt>
      <trkpt lat="46.98656" lon="6.02352">
        <ele>766.6</ele>
        <time>2012-05-10T09:53:37Z</time>
      </trkpt>
      <trkpt lat="46.98653" lon="6.0236">
        <ele>766.4</ele>
        <time>2012-05-10T09:53:40Z</time>
      </trkpt>
      <trkpt lat="46.98654" lon="6.02372">
        <ele>769.4</ele>
        <time>2012-05-10T09:53:46Z</time>
      </trkpt>
      <trkpt lat="46.98652" lon="6.02383">
        <ele>770.9</ele>
        <time>2012-05-10T09:53:51Z</time>
      </trkpt>
      <trkpt lat="46.98651" lon="6.02393">
        <ele>771.7</ele>
        <time>2012-05-10T09:53:55Z</time>
      </trkpt>
      <trkpt lat="46.98654" lon="6.02402">
        <ele>774.8</ele>
        <time>2012-05-10T09:54:01Z</time>
      </trkpt>
      <trkpt lat="46.98654" lon="6.02412">
        <ele>773.2</ele>
        <time>2012-05-10T09:54:05Z</time>
      </trkpt>
      <trkpt lat="46.98658" lon="6.0242">
        <ele>771.6</ele>
        <time>2012-05-10T09:54:10Z</time>
      </trkpt>
      <trkpt lat="46.98655" lon="6.02431">
        <ele>769.8</ele>
        <time>2012-05-10T09:54:15Z</time>
      </trkpt>
      <trkpt lat="46.98651" lon="6.02439">
        <ele>767.9</ele>
        <time>2012-05-10T09:54:19Z</time>
      </trkpt>
      <trkpt lat="46.98651" lon="6.0245">
        <ele>765.1</ele>
        <time>2012-05-10T09:54:25Z</time>
      </trkpt>
      <trkpt lat="46.98649" lon="6.02459">
        <ele>763.8</ele>
        <time>2012-05-10T09:54:30Z</time>
      </trkpt>
      <trkpt lat="46.98649" lon="6.02459">
        <ele>714.9</ele>
        <time>2012-05-10T09:54:42Z</time>
      </trkpt>
      <trkpt lat="46.98649" lon="6.02459">
        <ele>714.9</ele>
        <time>2012-05-10T09:54:44Z</time>
      </trkpt>
      <trkpt lat="46.9865" lon="6.0248">
        <ele>763.6</ele>
        <time>2012-05-10T09:54:51Z</time>
      </trkpt>
      <trkpt lat="46.9865" lon="6.02491">
        <ele>764.7</ele>
        <time>2012-05-10T09:54:55Z</time>
      </trkpt>
      <trkpt lat="46.98647" lon="6.025">
        <ele>765.7</ele>
        <time>2012-05-10T09:54:58Z</time>
      </trkpt>
      <trkpt lat="46.98646" lon="6.02509">
        <ele>765.1</ele>
        <time>2012-05-10T09:55:04Z</time>
      </trkpt>
      <trkpt lat="46.98642" lon="6.02518">
        <ele>765.4</ele>
        <time>2012-05-10T09:55:11Z</time>
      </trkpt>
      <trkpt lat="46.98642" lon="6.02529">
        <ele>765.5</ele>
        <time>2012-05-10T09:55:15Z</time>
      </trkpt>
      <trkpt lat="46.98638" lon="6.02537">
        <ele>765.2</ele>
        <time>2012-05-10T09:55:20Z</time>
      </trkpt>
      <trkpt lat="46.9864" lon="6.02546">
        <ele>765.3</ele>
        <time>2012-05-10T09:55:29Z</time>
      </trkpt>
      <trkpt lat="46.9864" lon="6.02546">
        <ele>712.6</ele>
        <time>2012-05-10T09:55:41Z</time>
      </trkpt>
      <trkpt lat="46.9864" lon="6.02546">
        <ele>712.6</ele>
        <time>2012-05-10T09:55:46Z</time>
      </trkpt>
      <trkpt lat="46.98637" lon="6.02568">
        <ele>766.3</ele>
        <time>2012-05-10T09:55:49Z</time>
      </trkpt>
      <trkpt lat="46.98641" lon="6.02577">
        <ele>766.2</ele>
        <time>2012-05-10T09:55:54Z</time>
      </trkpt>
      <trkpt lat="46.98641" lon="6.02587">
        <ele>767.2</ele>
        <time>2012-05-10T09:55:58Z</time>
      </trkpt>
      <trkpt lat="46.9864" lon="6.02597">
        <ele>767.5</ele>
        <time>2012-05-10T09:56:03Z</time>
      </trkpt>
      <trkpt lat="46.98641" lon="6.0261">
        <ele>767.1</ele>
        <time>2012-05-10T09:56:06Z</time>
      </trkpt>
      <trkpt lat="46.98641" lon="6.0261">
        <ele>708.4</ele>
        <time>2012-05-10T09:56:17Z</time>
      </trkpt>
      <trkpt lat="46.98641" lon="6.0261">
        <ele>708.4</ele>
        <time>2012-05-10T09:56:23Z</time>
      </trkpt>
      <trkpt lat="46.98637" lon="6.0263">
        <ele>766.4</ele>
        <time>2012-05-10T09:56:26Z</time>
      </trkpt>
      <trkpt lat="46.98637" lon="6.0263">
        <ele>708.1</ele>
        <time>2012-05-10T09:56:37Z</time>
      </trkpt>
      <trkpt lat="46.98637" lon="6.0263">
        <ele>708.1</ele>
        <time>2012-05-10T09:56:45Z</time>
      </trkpt>
      <trkpt lat="46.98633" lon="6.02654">
        <ele>762.9</ele>
        <time>2012-05-10T09:56:47Z</time>
      </trkpt>
      <trkpt lat="46.9863" lon="6.02667">
        <ele>763.4</ele>
        <time>2012-05-10T09:56:50Z</time>
      </trkpt>
      <trkpt lat="46.98626" lon="6.02675">
        <ele>763.8</ele>
        <time>2012-05-10T09:56:55Z</time>
      </trkpt>
      <trkpt lat="46.98626" lon="6.02675">
        <ele>708</ele>
        <time>2012-05-10T09:57:06Z</time>
      </trkpt>
      <trkpt lat="46.98626" lon="6.02675">
        <ele>708</ele>
        <time>2012-05-10T09:57:13Z</time>
      </trkpt>
      <trkpt lat="46.98615" lon="6.02697">
        <ele>764.8</ele>
        <time>2012-05-10T09:57:15Z</time>
      </trkpt>
      <trkpt lat="46.98612" lon="6.02709">
        <ele>765.5</ele>
        <time>2012-05-10T09:57:18Z</time>
      </trkpt>
      <trkpt lat="46.98613" lon="6.0272">
        <ele>765.7</ele>
        <time>2012-05-10T09:57:21Z</time>
      </trkpt>
      <trkpt lat="46.98607" lon="6.02725">
        <ele>766</ele>
        <time>2012-05-10T09:57:23Z</time>
      </trkpt>
      <trkpt lat="46.98605" lon="6.02734">
        <ele>765.4</ele>
        <time>2012-05-10T09:57:25Z</time>
      </trkpt>
      <trkpt lat="46.98599" lon="6.02743">
        <ele>766.4</ele>
        <time>2012-05-10T09:57:29Z</time>
      </trkpt>
      <trkpt lat="46.98599" lon="6.02743">
        <ele>708.2</ele>
        <time>2012-05-10T09:57:40Z</time>
      </trkpt>
      <trkpt lat="46.98599" lon="6.02743">
        <ele>708.2</ele>
        <time>2012-05-10T09:57:55Z</time>
      </trkpt>
      <trkpt lat="46.98587" lon="6.02763">
        <ele>765</ele>
        <time>2012-05-10T09:57:59Z</time>
      </trkpt>
      <trkpt lat="46.98582" lon="6.02772">
        <ele>765.7</ele>
        <time>2012-05-10T09:58:02Z</time>
      </trkpt>
      <trkpt lat="46.98577" lon="6.02779">
        <ele>766.2</ele>
        <time>2012-05-10T09:58:13Z</time>
      </trkpt>
      <trkpt lat="46.98577" lon="6.02779">
        <ele>711.6</ele>
        <time>2012-05-10T09:58:24Z</time>
      </trkpt>
      <trkpt lat="46.98577" lon="6.02779">
        <ele>711.6</ele>
        <time>2012-05-10T09:58:26Z</time>
      </trkpt>
      <trkpt lat="46.98562" lon="6.02793">
        <ele>767</ele>
        <time>2012-05-10T09:58:29Z</time>
      </trkpt>
      <trkpt lat="46.98557" lon="6.02799">
        <ele>767.6</ele>
        <time>2012-05-10T09:58:34Z</time>
      </trkpt>
      <trkpt lat="46.98549" lon="6.02801">
        <ele>766.4</ele>
        <time>2012-05-10T09:58:38Z</time>
      </trkpt>
      <trkpt lat="46.98543" lon="6.02806">
        <ele>767.8</ele>
        <time>2012-05-10T09:58:43Z</time>
      </trkpt>
      <trkpt lat="46.98539" lon="6.02817">
        <ele>768.7</ele>
        <time>2012-05-10T09:58:47Z</time>
      </trkpt>
      <trkpt lat="46.98533" lon="6.02824">
        <ele>768.3</ele>
        <time>2012-05-10T09:58:52Z</time>
      </trkpt>
      <trkpt lat="46.98525" lon="6.02836">
        <ele>765.3</ele>
        <time>2012-05-10T09:58:55Z</time>
      </trkpt>
      <trkpt lat="46.98522" lon="6.02845">
        <ele>765.5</ele>
        <time>2012-05-10T09:59:01Z</time>
      </trkpt>
      <trkpt lat="46.98519" lon="6.02852">
        <ele>766.5</ele>
        <time>2012-05-10T09:59:11Z</time>
      </trkpt>
      <trkpt lat="46.98516" lon="6.02863">
        <ele>767.2</ele>
        <time>2012-05-10T09:59:13Z</time>
      </trkpt>
      <trkpt lat="46.98515" lon="6.02872">
        <ele>765.8</ele>
        <time>2012-05-10T09:59:19Z</time>
      </trkpt>
      <trkpt lat="46.98509" lon="6.02878">
        <ele>764.6</ele>
        <time>2012-05-10T09:59:23Z</time>
      </trkpt>
      <trkpt lat="46.9851" lon="6.02887">
        <ele>765.2</ele>
        <time>2012-05-10T09:59:32Z</time>
      </trkpt>
      <trkpt lat="46.9851" lon="6.02887">
        <ele>707.1</ele>
        <time>2012-05-10T09:59:44Z</time>
      </trkpt>
      <trkpt lat="46.9851" lon="6.02887">
        <ele>707.1</ele>
        <time>2012-05-10T09:59:55Z</time>
      </trkpt>
      <trkpt lat="46.98505" lon="6.02907">
        <ele>763.4</ele>
        <time>2012-05-10T09:59:56Z</time>
      </trkpt>
      <trkpt lat="46.98505" lon="6.02917">
        <ele>763.5</ele>
        <time>2012-05-10T09:59:59Z</time>
      </trkpt>
      <trkpt lat="46.98504" lon="6.02927">
        <ele>761.5</ele>
        <time>2012-05-10T10:00:02Z</time>
      </trkpt>
      <trkpt lat="46.98503" lon="6.02937">
        <ele>760.6</ele>
        <time>2012-05-10T10:00:06Z</time>
      </trkpt>
      <trkpt lat="46.985" lon="6.02945">
        <ele>759.8</ele>
        <time>2012-05-10T10:00:11Z</time>
      </trkpt>
      <trkpt lat="46.985" lon="6.02955">
        <ele>758.9</ele>
        <time>2012-05-10T10:00:18Z</time>
      </trkpt>
      <trkpt lat="46.98502" lon="6.02965">
        <ele>757.1</ele>
        <time>2012-05-10T10:00:24Z</time>
      </trkpt>
      <trkpt lat="46.98501" lon="6.02974">
        <ele>757.4</ele>
        <time>2012-05-10T10:00:29Z</time>
      </trkpt>
      <trkpt lat="46.98503" lon="6.02984">
        <ele>757.3</ele>
        <time>2012-05-10T10:00:36Z</time>
      </trkpt>
      <trkpt lat="46.98501" lon="6.02994">
        <ele>757.8</ele>
        <time>2012-05-10T10:00:45Z</time>
      </trkpt>
      <trkpt lat="46.98497" lon="6.03003">
        <ele>759.3</ele>
        <time>2012-05-10T10:00:51Z</time>
      </trkpt>
      <trkpt lat="46.98491" lon="6.03011">
        <ele>760.1</ele>
        <time>2012-05-10T10:00:56Z</time>
      </trkpt>
      <trkpt lat="46.98491" lon="6.03011">
        <ele>712.1</ele>
        <time>2012-05-10T10:01:08Z</time>
      </trkpt>
      <trkpt lat="46.98491" lon="6.03011">
        <ele>712.1</ele>
        <time>2012-05-10T10:01:15Z</time>
      </trkpt>
      <trkpt lat="46.98478" lon="6.03028">
        <ele>760.7</ele>
        <time>2012-05-10T10:01:22Z</time>
      </trkpt>
      <trkpt lat="46.98471" lon="6.0303">
        <ele>762.2</ele>
        <time>2012-05-10T10:01:32Z</time>
      </trkpt>
      <trkpt lat="46.98471" lon="6.0303">
        <ele>715</ele>
        <time>2012-05-10T10:01:44Z</time>
      </trkpt>
      <trkpt lat="46.98471" lon="6.0303">
        <ele>715</ele>
        <time>2012-05-10T10:01:47Z</time>
      </trkpt>
      <trkpt lat="46.98458" lon="6.03039">
        <ele>763.8</ele>
        <time>2012-05-10T10:01:51Z</time>
      </trkpt>
      <trkpt lat="46.98451" lon="6.03043">
        <ele>763.8</ele>
        <time>2012-05-10T10:01:55Z</time>
      </trkpt>
      <trkpt lat="46.98444" lon="6.03043">
        <ele>764.6</ele>
        <time>2012-05-10T10:01:59Z</time>
      </trkpt>
      <trkpt lat="46.98438" lon="6.03043">
        <ele>765.5</ele>
        <time>2012-05-10T10:02:08Z</time>
      </trkpt>
      <trkpt lat="46.98431" lon="6.03044">
        <ele>765.1</ele>
        <time>2012-05-10T10:02:12Z</time>
      </trkpt>
      <trkpt lat="46.98426" lon="6.03049">
        <ele>767.3</ele>
        <time>2012-05-10T10:02:21Z</time>
      </trkpt>
      <trkpt lat="46.98419" lon="6.03051">
        <ele>766.2</ele>
        <time>2012-05-10T10:02:26Z</time>
      </trkpt>
      <trkpt lat="46.98413" lon="6.03054">
        <ele>767.2</ele>
        <time>2012-05-10T10:02:32Z</time>
      </trkpt>
      <trkpt lat="46.98406" lon="6.0306">
        <ele>767.6</ele>
        <time>2012-05-10T10:02:38Z</time>
      </trkpt>
      <trkpt lat="46.98401" lon="6.03066">
        <ele>767.6</ele>
        <time>2012-05-10T10:02:44Z</time>
      </trkpt>
      <trkpt lat="46.98395" lon="6.03074">
        <ele>766.5</ele>
        <time>2012-05-10T10:02:47Z</time>
      </trkpt>
      <trkpt lat="46.9839" lon="6.03077">
        <ele>767.9</ele>
        <time>2012-05-10T10:02:51Z</time>
      </trkpt>
      <trkpt lat="46.98383" lon="6.03084">
        <ele>769.7</ele>
        <time>2012-05-10T10:02:59Z</time>
      </trkpt>
      <trkpt lat="46.98375" lon="6.0309">
        <ele>769.5</ele>
        <time>2012-05-10T10:03:05Z</time>
      </trkpt>
      <trkpt lat="46.98375" lon="6.0309">
        <ele>721.4</ele>
        <time>2012-05-10T10:03:17Z</time>
      </trkpt>
      <trkpt lat="46.98375" lon="6.0309">
        <ele>721.4</ele>
        <time>2012-05-10T10:03:19Z</time>
      </trkpt>
      <trkpt lat="46.98362" lon="6.03099">
        <ele>775.4</ele>
        <time>2012-05-10T10:03:24Z</time>
      </trkpt>
      <trkpt lat="46.98358" lon="6.03107">
        <ele>776</ele>
        <time>2012-05-10T10:03:28Z</time>
      </trkpt>
      <trkpt lat="46.98358" lon="6.03107">
        <ele>722.1</ele>
        <time>2012-05-10T10:03:40Z</time>
      </trkpt>
      <trkpt lat="46.98358" lon="6.03107">
        <ele>722.1</ele>
        <time>2012-05-10T10:03:49Z</time>
      </trkpt>
      <trkpt lat="46.98353" lon="6.03129">
        <ele>772.9</ele>
        <time>2012-05-10T10:03:54Z</time>
      </trkpt>
      <trkpt lat="46.98319" lon="6.03237">
        <ele>775.4</ele>
        <time>2012-05-10T10:10:38Z</time>
      </trkpt>
      <trkpt lat="46.98319" lon="6.03237">
        <ele>732.1</ele>
        <time>2012-05-10T10:10:50Z</time>
      </trkpt>
      <trkpt lat="46.98319" lon="6.03237">
        <ele>732.1</ele>
        <time>2012-05-10T10:11:19Z</time>
      </trkpt>
      <trkpt lat="46.98303" lon="6.0324">
        <ele>781</ele>
        <time>2012-05-10T10:11:24Z</time>
      </trkpt>
      <trkpt lat="46.98296" lon="6.03238">
        <ele>780.7</ele>
        <time>2012-05-10T10:11:29Z</time>
      </trkpt>
      <trkpt lat="46.98289" lon="6.03239">
        <ele>783</ele>
        <time>2012-05-10T10:11:36Z</time>
      </trkpt>
      <trkpt lat="46.98284" lon="6.03248">
        <ele>781.9</ele>
        <time>2012-05-10T10:11:43Z</time>
      </trkpt>
      <trkpt lat="46.98284" lon="6.03248">
        <ele>736.4</ele>
        <time>2012-05-10T10:11:55Z</time>
      </trkpt>
      <trkpt lat="46.98284" lon="6.03248">
        <ele>736.4</ele>
        <time>2012-05-10T10:11:56Z</time>
      </trkpt>
      <trkpt lat="46.9827" lon="6.03253">
        <ele>782.9</ele>
        <time>2012-05-10T10:12:02Z</time>
      </trkpt>
      <trkpt lat="46.98263" lon="6.03254">
        <ele>784.4</ele>
        <time>2012-05-10T10:12:08Z</time>
      </trkpt>
      <trkpt lat="46.98256" lon="6.03251">
        <ele>783.5</ele>
        <time>2012-05-10T10:12:14Z</time>
      </trkpt>
      <trkpt lat="46.98256" lon="6.03251">
        <ele>737.8</ele>
        <time>2012-05-10T10:12:26Z</time>
      </trkpt>
      <trkpt lat="46.98256" lon="6.03251">
        <ele>737.8</ele>
        <time>2012-05-10T10:12:36Z</time>
      </trkpt>
      <trkpt lat="46.98245" lon="6.03255">
        <ele>784.4</ele>
        <time>2012-05-10T10:12:45Z</time>
      </trkpt>
      <trkpt lat="46.98245" lon="6.03255">
        <ele>738.5</ele>
        <time>2012-05-10T10:12:57Z</time>
      </trkpt>
      <trkpt lat="46.98245" lon="6.03255">
        <ele>738.5</ele>
        <time>2012-05-10T10:13:01Z</time>
      </trkpt>
      <trkpt lat="46.98245" lon="6.03255">
        <ele>738.5</ele>
        <time>2012-05-10T10:13:13Z</time>
      </trkpt>
      <trkpt lat="46.98245" lon="6.03255">
        <ele>738.5</ele>
        <time>2012-05-10T10:13:33Z</time>
      </trkpt>
      <trkpt lat="46.98234" lon="6.03241">
        <ele>780.9</ele>
        <time>2012-05-10T10:13:41Z</time>
      </trkpt>
      <trkpt lat="46.98229" lon="6.03238">
        <ele>782.3</ele>
        <time>2012-05-10T10:13:46Z</time>
      </trkpt>
      <trkpt lat="46.98222" lon="6.03238">
        <ele>783.9</ele>
        <time>2012-05-10T10:13:53Z</time>
      </trkpt>
      <trkpt lat="46.98215" lon="6.0324">
        <ele>784.4</ele>
        <time>2012-05-10T10:13:57Z</time>
      </trkpt>
      <trkpt lat="46.98208" lon="6.03242">
        <ele>786.7</ele>
        <time>2012-05-10T10:14:07Z</time>
      </trkpt>
      <trkpt lat="46.98201" lon="6.03243">
        <ele>788.2</ele>
        <time>2012-05-10T10:14:12Z</time>
      </trkpt>
      <trkpt lat="46.98197" lon="6.03237">
        <ele>788.6</ele>
        <time>2012-05-10T10:14:17Z</time>
      </trkpt>
      <trkpt lat="46.98188" lon="6.03237">
        <ele>788.7</ele>
        <time>2012-05-10T10:14:22Z</time>
      </trkpt>
      <trkpt lat="46.98181" lon="6.03239">
        <ele>788.6</ele>
        <time>2012-05-10T10:14:27Z</time>
      </trkpt>
      <trkpt lat="46.98173" lon="6.0324">
        <ele>788.9</ele>
        <time>2012-05-10T10:14:31Z</time>
      </trkpt>
      <trkpt lat="46.98166" lon="6.03237">
        <ele>789.3</ele>
        <time>2012-05-10T10:14:40Z</time>
      </trkpt>
      <trkpt lat="46.98166" lon="6.03237">
        <ele>744.5</ele>
        <time>2012-05-10T10:14:52Z</time>
      </trkpt>
      <trkpt lat="46.98166" lon="6.03237">
        <ele>744.5</ele>
        <time>2012-05-10T10:15:09Z</time>
      </trkpt>
      <trkpt lat="46.98155" lon="6.03235">
        <ele>789.5</ele>
        <time>2012-05-10T10:15:13Z</time>
      </trkpt>
      <trkpt lat="46.98147" lon="6.03233">
        <ele>792.2</ele>
        <time>2012-05-10T10:15:18Z</time>
      </trkpt>
      <trkpt lat="46.98141" lon="6.03229">
        <ele>791.4</ele>
        <time>2012-05-10T10:15:23Z</time>
      </trkpt>
      <trkpt lat="46.98135" lon="6.03224">
        <ele>792.4</ele>
        <time>2012-05-10T10:15:29Z</time>
      </trkpt>
      <trkpt lat="46.98135" lon="6.03224">
        <ele>749.1</ele>
        <time>2012-05-10T10:15:41Z</time>
      </trkpt>
      <trkpt lat="46.98135" lon="6.03224">
        <ele>749.1</ele>
        <time>2012-05-10T10:15:46Z</time>
      </trkpt>
      <trkpt lat="46.98122" lon="6.03229">
        <ele>791.4</ele>
        <time>2012-05-10T10:15:52Z</time>
      </trkpt>
      <trkpt lat="46.98116" lon="6.03235">
        <ele>793.6</ele>
        <time>2012-05-10T10:15:57Z</time>
      </trkpt>
      <trkpt lat="46.98109" lon="6.03234">
        <ele>794</ele>
        <time>2012-05-10T10:16:04Z</time>
      </trkpt>
      <trkpt lat="46.98103" lon="6.03237">
        <ele>794.9</ele>
        <time>2012-05-10T10:16:09Z</time>
      </trkpt>
      <trkpt lat="46.98096" lon="6.0324">
        <ele>795</ele>
        <time>2012-05-10T10:16:17Z</time>
      </trkpt>
      <trkpt lat="46.98096" lon="6.0324">
        <ele>752.6</ele>
        <time>2012-05-10T10:16:29Z</time>
      </trkpt>
      <trkpt lat="46.98096" lon="6.0324">
        <ele>752.6</ele>
        <time>2012-05-10T10:16:30Z</time>
      </trkpt>
      <trkpt lat="46.98096" lon="6.0324">
        <ele>752.6</ele>
        <time>2012-05-10T10:16:42Z</time>
      </trkpt>
      <trkpt lat="46.98096" lon="6.0324">
        <ele>752.6</ele>
        <time>2012-05-10T10:16:48Z</time>
      </trkpt>
      <trkpt lat="46.98081" lon="6.03254">
        <ele>791.2</ele>
        <time>2012-05-10T10:16:56Z</time>
      </trkpt>
      <trkpt lat="46.98074" lon="6.03254">
        <ele>793.9</ele>
        <time>2012-05-10T10:17:04Z</time>
      </trkpt>
      <trkpt lat="46.98068" lon="6.03253">
        <ele>792.5</ele>
        <time>2012-05-10T10:17:12Z</time>
      </trkpt>
      <trkpt lat="46.98068" lon="6.03253">
        <ele>754.3</ele>
        <time>2012-05-10T10:17:24Z</time>
      </trkpt>
      <trkpt lat="46.98068" lon="6.03253">
        <ele>754.3</ele>
        <time>2012-05-10T10:17:26Z</time>
      </trkpt>
      <trkpt lat="46.98052" lon="6.03258">
        <ele>796.4</ele>
        <time>2012-05-10T10:17:32Z</time>
      </trkpt>
      <trkpt lat="46.98046" lon="6.03261">
        <ele>797</ele>
        <time>2012-05-10T10:17:39Z</time>
      </trkpt>
      <trkpt lat="46.98038" lon="6.03261">
        <ele>800.5</ele>
        <time>2012-05-10T10:17:45Z</time>
      </trkpt>
      <trkpt lat="46.98031" lon="6.03261">
        <ele>801.2</ele>
        <time>2012-05-10T10:17:50Z</time>
      </trkpt>
      <trkpt lat="46.98024" lon="6.03256">
        <ele>803.8</ele>
        <time>2012-05-10T10:17:54Z</time>
      </trkpt>
      <trkpt lat="46.98018" lon="6.03255">
        <ele>804.6</ele>
        <time>2012-05-10T10:18:02Z</time>
      </trkpt>
      <trkpt lat="46.98011" lon="6.03252">
        <ele>805</ele>
        <time>2012-05-10T10:18:08Z</time>
      </trkpt>
      <trkpt lat="46.98006" lon="6.03245">
        <ele>804.4</ele>
        <time>2012-05-10T10:18:12Z</time>
      </trkpt>
      <trkpt lat="46.98" lon="6.0324">
        <ele>805.2</ele>
        <time>2012-05-10T10:18:13Z</time>
      </trkpt>
      <trkpt lat="46.97996" lon="6.03233">
        <ele>805.8</ele>
        <time>2012-05-10T10:18:18Z</time>
      </trkpt>
      <trkpt lat="46.97989" lon="6.03227">
        <ele>806.8</ele>
        <time>2012-05-10T10:18:23Z</time>
      </trkpt>
      <trkpt lat="46.97984" lon="6.0322">
        <ele>807.5</ele>
        <time>2012-05-10T10:18:27Z</time>
      </trkpt>
      <trkpt lat="46.97979" lon="6.03214">
        <ele>806.9</ele>
        <time>2012-05-10T10:18:33Z</time>
      </trkpt>
      <trkpt lat="46.97973" lon="6.0321">
        <ele>806.7</ele>
        <time>2012-05-10T10:18:38Z</time>
      </trkpt>
      <trkpt lat="46.97967" lon="6.03206">
        <ele>806.4</ele>
        <time>2012-05-10T10:18:43Z</time>
      </trkpt>
      <trkpt lat="46.97961" lon="6.032">
        <ele>805.5</ele>
        <time>2012-05-10T10:18:51Z</time>
      </trkpt>
      <trkpt lat="46.97956" lon="6.03195">
        <ele>806.8</ele>
        <time>2012-05-10T10:18:56Z</time>
      </trkpt>
      <trkpt lat="46.9795" lon="6.03189">
        <ele>805.7</ele>
        <time>2012-05-10T10:19:02Z</time>
      </trkpt>
      <trkpt lat="46.97944" lon="6.03182">
        <ele>804.6</ele>
        <time>2012-05-10T10:19:08Z</time>
      </trkpt>
      <trkpt lat="46.9794" lon="6.03174">
        <ele>802.5</ele>
        <time>2012-05-10T10:19:13Z</time>
      </trkpt>
      <trkpt lat="46.97939" lon="6.03165">
        <ele>801.2</ele>
        <time>2012-05-10T10:19:18Z</time>
      </trkpt>
      <trkpt lat="46.97933" lon="6.03161">
        <ele>800.5</ele>
        <time>2012-05-10T10:19:22Z</time>
      </trkpt>
      <trkpt lat="46.97882" lon="6.03045">
        <ele>806.3</ele>
        <time>2012-05-10T10:20:53Z</time>
      </trkpt>
      <trkpt lat="46.97879" lon="6.03036">
        <ele>806.9</ele>
        <time>2012-05-10T10:20:57Z</time>
      </trkpt>
      <trkpt lat="46.97882" lon="6.03028">
        <ele>805.6</ele>
        <time>2012-05-10T10:21:01Z</time>
      </trkpt>
      <trkpt lat="46.97882" lon="6.03028">
        <ele>760.6</ele>
        <time>2012-05-10T10:21:12Z</time>
      </trkpt>
      <trkpt lat="46.97882" lon="6.03028">
        <ele>760.6</ele>
        <time>2012-05-10T10:21:16Z</time>
      </trkpt>
      <trkpt lat="46.97871" lon="6.03011">
        <ele>802.3</ele>
        <time>2012-05-10T10:21:22Z</time>
      </trkpt>
      <trkpt lat="46.97873" lon="6.03001">
        <ele>802.5</ele>
        <time>2012-05-10T10:21:28Z</time>
      </trkpt>
      <trkpt lat="46.9787" lon="6.02993">
        <ele>803.6</ele>
        <time>2012-05-10T10:21:35Z</time>
      </trkpt>
      <trkpt lat="46.97869" lon="6.02981">
        <ele>802.1</ele>
        <time>2012-05-10T10:21:39Z</time>
      </trkpt>
      <trkpt lat="46.97872" lon="6.02973">
        <ele>802.2</ele>
        <time>2012-05-10T10:21:45Z</time>
      </trkpt>
      <trkpt lat="46.97876" lon="6.02965">
        <ele>802.7</ele>
        <time>2012-05-10T10:21:51Z</time>
      </trkpt>
      <trkpt lat="46.97876" lon="6.02955">
        <ele>804.2</ele>
        <time>2012-05-10T10:21:58Z</time>
      </trkpt>
      <trkpt lat="46.97883" lon="6.02951">
        <ele>804.2</ele>
        <time>2012-05-10T10:22:04Z</time>
      </trkpt>
      <trkpt lat="46.9789" lon="6.02949">
        <ele>804.5</ele>
        <time>2012-05-10T10:22:11Z</time>
      </trkpt>
      <trkpt lat="46.97897" lon="6.02949">
        <ele>804.6</ele>
        <time>2012-05-10T10:22:19Z</time>
      </trkpt>
      <trkpt lat="46.97904" lon="6.02954">
        <ele>806.7</ele>
        <time>2012-05-10T10:22:25Z</time>
      </trkpt>
      <trkpt lat="46.97904" lon="6.02954">
        <ele>773.3</ele>
        <time>2012-05-10T10:22:36Z</time>
      </trkpt>
      <trkpt lat="46.97904" lon="6.02954">
        <ele>773.3</ele>
        <time>2012-05-10T10:22:59Z</time>
      </trkpt>
      <trkpt lat="46.97915" lon="6.02964">
        <ele>810</ele>
        <time>2012-05-10T10:23:03Z</time>
      </trkpt>
      <trkpt lat="46.97917" lon="6.02974">
        <ele>809.9</ele>
        <time>2012-05-10T10:23:09Z</time>
      </trkpt>
      <trkpt lat="46.97917" lon="6.02974">
        <ele>777</ele>
        <time>2012-05-10T10:23:20Z</time>
      </trkpt>
      <trkpt lat="46.97917" lon="6.02974">
        <ele>777</ele>
        <time>2012-05-10T10:23:25Z</time>
      </trkpt>
      <trkpt lat="46.97917" lon="6.02974">
        <ele>777</ele>
        <time>2012-05-10T10:23:36Z</time>
      </trkpt>
      <trkpt lat="46.97917" lon="6.02974">
        <ele>777</ele>
        <time>2012-05-10T10:24:42Z</time>
      </trkpt>
      <trkpt lat="46.97921" lon="6.02996">
        <ele>810</ele>
        <time>2012-05-10T10:24:45Z</time>
      </trkpt>
      <trkpt lat="46.97927" lon="6.03003">
        <ele>811.6</ele>
        <time>2012-05-10T10:24:50Z</time>
      </trkpt>
      <trkpt lat="46.97931" lon="6.03011">
        <ele>813</ele>
        <time>2012-05-10T10:24:55Z</time>
      </trkpt>
      <trkpt lat="46.97931" lon="6.03011">
        <ele>783.2</ele>
        <time>2012-05-10T10:25:06Z</time>
      </trkpt>
      <trkpt lat="46.97931" lon="6.03011">
        <ele>783.2</ele>
        <time>2012-05-10T10:25:56Z</time>
      </trkpt>
      <trkpt lat="46.97937" lon="6.03034">
        <ele>816</ele>
        <time>2012-05-10T10:25:58Z</time>
      </trkpt>
      <trkpt lat="46.97943" lon="6.03044">
        <ele>818.9</ele>
        <time>2012-05-10T10:26:01Z</time>
      </trkpt>
      <trkpt lat="46.9795" lon="6.03049">
        <ele>820.4</ele>
        <time>2012-05-10T10:26:04Z</time>
      </trkpt>
      <trkpt lat="46.97952" lon="6.03061">
        <ele>822.2</ele>
        <time>2012-05-10T10:26:09Z</time>
      </trkpt>
      <trkpt lat="46.97957" lon="6.03066">
        <ele>821.4</ele>
        <time>2012-05-10T10:26:14Z</time>
      </trkpt>
      <trkpt lat="46.97962" lon="6.03074">
        <ele>821.6</ele>
        <time>2012-05-10T10:26:19Z</time>
      </trkpt>
      <trkpt lat="46.97967" lon="6.03079">
        <ele>822.6</ele>
        <time>2012-05-10T10:26:25Z</time>
      </trkpt>
      <trkpt lat="46.97973" lon="6.03086">
        <ele>824.4</ele>
        <time>2012-05-10T10:26:33Z</time>
      </trkpt>
      <trkpt lat="46.97973" lon="6.03086">
        <ele>788.1</ele>
        <time>2012-05-10T10:26:44Z</time>
      </trkpt>
      <trkpt lat="46.97973" lon="6.03086">
        <ele>788.1</ele>
        <time>2012-05-10T10:26:45Z</time>
      </trkpt>
      <trkpt lat="46.97984" lon="6.03101">
        <ele>832.6</ele>
        <time>2012-05-10T10:26:52Z</time>
      </trkpt>
      <trkpt lat="46.97989" lon="6.03108">
        <ele>833</ele>
        <time>2012-05-10T10:27:08Z</time>
      </trkpt>
      <trkpt lat="46.97994" lon="6.03115">
        <ele>834.6</ele>
        <time>2012-05-10T10:27:18Z</time>
      </trkpt>
      <trkpt lat="46.98001" lon="6.03116">
        <ele>833</ele>
        <time>2012-05-10T10:27:27Z</time>
      </trkpt>
      <trkpt lat="46.98008" lon="6.03116">
        <ele>833.5</ele>
        <time>2012-05-10T10:27:33Z</time>
      </trkpt>
      <trkpt lat="46.98008" lon="6.03116">
        <ele>794.4</ele>
        <time>2012-05-10T10:27:44Z</time>
      </trkpt>
      <trkpt lat="46.98008" lon="6.03116">
        <ele>794.4</ele>
        <time>2012-05-10T10:27:48Z</time>
      </trkpt>
      <trkpt lat="46.98021" lon="6.03122">
        <ele>838.4</ele>
        <time>2012-05-10T10:27:55Z</time>
      </trkpt>
      <trkpt lat="46.98021" lon="6.03122">
        <ele>795.9</ele>
        <time>2012-05-10T10:28:06Z</time>
      </trkpt>
      <trkpt lat="46.98021" lon="6.03122">
        <ele>795.9</ele>
        <time>2012-05-10T10:28:23Z</time>
      </trkpt>
      <trkpt lat="46.98037" lon="6.03131">
        <ele>842.8</ele>
        <time>2012-05-10T10:28:28Z</time>
      </trkpt>
      <trkpt lat="46.98044" lon="6.03131">
        <ele>841.4</ele>
        <time>2012-05-10T10:28:32Z</time>
      </trkpt>
      <trkpt lat="46.9805" lon="6.03127">
        <ele>844</ele>
        <time>2012-05-10T10:28:38Z</time>
      </trkpt>
      <trkpt lat="46.9805" lon="6.03127">
        <ele>799.4</ele>
        <time>2012-05-10T10:28:49Z</time>
      </trkpt>
      <trkpt lat="46.9805" lon="6.03127">
        <ele>799.4</ele>
        <time>2012-05-10T10:30:00Z</time>
      </trkpt>
      <trkpt lat="46.98046" lon="6.0311">
        <ele>848.9</ele>
        <time>2012-05-10T10:30:06Z</time>
      </trkpt>
      <trkpt lat="46.98051" lon="6.03104">
        <ele>851</ele>
        <time>2012-05-10T10:30:14Z</time>
      </trkpt>
      <trkpt lat="46.98057" lon="6.03103">
        <ele>851.2</ele>
        <time>2012-05-10T10:30:23Z</time>
      </trkpt>
      <trkpt lat="46.98065" lon="6.03103">
        <ele>853.2</ele>
        <time>2012-05-10T10:30:31Z</time>
      </trkpt>
      <trkpt lat="46.98073" lon="6.03097">
        <ele>850.2</ele>
        <time>2012-05-10T10:30:39Z</time>
      </trkpt>
      <trkpt lat="46.98073" lon="6.03097">
        <ele>799.8</ele>
        <time>2012-05-10T10:30:50Z</time>
      </trkpt>
      <trkpt lat="46.98073" lon="6.03097">
        <ele>799.8</ele>
        <time>2012-05-10T10:35:24Z</time>
      </trkpt>
      <trkpt lat="46.98072" lon="6.03079">
        <ele>854.3</ele>
        <time>2012-05-10T10:35:32Z</time>
      </trkpt>
      <trkpt lat="46.98072" lon="6.03069">
        <ele>855.7</ele>
        <time>2012-05-10T10:35:38Z</time>
      </trkpt>
      <trkpt lat="46.9807" lon="6.03059">
        <ele>855.5</ele>
        <time>2012-05-10T10:35:43Z</time>
      </trkpt>
      <trkpt lat="46.98072" lon="6.03049">
        <ele>856</ele>
        <time>2012-05-10T10:35:51Z</time>
      </trkpt>
      <trkpt lat="46.98074" lon="6.0304">
        <ele>855.2</ele>
        <time>2012-05-10T10:35:58Z</time>
      </trkpt>
      <trkpt lat="46.98077" lon="6.03031">
        <ele>856.5</ele>
        <time>2012-05-10T10:36:07Z</time>
      </trkpt>
      <trkpt lat="46.98077" lon="6.03021">
        <ele>858.1</ele>
        <time>2012-05-10T10:36:14Z</time>
      </trkpt>
      <trkpt lat="46.98075" lon="6.03012">
        <ele>858.3</ele>
        <time>2012-05-10T10:36:21Z</time>
      </trkpt>
      <trkpt lat="46.98072" lon="6.03003">
        <ele>858.1</ele>
        <time>2012-05-10T10:36:27Z</time>
      </trkpt>
      <trkpt lat="46.98072" lon="6.03003">
        <ele>814.2</ele>
        <time>2012-05-10T10:36:39Z</time>
      </trkpt>
      <trkpt lat="46.98072" lon="6.03003">
        <ele>814.2</ele>
        <time>2012-05-10T10:36:41Z</time>
      </trkpt>
      <trkpt lat="46.98063" lon="6.0302">
        <ele>863.8</ele>
        <time>2012-05-10T10:36:50Z</time>
      </trkpt>
      <trkpt lat="46.98058" lon="6.03027">
        <ele>863.2</ele>
        <time>2012-05-10T10:36:54Z</time>
      </trkpt>
      <trkpt lat="46.98053" lon="6.03035">
        <ele>863.3</ele>
        <time>2012-05-10T10:37:05Z</time>
      </trkpt>
      <trkpt lat="46.98053" lon="6.03035">
        <ele>817.5</ele>
        <time>2012-05-10T10:37:17Z</time>
      </trkpt>
      <trkpt lat="46.98053" lon="6.03035">
        <ele>817.5</ele>
        <time>2012-05-10T10:37:20Z</time>
      </trkpt>
      <trkpt lat="46.98041" lon="6.03043">
        <ele>866.2</ele>
        <time>2012-05-10T10:37:26Z</time>
      </trkpt>
      <trkpt lat="46.98035" lon="6.0304">
        <ele>866.9</ele>
        <time>2012-05-10T10:37:32Z</time>
      </trkpt>
      <trkpt lat="46.98037" lon="6.03029">
        <ele>867.9</ele>
        <time>2012-05-10T10:37:38Z</time>
      </trkpt>
      <trkpt lat="46.98038" lon="6.0302">
        <ele>868.7</ele>
        <time>2012-05-10T10:37:43Z</time>
      </trkpt>
      <trkpt lat="46.98037" lon="6.0301">
        <ele>869.4</ele>
        <time>2012-05-10T10:37:48Z</time>
      </trkpt>
      <trkpt lat="46.98037" lon="6.0301">
        <ele>822.2</ele>
        <time>2012-05-10T10:38:00Z</time>
      </trkpt>
      <trkpt lat="46.98037" lon="6.0301">
        <ele>822.2</ele>
        <time>2012-05-10T10:38:01Z</time>
      </trkpt>
      <trkpt lat="46.98037" lon="6.0301">
        <ele>822.2</ele>
        <time>2012-05-10T10:38:13Z</time>
      </trkpt>
      <trkpt lat="46.98037" lon="6.0301">
        <ele>822.2</ele>
        <time>2012-05-10T10:38:23Z</time>
      </trkpt>
      <trkpt lat="46.98027" lon="6.02984">
        <ele>868.3</ele>
        <time>2012-05-10T10:38:29Z</time>
      </trkpt>
      <trkpt lat="46.98027" lon="6.02984">
        <ele>825.7</ele>
        <time>2012-05-10T10:38:41Z</time>
      </trkpt>
      <trkpt lat="46.98027" lon="6.02984">
        <ele>825.7</ele>
        <time>2012-05-10T10:38:53Z</time>
      </trkpt>
      <trkpt lat="46.98015" lon="6.02985">
        <ele>872.4</ele>
        <time>2012-05-10T10:39:05Z</time>
      </trkpt>
      <trkpt lat="46.98015" lon="6.02985">
        <ele>824.7</ele>
        <time>2012-05-10T10:39:16Z</time>
      </trkpt>
      <trkpt lat="46.98015" lon="6.02985">
        <ele>824.7</ele>
        <time>2012-05-10T10:39:28Z</time>
      </trkpt>
      <trkpt lat="46.98005" lon="6.02969">
        <ele>873.6</ele>
        <time>2012-05-10T10:39:35Z</time>
      </trkpt>
      <trkpt lat="46.98" lon="6.02961">
        <ele>874.8</ele>
        <time>2012-05-10T10:39:39Z</time>
      </trkpt>
      <trkpt lat="46.97995" lon="6.02951">
        <ele>873.1</ele>
        <time>2012-05-10T10:39:45Z</time>
      </trkpt>
      <trkpt lat="46.97995" lon="6.02951">
        <ele>825.5</ele>
        <time>2012-05-10T10:39:56Z</time>
      </trkpt>
      <trkpt lat="46.97995" lon="6.02951">
        <ele>825.5</ele>
        <time>2012-05-10T10:40:07Z</time>
      </trkpt>
      <trkpt lat="46.97995" lon="6.02951">
        <ele>825.5</ele>
        <time>2012-05-10T10:40:19Z</time>
      </trkpt>
      <trkpt lat="46.97995" lon="6.02951">
        <ele>825.5</ele>
        <time>2012-05-10T10:41:21Z</time>
      </trkpt>
      <trkpt lat="46.97995" lon="6.02951">
        <ele>825.5</ele>
        <time>2012-05-10T10:41:33Z</time>
      </trkpt>
      <trkpt lat="46.97995" lon="6.02951">
        <ele>825.5</ele>
        <time>2012-05-10T10:44:45Z</time>
      </trkpt>
      <trkpt lat="46.98002" lon="6.02957">
        <ele>876.4</ele>
        <time>2012-05-10T10:44:52Z</time>
      </trkpt>
      <trkpt lat="46.98006" lon="6.02965">
        <ele>874.8</ele>
        <time>2012-05-10T10:45:00Z</time>
      </trkpt>
      <trkpt lat="46.98006" lon="6.02965">
        <ele>826.3</ele>
        <time>2012-05-10T10:45:12Z</time>
      </trkpt>
      <trkpt lat="46.98006" lon="6.02965">
        <ele>826.3</ele>
        <time>2012-05-10T10:45:26Z</time>
      </trkpt>
      <trkpt lat="46.98006" lon="6.02965">
        <ele>826.3</ele>
        <time>2012-05-10T10:45:38Z</time>
      </trkpt>
      <trkpt lat="46.98006" lon="6.02965">
        <ele>826.3</ele>
        <time>2012-05-10T10:45:41Z</time>
      </trkpt>
      <trkpt lat="46.98006" lon="6.02965">
        <ele>826.3</ele>
        <time>2012-05-10T10:45:53Z</time>
      </trkpt>
      <trkpt lat="46.98006" lon="6.02965">
        <ele>826.3</ele>
        <time>2012-05-10T10:49:27Z</time>
      </trkpt>
      <trkpt lat="46.98006" lon="6.02965">
        <ele>826.3</ele>
        <time>2012-05-10T10:49:39Z</time>
      </trkpt>
      <trkpt lat="46.98006" lon="6.02965">
        <ele>826.3</ele>
        <time>2012-05-10T11:06:42Z</time>
      </trkpt>
      <trkpt lat="46.98006" lon="6.02965">
        <ele>826.3</ele>
        <time>2012-05-10T11:06:54Z</time>
      </trkpt>
      <trkpt lat="46.98006" lon="6.02965">
        <ele>826.3</ele>
        <time>2012-05-10T11:26:43Z</time>
      </trkpt>
      <trkpt lat="46.98006" lon="6.02965">
        <ele>826.3</ele>
        <time>2012-05-10T11:26:55Z</time>
      </trkpt>
      <trkpt lat="46.98006" lon="6.02965">
        <ele>826.3</ele>
        <time>2012-05-10T11:42:58Z</time>
      </trkpt>
      <trkpt lat="46.98006" lon="6.02965">
        <ele>826.3</ele>
        <time>2012-05-10T11:43:10Z</time>
      </trkpt>
      <trkpt lat="46.98006" lon="6.02965">
        <ele>826.3</ele>
        <time>2012-05-10T11:45:53Z</time>
      </trkpt>
      <trkpt lat="46.98006" lon="6.02965">
        <ele>826.3</ele>
        <time>2012-05-10T11:46:05Z</time>
      </trkpt>
      <trkpt lat="46.98006" lon="6.02965">
        <ele>826.3</ele>
        <time>2012-05-10T11:46:38Z</time>
      </trkpt>
      <trkpt lat="46.98006" lon="6.02965">
        <ele>826.3</ele>
        <time>2012-05-10T11:46:50Z</time>
      </trkpt>
      <trkpt lat="46.98006" lon="6.02965">
        <ele>826.3</ele>
        <time>2012-05-10T11:47:02Z</time>
      </trkpt>
      <trkpt lat="46.98" lon="6.02946">
        <ele>882.7</ele>
        <time>2012-05-10T11:47:11Z</time>
      </trkpt>
      <trkpt lat="46.98002" lon="6.02937">
        <ele>882.3</ele>
        <time>2012-05-10T11:47:20Z</time>
      </trkpt>
      <trkpt lat="46.98013" lon="6.02934">
        <ele>880.3</ele>
        <time>2012-05-10T11:47:30Z</time>
      </trkpt>
      <trkpt lat="46.98018" lon="6.02941">
        <ele>879.5</ele>
        <time>2012-05-10T11:47:41Z</time>
      </trkpt>
      <trkpt lat="46.98024" lon="6.02943">
        <ele>879.5</ele>
        <time>2012-05-10T11:47:47Z</time>
      </trkpt>
      <trkpt lat="46.98027" lon="6.02953">
        <ele>876.4</ele>
        <time>2012-05-10T11:47:55Z</time>
      </trkpt>
      <trkpt lat="46.98026" lon="6.02964">
        <ele>873.2</ele>
        <time>2012-05-10T11:48:00Z</time>
      </trkpt>
      <trkpt lat="46.98035" lon="6.02966">
        <ele>872.1</ele>
        <time>2012-05-10T11:48:10Z</time>
      </trkpt>
      <trkpt lat="46.98041" lon="6.02971">
        <ele>870.9</ele>
        <time>2012-05-10T11:48:20Z</time>
      </trkpt>
      <trkpt lat="46.98041" lon="6.02971">
        <ele>824.6</ele>
        <time>2012-05-10T11:48:31Z</time>
      </trkpt>
      <trkpt lat="46.98041" lon="6.02971">
        <ele>824.6</ele>
        <time>2012-05-10T11:48:32Z</time>
      </trkpt>
      <trkpt lat="46.98041" lon="6.02971">
        <ele>824.6</ele>
        <time>2012-05-10T11:48:43Z</time>
      </trkpt>
      <trkpt lat="46.98041" lon="6.02971">
        <ele>824.6</ele>
        <time>2012-05-10T11:49:19Z</time>
      </trkpt>
      <trkpt lat="46.98038" lon="6.03004">
        <ele>870.3</ele>
        <time>2012-05-10T11:49:21Z</time>
      </trkpt>
      <trkpt lat="46.98035" lon="6.03013">
        <ele>872.4</ele>
        <time>2012-05-10T11:49:23Z</time>
      </trkpt>
      <trkpt lat="46.98035" lon="6.03022">
        <ele>873.3</ele>
        <time>2012-05-10T11:49:28Z</time>
      </trkpt>
      <trkpt lat="46.98035" lon="6.03032">
        <ele>875.9</ele>
        <time>2012-05-10T11:49:33Z</time>
      </trkpt>
      <trkpt lat="46.98038" lon="6.03041">
        <ele>874.5</ele>
        <time>2012-05-10T11:49:41Z</time>
      </trkpt>
      <trkpt lat="46.98044" lon="6.0304">
        <ele>869.9</ele>
        <time>2012-05-10T11:49:51Z</time>
      </trkpt>
      <trkpt lat="46.98044" lon="6.0304">
        <ele>817.4</ele>
        <time>2012-05-10T11:50:03Z</time>
      </trkpt>
      <trkpt lat="46.98044" lon="6.0304">
        <ele>817.4</ele>
        <time>2012-05-10T11:50:07Z</time>
      </trkpt>
      <trkpt lat="46.98055" lon="6.03028">
        <ele>870.3</ele>
        <time>2012-05-10T11:50:13Z</time>
      </trkpt>
      <trkpt lat="46.98061" lon="6.03022">
        <ele>869.6</ele>
        <time>2012-05-10T11:50:21Z</time>
      </trkpt>
      <trkpt lat="46.98064" lon="6.03014">
        <ele>870.5</ele>
        <time>2012-05-10T11:50:28Z</time>
      </trkpt>
      <trkpt lat="46.98065" lon="6.03004">
        <ele>870.7</ele>
        <time>2012-05-10T11:50:35Z</time>
      </trkpt>
      <trkpt lat="46.98071" lon="6.03005">
        <ele>869.4</ele>
        <time>2012-05-10T11:50:42Z</time>
      </trkpt>
      <trkpt lat="46.98077" lon="6.03014">
        <ele>866.2</ele>
        <time>2012-05-10T11:50:47Z</time>
      </trkpt>
      <trkpt lat="46.98079" lon="6.03023">
        <ele>864.5</ele>
        <time>2012-05-10T11:50:53Z</time>
      </trkpt>
      <trkpt lat="46.98076" lon="6.03033">
        <ele>865.1</ele>
        <time>2012-05-10T11:50:58Z</time>
      </trkpt>
      <trkpt lat="46.98075" lon="6.03042">
        <ele>862.4</ele>
        <time>2012-05-10T11:51:05Z</time>
      </trkpt>
      <trkpt lat="46.98073" lon="6.03054">
        <ele>861.3</ele>
        <time>2012-05-10T11:51:11Z</time>
      </trkpt>
      <trkpt lat="46.98075" lon="6.03065">
        <ele>860.7</ele>
        <time>2012-05-10T11:51:20Z</time>
      </trkpt>
      <trkpt lat="46.98071" lon="6.03075">
        <ele>858.7</ele>
        <time>2012-05-10T11:51:26Z</time>
      </trkpt>
      <trkpt lat="46.98071" lon="6.03075">
        <ele>804.9</ele>
        <time>2012-05-10T11:51:38Z</time>
      </trkpt>
      <trkpt lat="46.98071" lon="6.03075">
        <ele>804.9</ele>
        <time>2012-05-10T11:52:21Z</time>
      </trkpt>
      <trkpt lat="46.98071" lon="6.03075">
        <ele>804.9</ele>
        <time>2012-05-10T11:52:33Z</time>
      </trkpt>
      <trkpt lat="46.98071" lon="6.03075">
        <ele>804.9</ele>
        <time>2012-05-10T11:52:39Z</time>
      </trkpt>
      <trkpt lat="46.98071" lon="6.03075">
        <ele>804.9</ele>
        <time>2012-05-10T11:52:51Z</time>
      </trkpt>
      <trkpt lat="46.98071" lon="6.03075">
        <ele>804.9</ele>
        <time>2012-05-10T11:52:55Z</time>
      </trkpt>
      <trkpt lat="46.98095" lon="6.03049">
        <ele>857</ele>
        <time>2012-05-10T11:52:58Z</time>
      </trkpt>
      <trkpt lat="46.98102" lon="6.03042">
        <ele>857.2</ele>
        <time>2012-05-10T11:53:01Z</time>
      </trkpt>
      <trkpt lat="46.98105" lon="6.03033">
        <ele>855.9</ele>
        <time>2012-05-10T11:53:07Z</time>
      </trkpt>
      <trkpt lat="46.98105" lon="6.03033">
        <ele>792.2</ele>
        <time>2012-05-10T11:53:19Z</time>
      </trkpt>
      <trkpt lat="46.98105" lon="6.03033">
        <ele>792.2</ele>
        <time>2012-05-10T11:53:33Z</time>
      </trkpt>
      <trkpt lat="46.98108" lon="6.03013">
        <ele>853.1</ele>
        <time>2012-05-10T11:53:35Z</time>
      </trkpt>
      <trkpt lat="46.98114" lon="6.03004">
        <ele>852.5</ele>
        <time>2012-05-10T11:53:38Z</time>
      </trkpt>
      <trkpt lat="46.98118" lon="6.02996">
        <ele>850.5</ele>
        <time>2012-05-10T11:53:42Z</time>
      </trkpt>
      <trkpt lat="46.98124" lon="6.02988">
        <ele>847.6</ele>
        <time>2012-05-10T11:53:48Z</time>
      </trkpt>
      <trkpt lat="46.98129" lon="6.02982">
        <ele>843.3</ele>
        <time>2012-05-10T11:54:00Z</time>
      </trkpt>
      <trkpt lat="46.9813" lon="6.02971">
        <ele>844.4</ele>
        <time>2012-05-10T11:54:07Z</time>
      </trkpt>
      <trkpt lat="46.9813" lon="6.02971">
        <ele>782.8</ele>
        <time>2012-05-10T11:54:19Z</time>
      </trkpt>
      <trkpt lat="46.9813" lon="6.02971">
        <ele>782.8</ele>
        <time>2012-05-10T11:54:35Z</time>
      </trkpt>
      <trkpt lat="46.98138" lon="6.02955">
        <ele>840.2</ele>
        <time>2012-05-10T11:54:40Z</time>
      </trkpt>
      <trkpt lat="46.98138" lon="6.02955">
        <ele>779.6</ele>
        <time>2012-05-10T11:54:51Z</time>
      </trkpt>
      <trkpt lat="46.98138" lon="6.02955">
        <ele>779.6</ele>
        <time>2012-05-10T11:54:59Z</time>
      </trkpt>
      <trkpt lat="46.98141" lon="6.02938">
        <ele>837.5</ele>
        <time>2012-05-10T11:55:09Z</time>
      </trkpt>
      <trkpt lat="46.98147" lon="6.02929">
        <ele>836.4</ele>
        <time>2012-05-10T11:55:14Z</time>
      </trkpt>
      <trkpt lat="46.9815" lon="6.02921">
        <ele>834.5</ele>
        <time>2012-05-10T11:55:20Z</time>
      </trkpt>
      <trkpt lat="46.9815" lon="6.0291">
        <ele>833.7</ele>
        <time>2012-05-10T11:55:24Z</time>
      </trkpt>
      <trkpt lat="46.9815" lon="6.0291">
        <ele>774.3</ele>
        <time>2012-05-10T11:55:35Z</time>
      </trkpt>
      <trkpt lat="46.9815" lon="6.0291">
        <ele>774.3</ele>
        <time>2012-05-10T11:55:51Z</time>
      </trkpt>
      <trkpt lat="46.98162" lon="6.02892">
        <ele>830.2</ele>
        <time>2012-05-10T11:55:54Z</time>
      </trkpt>
      <trkpt lat="46.98169" lon="6.02887">
        <ele>830</ele>
        <time>2012-05-10T11:55:58Z</time>
      </trkpt>
      <trkpt lat="46.98175" lon="6.02883">
        <ele>827.6</ele>
        <time>2012-05-10T11:56:02Z</time>
      </trkpt>
      <trkpt lat="46.98181" lon="6.02877">
        <ele>825.5</ele>
        <time>2012-05-10T11:56:06Z</time>
      </trkpt>
      <trkpt lat="46.98186" lon="6.02868">
        <ele>822</ele>
        <time>2012-05-10T11:56:14Z</time>
      </trkpt>
      <trkpt lat="46.98193" lon="6.0286">
        <ele>821.7</ele>
        <time>2012-05-10T11:56:21Z</time>
      </trkpt>
      <trkpt lat="46.98197" lon="6.02852">
        <ele>819.5</ele>
        <time>2012-05-10T11:56:27Z</time>
      </trkpt>
      <trkpt lat="46.98205" lon="6.0285">
        <ele>817.8</ele>
        <time>2012-05-10T11:56:37Z</time>
      </trkpt>
      <trkpt lat="46.98207" lon="6.02859">
        <ele>813.9</ele>
        <time>2012-05-10T11:56:42Z</time>
      </trkpt>
      <trkpt lat="46.98207" lon="6.02859">
        <ele>758.5</ele>
        <time>2012-05-10T11:56:54Z</time>
      </trkpt>
      <trkpt lat="46.98207" lon="6.02859">
        <ele>758.5</ele>
        <time>2012-05-10T11:56:55Z</time>
      </trkpt>
      <trkpt lat="46.98205" lon="6.02845">
        <ele>807.9</ele>
        <time>2012-05-10T11:57:00Z</time>
      </trkpt>
      <trkpt lat="46.98208" lon="6.02836">
        <ele>807.6</ele>
        <time>2012-05-10T11:57:06Z</time>
      </trkpt>
      <trkpt lat="46.98209" lon="6.02826">
        <ele>805.7</ele>
        <time>2012-05-10T11:57:11Z</time>
      </trkpt>
      <trkpt lat="46.98213" lon="6.02818">
        <ele>803.7</ele>
        <time>2012-05-10T11:57:17Z</time>
      </trkpt>
      <trkpt lat="46.9822" lon="6.0282">
        <ele>801.6</ele>
        <time>2012-05-10T11:57:24Z</time>
      </trkpt>
      <trkpt lat="46.98217" lon="6.02811">
        <ele>802.3</ele>
        <time>2012-05-10T11:57:32Z</time>
      </trkpt>
      <trkpt lat="46.98218" lon="6.028">
        <ele>802.7</ele>
        <time>2012-05-10T11:57:37Z</time>
      </trkpt>
      <trkpt lat="46.98221" lon="6.0279">
        <ele>804.6</ele>
        <time>2012-05-10T11:57:44Z</time>
      </trkpt>
      <trkpt lat="46.98225" lon="6.02783">
        <ele>805.1</ele>
        <time>2012-05-10T11:57:50Z</time>
      </trkpt>
      <trkpt lat="46.98227" lon="6.02774">
        <ele>803.8</ele>
        <time>2012-05-10T11:57:59Z</time>
      </trkpt>
      <trkpt lat="46.98228" lon="6.02761">
        <ele>804.7</ele>
        <time>2012-05-10T11:58:05Z</time>
      </trkpt>
      <trkpt lat="46.98227" lon="6.02751">
        <ele>802.1</ele>
        <time>2012-05-10T11:58:15Z</time>
      </trkpt>
      <trkpt lat="46.98227" lon="6.02742">
        <ele>801</ele>
        <time>2012-05-10T11:58:24Z</time>
      </trkpt>
      <trkpt lat="46.98227" lon="6.02732">
        <ele>800.1</ele>
        <time>2012-05-10T11:58:32Z</time>
      </trkpt>
      <trkpt lat="46.98224" lon="6.02723">
        <ele>800.2</ele>
        <time>2012-05-10T11:58:37Z</time>
      </trkpt>
      <trkpt lat="46.98224" lon="6.02712">
        <ele>799.5</ele>
        <time>2012-05-10T11:58:43Z</time>
      </trkpt>
      <trkpt lat="46.98223" lon="6.02702">
        <ele>799.7</ele>
        <time>2012-05-10T11:58:49Z</time>
      </trkpt>
      <trkpt lat="46.98222" lon="6.02692">
        <ele>800.2</ele>
        <time>2012-05-10T11:58:56Z</time>
      </trkpt>
      <trkpt lat="46.98222" lon="6.02682">
        <ele>800.2</ele>
        <time>2012-05-10T11:59:05Z</time>
      </trkpt>
      <trkpt lat="46.98221" lon="6.02672">
        <ele>799.2</ele>
        <time>2012-05-10T11:59:14Z</time>
      </trkpt>
      <trkpt lat="46.98216" lon="6.02666">
        <ele>798.2</ele>
        <time>2012-05-10T11:59:20Z</time>
      </trkpt>
      <trkpt lat="46.98212" lon="6.02657">
        <ele>798.3</ele>
        <time>2012-05-10T11:59:26Z</time>
      </trkpt>
      <trkpt lat="46.98209" lon="6.02648">
        <ele>797.5</ele>
        <time>2012-05-10T11:59:34Z</time>
      </trkpt>
      <trkpt lat="46.98209" lon="6.02638">
        <ele>799.2</ele>
        <time>2012-05-10T11:59:40Z</time>
      </trkpt>
      <trkpt lat="46.98206" lon="6.02629">
        <ele>797.6</ele>
        <time>2012-05-10T11:59:48Z</time>
      </trkpt>
      <trkpt lat="46.98203" lon="6.0262">
        <ele>799</ele>
        <time>2012-05-10T11:59:56Z</time>
      </trkpt>
      <trkpt lat="46.98204" lon="6.0261">
        <ele>800.6</ele>
        <time>2012-05-10T12:00:03Z</time>
      </trkpt>
      <trkpt lat="46.98202" lon="6.026">
        <ele>800.8</ele>
        <time>2012-05-10T12:00:08Z</time>
      </trkpt>
      <trkpt lat="46.98203" lon="6.02589">
        <ele>799.3</ele>
        <time>2012-05-10T12:00:18Z</time>
      </trkpt>
      <trkpt lat="46.98203" lon="6.02579">
        <ele>798.8</ele>
        <time>2012-05-10T12:00:26Z</time>
      </trkpt>
      <trkpt lat="46.982" lon="6.0257">
        <ele>797.1</ele>
        <time>2012-05-10T12:00:37Z</time>
      </trkpt>
      <trkpt lat="46.98199" lon="6.0256">
        <ele>796.6</ele>
        <time>2012-05-10T12:00:43Z</time>
      </trkpt>
      <trkpt lat="46.98199" lon="6.0255">
        <ele>796.8</ele>
        <time>2012-05-10T12:00:49Z</time>
      </trkpt>
      <trkpt lat="46.98199" lon="6.0254">
        <ele>794.9</ele>
        <time>2012-05-10T12:00:56Z</time>
      </trkpt>
      <trkpt lat="46.98201" lon="6.02531">
        <ele>794.6</ele>
        <time>2012-05-10T12:01:02Z</time>
      </trkpt>
      <trkpt lat="46.982" lon="6.02521">
        <ele>792.5</ele>
        <time>2012-05-10T12:01:09Z</time>
      </trkpt>
      <trkpt lat="46.98199" lon="6.02512">
        <ele>789.5</ele>
        <time>2012-05-10T12:01:13Z</time>
      </trkpt>
      <trkpt lat="46.98195" lon="6.02503">
        <ele>788.8</ele>
        <time>2012-05-10T12:01:17Z</time>
      </trkpt>
      <trkpt lat="46.98194" lon="6.02493">
        <ele>790</ele>
        <time>2012-05-10T12:01:23Z</time>
      </trkpt>
      <trkpt lat="46.98193" lon="6.02483">
        <ele>789.5</ele>
        <time>2012-05-10T12:01:32Z</time>
      </trkpt>
      <trkpt lat="46.9819" lon="6.02475">
        <ele>790.2</ele>
        <time>2012-05-10T12:01:40Z</time>
      </trkpt>
      <trkpt lat="46.98189" lon="6.02465">
        <ele>787.4</ele>
        <time>2012-05-10T12:01:48Z</time>
      </trkpt>
      <trkpt lat="46.98184" lon="6.02459">
        <ele>784.5</ele>
        <time>2012-05-10T12:01:56Z</time>
      </trkpt>
      <trkpt lat="46.98181" lon="6.02449">
        <ele>782.8</ele>
        <time>2012-05-10T12:02:02Z</time>
      </trkpt>
      <trkpt lat="46.98178" lon="6.02439">
        <ele>782.3</ele>
        <time>2012-05-10T12:02:08Z</time>
      </trkpt>
      <trkpt lat="46.98179" lon="6.02428">
        <ele>782.2</ele>
        <time>2012-05-10T12:02:15Z</time>
      </trkpt>
      <trkpt lat="46.98176" lon="6.02419">
        <ele>781.3</ele>
        <time>2012-05-10T12:02:21Z</time>
      </trkpt>
      <trkpt lat="46.98176" lon="6.02419">
        <ele>724.6</ele>
        <time>2012-05-10T12:02:32Z</time>
      </trkpt>
      <trkpt lat="46.98176" lon="6.02419">
        <ele>724.6</ele>
        <time>2012-05-10T12:03:08Z</time>
      </trkpt>
      <trkpt lat="46.98176" lon="6.02419">
        <ele>724.6</ele>
        <time>2012-05-10T12:03:19Z</time>
      </trkpt>
      <trkpt lat="46.98176" lon="6.02419">
        <ele>724.6</ele>
        <time>2012-05-10T12:03:20Z</time>
      </trkpt>
      <trkpt lat="46.98176" lon="6.02419">
        <ele>724.6</ele>
        <time>2012-05-10T12:03:32Z</time>
      </trkpt>
      <trkpt lat="46.98176" lon="6.02419">
        <ele>724.6</ele>
        <time>2012-05-10T12:06:17Z</time>
      </trkpt>
      <trkpt lat="46.98154" lon="6.02384">
        <ele>773.3</ele>
        <time>2012-05-10T12:06:18Z</time>
      </trkpt>
      <trkpt lat="46.98149" lon="6.02378">
        <ele>771.7</ele>
        <time>2012-05-10T12:06:22Z</time>
      </trkpt>
      <trkpt lat="46.98142" lon="6.02368">
        <ele>772</ele>
        <time>2012-05-10T12:06:24Z</time>
      </trkpt>
      <trkpt lat="46.98137" lon="6.02357">
        <ele>773.6</ele>
        <time>2012-05-10T12:06:27Z</time>
      </trkpt>
      <trkpt lat="46.98132" lon="6.0235">
        <ele>770.9</ele>
        <time>2012-05-10T12:06:32Z</time>
      </trkpt>
      <trkpt lat="46.98126" lon="6.02345">
        <ele>771.2</ele>
        <time>2012-05-10T12:06:40Z</time>
      </trkpt>
      <trkpt lat="46.98122" lon="6.02335">
        <ele>767.9</ele>
        <time>2012-05-10T12:06:51Z</time>
      </trkpt>
      <trkpt lat="46.98117" lon="6.02327">
        <ele>765.7</ele>
        <time>2012-05-10T12:06:58Z</time>
      </trkpt>
      <trkpt lat="46.98116" lon="6.02317">
        <ele>763</ele>
        <time>2012-05-10T12:07:07Z</time>
      </trkpt>
      <trkpt lat="46.98116" lon="6.02317">
        <ele>693.8</ele>
        <time>2012-05-10T12:07:18Z</time>
      </trkpt>
      <trkpt lat="46.98116" lon="6.02317">
        <ele>693.8</ele>
        <time>2012-05-10T12:07:43Z</time>
      </trkpt>
      <trkpt lat="46.98111" lon="6.02299">
        <ele>753.8</ele>
        <time>2012-05-10T12:07:49Z</time>
      </trkpt>
      <trkpt lat="46.98111" lon="6.02299">
        <ele>690.4</ele>
        <time>2012-05-10T12:08:00Z</time>
      </trkpt>
      <trkpt lat="46.98111" lon="6.02299">
        <ele>690.4</ele>
        <time>2012-05-10T12:08:01Z</time>
      </trkpt>
      <trkpt lat="46.98111" lon="6.02299">
        <ele>690.4</ele>
        <time>2012-05-10T12:08:13Z</time>
      </trkpt>
      <trkpt lat="46.98111" lon="6.02299">
        <ele>690.4</ele>
        <time>2012-05-10T12:08:16Z</time>
      </trkpt>
      <trkpt lat="46.98111" lon="6.02299">
        <ele>690.4</ele>
        <time>2012-05-10T12:08:28Z</time>
      </trkpt>
      <trkpt lat="46.98111" lon="6.02299">
        <ele>690.4</ele>
        <time>2012-05-10T12:08:59Z</time>
      </trkpt>
      <trkpt lat="46.98102" lon="6.02256">
        <ele>745.4</ele>
        <time>2012-05-10T12:09:00Z</time>
      </trkpt>
      <trkpt lat="46.98096" lon="6.02248">
        <ele>743.1</ele>
        <time>2012-05-10T12:09:02Z</time>
      </trkpt>
      <trkpt lat="46.98094" lon="6.02239">
        <ele>741.6</ele>
        <time>2012-05-10T12:09:06Z</time>
      </trkpt>
      <trkpt lat="46.98092" lon="6.0223">
        <ele>739.7</ele>
        <time>2012-05-10T12:09:15Z</time>
      </trkpt>
      <trkpt lat="46.98094" lon="6.0222">
        <ele>737.2</ele>
        <time>2012-05-10T12:09:26Z</time>
      </trkpt>
      <trkpt lat="46.98088" lon="6.02215">
        <ele>734.3</ele>
        <time>2012-05-10T12:09:31Z</time>
      </trkpt>
      <trkpt lat="46.98083" lon="6.0221">
        <ele>735.9</ele>
        <time>2012-05-10T12:09:37Z</time>
      </trkpt>
      <trkpt lat="46.98077" lon="6.02202">
        <ele>736</ele>
        <time>2012-05-10T12:09:43Z</time>
      </trkpt>
      <trkpt lat="46.98077" lon="6.02202">
        <ele>668.4</ele>
        <time>2012-05-10T12:09:55Z</time>
      </trkpt>
      <trkpt lat="46.98077" lon="6.02202">
        <ele>668.4</ele>
        <time>2012-05-10T12:11:05Z</time>
      </trkpt>
      <trkpt lat="46.98071" lon="6.02184">
        <ele>733.4</ele>
        <time>2012-05-10T12:11:07Z</time>
      </trkpt>
      <trkpt lat="46.98068" lon="6.02175">
        <ele>732.8</ele>
        <time>2012-05-10T12:11:09Z</time>
      </trkpt>
      <trkpt lat="46.98062" lon="6.02166">
        <ele>729</ele>
        <time>2012-05-10T12:11:16Z</time>
      </trkpt>
      <trkpt lat="46.9806" lon="6.02156">
        <ele>724.7</ele>
        <time>2012-05-10T12:11:20Z</time>
      </trkpt>
      <trkpt lat="46.98062" lon="6.02147">
        <ele>722.9</ele>
        <time>2012-05-10T12:11:23Z</time>
      </trkpt>
      <trkpt lat="46.98065" lon="6.02138">
        <ele>721.4</ele>
        <time>2012-05-10T12:11:26Z</time>
      </trkpt>
      <trkpt lat="46.98063" lon="6.02126">
        <ele>719.6</ele>
        <time>2012-05-10T12:11:34Z</time>
      </trkpt>
      <trkpt lat="46.9806" lon="6.02117">
        <ele>717.5</ele>
        <time>2012-05-10T12:11:38Z</time>
      </trkpt>
      <trkpt lat="46.98061" lon="6.02107">
        <ele>716.2</ele>
        <time>2012-05-10T12:11:45Z</time>
      </trkpt>
      <trkpt lat="46.98057" lon="6.02099">
        <ele>711.9</ele>
        <time>2012-05-10T12:11:54Z</time>
      </trkpt>
      <trkpt lat="46.98057" lon="6.02099">
        <ele>647.7</ele>
        <time>2012-05-10T12:12:06Z</time>
      </trkpt>
      <trkpt lat="46.98057" lon="6.02099">
        <ele>647.7</ele>
        <time>2012-05-10T12:12:06Z</time>
      </trkpt>
      <trkpt lat="46.98057" lon="6.02099">
        <ele>647.7</ele>
        <time>2012-05-10T12:12:18Z</time>
      </trkpt>
      <trkpt lat="46.98057" lon="6.02099">
        <ele>647.7</ele>
        <time>2012-05-10T12:13:50Z</time>
      </trkpt>
      <trkpt lat="46.98057" lon="6.02099">
        <ele>647.7</ele>
        <time>2012-05-10T12:14:01Z</time>
      </trkpt>
      <trkpt lat="46.98057" lon="6.02099">
        <ele>647.7</ele>
        <time>2012-05-10T12:14:17Z</time>
      </trkpt>
      <trkpt lat="46.98045" lon="6.02071">
        <ele>703.9</ele>
        <time>2012-05-10T12:14:20Z</time>
      </trkpt>
      <trkpt lat="46.98041" lon="6.02062">
        <ele>705.1</ele>
        <time>2012-05-10T12:14:24Z</time>
      </trkpt>
      <trkpt lat="46.98041" lon="6.02062">
        <ele>630.2</ele>
        <time>2012-05-10T12:14:36Z</time>
      </trkpt>
      <trkpt lat="46.98041" lon="6.02062">
        <ele>630.2</ele>
        <time>2012-05-10T12:16:01Z</time>
      </trkpt>
      <trkpt lat="46.98031" lon="6.02052">
        <ele>700.4</ele>
        <time>2012-05-10T12:16:03Z</time>
      </trkpt>
      <trkpt lat="46.98029" lon="6.02043">
        <ele>701.6</ele>
        <time>2012-05-10T12:16:08Z</time>
      </trkpt>
      <trkpt lat="46.98029" lon="6.02033">
        <ele>699.5</ele>
        <time>2012-05-10T12:16:13Z</time>
      </trkpt>
      <trkpt lat="46.98025" lon="6.02025">
        <ele>700.6</ele>
        <time>2012-05-10T12:16:21Z</time>
      </trkpt>
      <trkpt lat="46.98022" lon="6.02017">
        <ele>698.9</ele>
        <time>2012-05-10T12:16:31Z</time>
      </trkpt>
      <trkpt lat="46.98022" lon="6.02017">
        <ele>615</ele>
        <time>2012-05-10T12:16:43Z</time>
      </trkpt>
      <trkpt lat="46.98022" lon="6.02017">
        <ele>615</ele>
        <time>2012-05-10T12:17:17Z</time>
      </trkpt>
      <trkpt lat="46.98015" lon="6.02003">
        <ele>693.3</ele>
        <time>2012-05-10T12:17:21Z</time>
      </trkpt>
      <trkpt lat="46.98009" lon="6.01999">
        <ele>694.9</ele>
        <time>2012-05-10T12:17:26Z</time>
      </trkpt>
      <trkpt lat="46.98007" lon="6.0199">
        <ele>696.3</ele>
        <time>2012-05-10T12:17:31Z</time>
      </trkpt>
      <trkpt lat="46.98006" lon="6.01981">
        <ele>695.3</ele>
        <time>2012-05-10T12:17:38Z</time>
      </trkpt>
      <trkpt lat="46.98005" lon="6.01971">
        <ele>692.2</ele>
        <time>2012-05-10T12:17:43Z</time>
      </trkpt>
      <trkpt lat="46.98005" lon="6.01971">
        <ele>606.4</ele>
        <time>2012-05-10T12:17:55Z</time>
      </trkpt>
      <trkpt lat="46.98005" lon="6.01971">
        <ele>606.4</ele>
        <time>2012-05-10T12:17:56Z</time>
      </trkpt>
      <trkpt lat="46.97995" lon="6.01956">
        <ele>685.7</ele>
        <time>2012-05-10T12:18:05Z</time>
      </trkpt>
      <trkpt lat="46.97995" lon="6.01956">
        <ele>602.5</ele>
        <time>2012-05-10T12:18:17Z</time>
      </trkpt>
      <trkpt lat="46.97995" lon="6.01956">
        <ele>602.5</ele>
        <time>2012-05-10T12:18:27Z</time>
      </trkpt>
      <trkpt lat="46.97995" lon="6.01956">
        <ele>602.5</ele>
        <time>2012-05-10T12:18:38Z</time>
      </trkpt>
      <trkpt lat="46.97995" lon="6.01956">
        <ele>602.5</ele>
        <time>2012-05-10T12:19:07Z</time>
      </trkpt>
      <trkpt lat="46.9798" lon="6.0194">
        <ele>677.9</ele>
        <time>2012-05-10T12:19:08Z</time>
      </trkpt>
      <trkpt lat="46.97975" lon="6.01934">
        <ele>676.3</ele>
        <time>2012-05-10T12:19:13Z</time>
      </trkpt>
      <trkpt lat="46.97969" lon="6.01931">
        <ele>670.5</ele>
        <time>2012-05-10T12:19:23Z</time>
      </trkpt>
      <trkpt lat="46.9797" lon="6.0194">
        <ele>671.6</ele>
        <time>2012-05-10T12:19:31Z</time>
      </trkpt>
      <trkpt lat="46.9797" lon="6.0194">
        <ele>590.6</ele>
        <time>2012-05-10T12:19:43Z</time>
      </trkpt>
      <trkpt lat="46.9797" lon="6.0194">
        <ele>590.6</ele>
        <time>2012-05-10T12:19:50Z</time>
      </trkpt>
      <trkpt lat="46.9797" lon="6.0194">
        <ele>590.6</ele>
        <time>2012-05-10T12:20:01Z</time>
      </trkpt>
      <trkpt lat="46.9797" lon="6.0194">
        <ele>590.6</ele>
        <time>2012-05-10T12:23:10Z</time>
      </trkpt>
      <trkpt lat="46.97957" lon="6.01922">
        <ele>669.7</ele>
        <time>2012-05-10T12:23:10Z</time>
      </trkpt>
      <trkpt lat="46.97949" lon="6.01914">
        <ele>672.7</ele>
        <time>2012-05-10T12:23:12Z</time>
      </trkpt>
      <trkpt lat="46.97944" lon="6.01907">
        <ele>669.5</ele>
        <time>2012-05-10T12:23:20Z</time>
      </trkpt>
      <trkpt lat="46.97939" lon="6.01902">
        <ele>666.8</ele>
        <time>2012-05-10T12:23:24Z</time>
      </trkpt>
      <trkpt lat="46.97932" lon="6.01906">
        <ele>667.2</ele>
        <time>2012-05-10T12:23:28Z</time>
      </trkpt>
      <trkpt lat="46.97932" lon="6.01906">
        <ele>580.6</ele>
        <time>2012-05-10T12:23:40Z</time>
      </trkpt>
      <trkpt lat="46.97932" lon="6.01906">
        <ele>580.6</ele>
        <time>2012-05-10T12:23:42Z</time>
      </trkpt>
      <trkpt lat="46.9793" lon="6.01883">
        <ele>662.7</ele>
        <time>2012-05-10T12:23:53Z</time>
      </trkpt>
      <trkpt lat="46.97937" lon="6.01881">
        <ele>662.3</ele>
        <time>2012-05-10T12:24:01Z</time>
      </trkpt>
      <trkpt lat="46.97933" lon="6.01889">
        <ele>658.4</ele>
        <time>2012-05-10T12:24:12Z</time>
      </trkpt>
      <trkpt lat="46.97927" lon="6.01891">
        <ele>656</ele>
        <time>2012-05-10T12:24:20Z</time>
      </trkpt>
      <trkpt lat="46.97927" lon="6.01891">
        <ele>577.9</ele>
        <time>2012-05-10T12:24:32Z</time>
      </trkpt>
      <trkpt lat="46.97927" lon="6.01891">
        <ele>577.9</ele>
        <time>2012-05-10T12:24:54Z</time>
      </trkpt>
      <trkpt lat="46.97912" lon="6.01886">
        <ele>653.3</ele>
        <time>2012-05-10T12:24:56Z</time>
      </trkpt>
      <trkpt lat="46.97905" lon="6.01885">
        <ele>651.4</ele>
        <time>2012-05-10T12:25:01Z</time>
      </trkpt>
      <trkpt lat="46.97898" lon="6.01887">
        <ele>651.6</ele>
        <time>2012-05-10T12:25:05Z</time>
      </trkpt>
      <trkpt lat="46.97895" lon="6.01878">
        <ele>651</ele>
        <time>2012-05-10T12:25:11Z</time>
      </trkpt>
      <trkpt lat="46.9789" lon="6.01869">
        <ele>649.9</ele>
        <time>2012-05-10T12:25:20Z</time>
      </trkpt>
      <trkpt lat="46.97885" lon="6.0186">
        <ele>650.9</ele>
        <time>2012-05-10T12:25:28Z</time>
      </trkpt>
      <trkpt lat="46.97878" lon="6.01857">
        <ele>649.1</ele>
        <time>2012-05-10T12:25:32Z</time>
      </trkpt>
      <trkpt lat="46.97877" lon="6.01847">
        <ele>648.2</ele>
        <time>2012-05-10T12:25:36Z</time>
      </trkpt>
      <trkpt lat="46.97873" lon="6.0184">
        <ele>648.8</ele>
        <time>2012-05-10T12:25:41Z</time>
      </trkpt>
      <trkpt lat="46.97873" lon="6.01827">
        <ele>647.6</ele>
        <time>2012-05-10T12:25:47Z</time>
      </trkpt>
      <trkpt lat="46.97873" lon="6.01818">
        <ele>646.2</ele>
        <time>2012-05-10T12:25:50Z</time>
      </trkpt>
      <trkpt lat="46.97871" lon="6.01806">
        <ele>645.3</ele>
        <time>2012-05-10T12:25:56Z</time>
      </trkpt>
      <trkpt lat="46.97867" lon="6.01796">
        <ele>641</ele>
        <time>2012-05-10T12:26:02Z</time>
      </trkpt>
      <trkpt lat="46.97867" lon="6.01785">
        <ele>640</ele>
        <time>2012-05-10T12:26:06Z</time>
      </trkpt>
      <trkpt lat="46.97865" lon="6.01776">
        <ele>639.3</ele>
        <time>2012-05-10T12:26:12Z</time>
      </trkpt>
      <trkpt lat="46.97859" lon="6.01772">
        <ele>639</ele>
        <time>2012-05-10T12:26:17Z</time>
      </trkpt>
      <trkpt lat="46.97855" lon="6.01763">
        <ele>637.1</ele>
        <time>2012-05-10T12:26:24Z</time>
      </trkpt>
      <trkpt lat="46.97854" lon="6.01752">
        <ele>636.5</ele>
        <time>2012-05-10T12:26:30Z</time>
      </trkpt>
      <trkpt lat="46.97852" lon="6.01744">
        <ele>634.1</ele>
        <time>2012-05-10T12:26:36Z</time>
      </trkpt>
      <trkpt lat="46.97851" lon="6.01731">
        <ele>630.2</ele>
        <time>2012-05-10T12:26:43Z</time>
      </trkpt>
      <trkpt lat="46.9785" lon="6.01722">
        <ele>629.6</ele>
        <time>2012-05-10T12:26:50Z</time>
      </trkpt>
      <trkpt lat="46.97852" lon="6.01711">
        <ele>628</ele>
        <time>2012-05-10T12:26:55Z</time>
      </trkpt>
      <trkpt lat="46.97847" lon="6.01702">
        <ele>627.1</ele>
        <time>2012-05-10T12:27:02Z</time>
      </trkpt>
      <trkpt lat="46.97847" lon="6.01702">
        <ele>551.1</ele>
        <time>2012-05-10T12:27:14Z</time>
      </trkpt>
      <trkpt lat="46.97847" lon="6.01702">
        <ele>551.1</ele>
        <time>2012-05-10T12:27:14Z</time>
      </trkpt>
      <trkpt lat="46.97849" lon="6.0168">
        <ele>624.4</ele>
        <time>2012-05-10T12:27:24Z</time>
      </trkpt>
      <trkpt lat="46.97847" lon="6.01669">
        <ele>622.4</ele>
        <time>2012-05-10T12:27:26Z</time>
      </trkpt>
      <trkpt lat="46.97844" lon="6.01659">
        <ele>620.2</ele>
        <time>2012-05-10T12:27:31Z</time>
      </trkpt>
      <trkpt lat="46.97842" lon="6.0165">
        <ele>619.4</ele>
        <time>2012-05-10T12:27:35Z</time>
      </trkpt>
      <trkpt lat="46.9784" lon="6.01639">
        <ele>619.8</ele>
        <time>2012-05-10T12:27:40Z</time>
      </trkpt>
      <trkpt lat="46.97839" lon="6.0163">
        <ele>618.9</ele>
        <time>2012-05-10T12:27:46Z</time>
      </trkpt>
      <trkpt lat="46.97839" lon="6.0163">
        <ele>546.1</ele>
        <time>2012-05-10T12:27:58Z</time>
      </trkpt>
      <trkpt lat="46.97839" lon="6.0163">
        <ele>546.1</ele>
        <time>2012-05-10T12:28:42Z</time>
      </trkpt>
      <trkpt lat="46.97833" lon="6.01612">
        <ele>612.4</ele>
        <time>2012-05-10T12:28:51Z</time>
      </trkpt>
      <trkpt lat="46.97834" lon="6.01601">
        <ele>607.4</ele>
        <time>2012-05-10T12:28:58Z</time>
      </trkpt>
      <trkpt lat="46.97833" lon="6.01591">
        <ele>605</ele>
        <time>2012-05-10T12:29:04Z</time>
      </trkpt>
      <trkpt lat="46.97834" lon="6.01582">
        <ele>602.3</ele>
        <time>2012-05-10T12:29:10Z</time>
      </trkpt>
      <trkpt lat="46.9783" lon="6.01575">
        <ele>599.9</ele>
        <time>2012-05-10T12:29:15Z</time>
      </trkpt>
      <trkpt lat="46.97827" lon="6.01566">
        <ele>599.9</ele>
        <time>2012-05-10T12:29:21Z</time>
      </trkpt>
      <trkpt lat="46.97825" lon="6.01555">
        <ele>600.6</ele>
        <time>2012-05-10T12:29:27Z</time>
      </trkpt>
      <trkpt lat="46.9782" lon="6.01549">
        <ele>599.1</ele>
        <time>2012-05-10T12:29:32Z</time>
      </trkpt>
      <trkpt lat="46.9782" lon="6.01549">
        <ele>531.8</ele>
        <time>2012-05-10T12:29:44Z</time>
      </trkpt>
      <trkpt lat="46.9782" lon="6.01549">
        <ele>531.8</ele>
        <time>2012-05-10T12:30:06Z</time>
      </trkpt>
      <trkpt lat="46.97804" lon="6.01552">
        <ele>594.3</ele>
        <time>2012-05-10T12:30:08Z</time>
      </trkpt>
      <trkpt lat="46.97797" lon="6.01553">
        <ele>594.4</ele>
        <time>2012-05-10T12:30:11Z</time>
      </trkpt>
      <trkpt lat="46.97792" lon="6.01544">
        <ele>594.3</ele>
        <time>2012-05-10T12:30:22Z</time>
      </trkpt>
      <trkpt lat="46.97792" lon="6.01544">
        <ele>526.8</ele>
        <time>2012-05-10T12:30:34Z</time>
      </trkpt>
      <trkpt lat="46.97792" lon="6.01544">
        <ele>526.8</ele>
        <time>2012-05-10T12:32:05Z</time>
      </trkpt>
      <trkpt lat="46.97779" lon="6.01556">
        <ele>588</ele>
        <time>2012-05-10T12:32:08Z</time>
      </trkpt>
      <trkpt lat="46.97772" lon="6.01563">
        <ele>587.7</ele>
        <time>2012-05-10T12:32:11Z</time>
      </trkpt>
      <trkpt lat="46.97765" lon="6.01559">
        <ele>586.7</ele>
        <time>2012-05-10T12:32:15Z</time>
      </trkpt>
      <trkpt lat="46.97759" lon="6.01558">
        <ele>584.6</ele>
        <time>2012-05-10T12:32:19Z</time>
      </trkpt>
      <trkpt lat="46.97755" lon="6.01549">
        <ele>581.7</ele>
        <time>2012-05-10T12:32:26Z</time>
      </trkpt>
      <trkpt lat="46.97754" lon="6.01539">
        <ele>579.6</ele>
        <time>2012-05-10T12:32:31Z</time>
      </trkpt>
      <trkpt lat="46.97753" lon="6.01529">
        <ele>578.8</ele>
        <time>2012-05-10T12:32:36Z</time>
      </trkpt>
      <trkpt lat="46.9775" lon="6.01521">
        <ele>576.5</ele>
        <time>2012-05-10T12:32:42Z</time>
      </trkpt>
      <trkpt lat="46.97745" lon="6.01515">
        <ele>573.9</ele>
        <time>2012-05-10T12:32:51Z</time>
      </trkpt>
      <trkpt lat="46.97741" lon="6.01507">
        <ele>573.4</ele>
        <time>2012-05-10T12:32:57Z</time>
      </trkpt>
      <trkpt lat="46.97742" lon="6.01497">
        <ele>573.9</ele>
        <time>2012-05-10T12:33:00Z</time>
      </trkpt>
      <trkpt lat="46.97739" lon="6.01488">
        <ele>575.8</ele>
        <time>2012-05-10T12:33:06Z</time>
      </trkpt>
      <trkpt lat="46.97735" lon="6.0148">
        <ele>573.3</ele>
        <time>2012-05-10T12:33:17Z</time>
      </trkpt>
      <trkpt lat="46.97732" lon="6.0147">
        <ele>575</ele>
        <time>2012-05-10T12:33:22Z</time>
      </trkpt>
      <trkpt lat="46.97732" lon="6.0147">
        <ele>512.6</ele>
        <time>2012-05-10T12:33:34Z</time>
      </trkpt>
      <trkpt lat="46.97732" lon="6.0147">
        <ele>512.6</ele>
        <time>2012-05-10T12:33:39Z</time>
      </trkpt>
      <trkpt lat="46.97732" lon="6.0147">
        <ele>512.6</ele>
        <time>2012-05-10T12:33:51Z</time>
      </trkpt>
      <trkpt lat="46.97732" lon="6.0147">
        <ele>512.6</ele>
        <time>2012-05-10T12:34:27Z</time>
      </trkpt>
      <trkpt lat="46.97724" lon="6.01444">
        <ele>566</ele>
        <time>2012-05-10T12:34:31Z</time>
      </trkpt>
      <trkpt lat="46.9772" lon="6.01435">
        <ele>565.1</ele>
        <time>2012-05-10T12:34:37Z</time>
      </trkpt>
      <trkpt lat="46.97714" lon="6.01431">
        <ele>565.9</ele>
        <time>2012-05-10T12:34:40Z</time>
      </trkpt>
      <trkpt lat="46.97573" lon="6.00668">
        <ele>499.6</ele>
        <time>2012-05-10T12:47:18Z</time>
      </trkpt>
      <trkpt lat="46.97574" lon="6.00658">
        <ele>500.2</ele>
        <time>2012-05-10T12:47:26Z</time>
      </trkpt>
      <trkpt lat="46.97575" lon="6.00649">
        <ele>498.8</ele>
        <time>2012-05-10T12:47:33Z</time>
      </trkpt>
      <trkpt lat="46.97575" lon="6.00638">
        <ele>497</ele>
        <time>2012-05-10T12:47:40Z</time>
      </trkpt>
      <trkpt lat="46.97576" lon="6.00629">
        <ele>495.1</ele>
        <time>2012-05-10T12:47:47Z</time>
      </trkpt>
      <trkpt lat="46.97577" lon="6.00618">
        <ele>494.2</ele>
        <time>2012-05-10T12:47:54Z</time>
      </trkpt>
      <trkpt lat="46.97577" lon="6.00609">
        <ele>493.3</ele>
        <time>2012-05-10T12:47:59Z</time>
      </trkpt>
      <trkpt lat="46.97576" lon="6.00599">
        <ele>492.8</ele>
        <time>2012-05-10T12:48:05Z</time>
      </trkpt>
      <trkpt lat="46.97572" lon="6.00589">
        <ele>492.6</ele>
        <time>2012-05-10T12:48:11Z</time>
      </trkpt>
      <trkpt lat="46.97576" lon="6.00578">
        <ele>491.7</ele>
        <time>2012-05-10T12:48:19Z</time>
      </trkpt>
      <trkpt lat="46.97575" lon="6.00568">
        <ele>492</ele>
        <time>2012-05-10T12:48:25Z</time>
      </trkpt>
      <trkpt lat="46.97573" lon="6.00557">
        <ele>491.8</ele>
        <time>2012-05-10T12:48:34Z</time>
      </trkpt>
      <trkpt lat="46.97573" lon="6.00547">
        <ele>491.2</ele>
        <time>2012-05-10T12:48:41Z</time>
      </trkpt>
      <trkpt lat="46.97574" lon="6.00538">
        <ele>489.2</ele>
        <time>2012-05-10T12:48:47Z</time>
      </trkpt>
      <trkpt lat="46.97572" lon="6.00528">
        <ele>489.5</ele>
        <time>2012-05-10T12:48:54Z</time>
      </trkpt>
      <trkpt lat="46.97571" lon="6.00519">
        <ele>488.5</ele>
        <time>2012-05-10T12:49:01Z</time>
      </trkpt>
      <trkpt lat="46.97576" lon="6.00511">
        <ele>485.6</ele>
        <time>2012-05-10T12:49:08Z</time>
      </trkpt>
      <trkpt lat="46.97573" lon="6.00502">
        <ele>485.9</ele>
        <time>2012-05-10T12:49:16Z</time>
      </trkpt>
      <trkpt lat="46.97573" lon="6.00492">
        <ele>485.8</ele>
        <time>2012-05-10T12:49:20Z</time>
      </trkpt>
      <trkpt lat="46.97573" lon="6.00482">
        <ele>484</ele>
        <time>2012-05-10T12:49:26Z</time>
      </trkpt>
      <trkpt lat="46.97572" lon="6.00472">
        <ele>482.5</ele>
        <time>2012-05-10T12:49:33Z</time>
      </trkpt>
      <trkpt lat="46.97572" lon="6.00462">
        <ele>476.1</ele>
        <time>2012-05-10T12:49:44Z</time>
      </trkpt>
      <trkpt lat="46.97575" lon="6.00452">
        <ele>472.8</ele>
        <time>2012-05-10T12:49:52Z</time>
      </trkpt>
      <trkpt lat="46.97575" lon="6.00452">
        <ele>409</ele>
        <time>2012-05-10T12:50:04Z</time>
      </trkpt>
      <trkpt lat="46.97575" lon="6.00452">
        <ele>409</ele>
        <time>2012-05-10T12:50:07Z</time>
      </trkpt>
      <trkpt lat="46.97587" lon="6.00441">
        <ele>470</ele>
        <time>2012-05-10T12:50:11Z</time>
      </trkpt>
      <trkpt lat="46.97591" lon="6.00434">
        <ele>469.3</ele>
        <time>2012-05-10T12:50:18Z</time>
      </trkpt>
      <trkpt lat="46.97591" lon="6.00434">
        <ele>407.2</ele>
        <time>2012-05-10T12:50:30Z</time>
      </trkpt>
      <trkpt lat="46.97591" lon="6.00434">
        <ele>407.2</ele>
        <time>2012-05-10T12:50:49Z</time>
      </trkpt>
      <trkpt lat="46.976" lon="6.00418">
        <ele>466.5</ele>
        <time>2012-05-10T12:50:59Z</time>
      </trkpt>
      <trkpt lat="46.976" lon="6.00418">
        <ele>405</ele>
        <time>2012-05-10T12:51:11Z</time>
      </trkpt>
      <trkpt lat="46.976" lon="6.00418">
        <ele>405</ele>
        <time>2012-05-10T12:51:20Z</time>
      </trkpt>
      <trkpt lat="46.97612" lon="6.00395">
        <ele>465</ele>
        <time>2012-05-10T12:51:23Z</time>
      </trkpt>
      <trkpt lat="46.97616" lon="6.00385">
        <ele>466.7</ele>
        <time>2012-05-10T12:51:26Z</time>
      </trkpt>
      <trkpt lat="46.9762" lon="6.00376">
        <ele>466.2</ele>
        <time>2012-05-10T12:51:29Z</time>
      </trkpt>
      <trkpt lat="46.97625" lon="6.00368">
        <ele>464.4</ele>
        <time>2012-05-10T12:51:32Z</time>
      </trkpt>
      <trkpt lat="46.97628" lon="6.0036">
        <ele>464.1</ele>
        <time>2012-05-10T12:51:35Z</time>
      </trkpt>
      <trkpt lat="46.97631" lon="6.0035">
        <ele>464</ele>
        <time>2012-05-10T12:51:40Z</time>
      </trkpt>
      <trkpt lat="46.97636" lon="6.00342">
        <ele>461.4</ele>
        <time>2012-05-10T12:51:46Z</time>
      </trkpt>
      <trkpt lat="46.97636" lon="6.00342">
        <ele>395.6</ele>
        <time>2012-05-10T12:51:58Z</time>
      </trkpt>
      <trkpt lat="46.97636" lon="6.00342">
        <ele>395.6</ele>
        <time>2012-05-10T12:52:25Z</time>
      </trkpt>
      <trkpt lat="46.97645" lon="6.00325">
        <ele>455.1</ele>
        <time>2012-05-10T12:52:28Z</time>
      </trkpt>
      <trkpt lat="46.97645" lon="6.00325">
        <ele>394.2</ele>
        <time>2012-05-10T12:52:40Z</time>
      </trkpt>
      <trkpt lat="46.97645" lon="6.00325">
        <ele>394.2</ele>
        <time>2012-05-10T12:52:44Z</time>
      </trkpt>
      <trkpt lat="46.97661" lon="6.00305">
        <ele>449.9</ele>
        <time>2012-05-10T12:52:46Z</time>
      </trkpt>
      <trkpt lat="46.97666" lon="6.00297">
        <ele>450.3</ele>
        <time>2012-05-10T12:52:49Z</time>
      </trkpt>
      <trkpt lat="46.97672" lon="6.0029">
        <ele>450.4</ele>
        <time>2012-05-10T12:52:56Z</time>
      </trkpt>
      <trkpt lat="46.97678" lon="6.00283">
        <ele>450</ele>
        <time>2012-05-10T12:53:02Z</time>
      </trkpt>
      <trkpt lat="46.97684" lon="6.00283">
        <ele>448.6</ele>
        <time>2012-05-10T12:53:06Z</time>
      </trkpt>
      <trkpt lat="46.9769" lon="6.00279">
        <ele>447.5</ele>
        <time>2012-05-10T12:53:11Z</time>
      </trkpt>
      <trkpt lat="46.9769" lon="6.00279">
        <ele>382.8</ele>
        <time>2012-05-10T12:53:23Z</time>
      </trkpt>
      <trkpt lat="46.9769" lon="6.00279">
        <ele>382.8</ele>
        <time>2012-05-10T12:53:31Z</time>
      </trkpt>
      <trkpt lat="46.97695" lon="6.0026">
        <ele>441.5</ele>
        <time>2012-05-10T12:53:36Z</time>
      </trkpt>
      <trkpt lat="46.977" lon="6.00251">
        <ele>439.8</ele>
        <time>2012-05-10T12:53:40Z</time>
      </trkpt>
      <trkpt lat="46.97704" lon="6.00243">
        <ele>440.6</ele>
        <time>2012-05-10T12:53:48Z</time>
      </trkpt>
      <trkpt lat="46.9771" lon="6.00241">
        <ele>437.7</ele>
        <time>2012-05-10T12:53:55Z</time>
      </trkpt>
      <trkpt lat="46.9771" lon="6.00241">
        <ele>376.9</ele>
        <time>2012-05-10T12:54:07Z</time>
      </trkpt>
      <trkpt lat="46.9771" lon="6.00241">
        <ele>376.9</ele>
        <time>2012-05-10T13:00:56Z</time>
      </trkpt>
      <trkpt lat="46.9771" lon="6.00241">
        <ele>376.9</ele>
        <time>2012-05-10T13:01:07Z</time>
      </trkpt>
      <trkpt lat="46.9771" lon="6.00241">
        <ele>376.9</ele>
        <time>2012-05-10T13:04:13Z</time>
      </trkpt>
      <trkpt lat="46.97722" lon="6.00233">
        <ele>429.3</ele>
        <time>2012-05-10T13:04:21Z</time>
      </trkpt>
      <trkpt lat="46.97722" lon="6.00233">
        <ele>375.8</ele>
        <time>2012-05-10T13:04:32Z</time>
      </trkpt>
      <trkpt lat="46.97722" lon="6.00233">
        <ele>375.8</ele>
        <time>2012-05-10T13:04:35Z</time>
      </trkpt>
      <trkpt lat="46.97722" lon="6.00233">
        <ele>375.8</ele>
        <time>2012-05-10T13:04:46Z</time>
      </trkpt>
      <trkpt lat="46.97722" lon="6.00233">
        <ele>375.8</ele>
        <time>2012-05-10T13:04:56Z</time>
      </trkpt>
      <trkpt lat="46.97738" lon="6.00214">
        <ele>429.5</ele>
        <time>2012-05-10T13:05:00Z</time>
      </trkpt>
      <trkpt lat="46.97742" lon="6.00207">
        <ele>430.4</ele>
        <time>2012-05-10T13:05:07Z</time>
      </trkpt>
      <trkpt lat="46.97745" lon="6.00198">
        <ele>431.6</ele>
        <time>2012-05-10T13:05:12Z</time>
      </trkpt>
      <trkpt lat="46.97747" lon="6.00189">
        <ele>430.7</ele>
        <time>2012-05-10T13:05:17Z</time>
      </trkpt>
      <trkpt lat="46.97744" lon="6.00181">
        <ele>430.9</ele>
        <time>2012-05-10T13:05:23Z</time>
      </trkpt>
      <trkpt lat="46.97738" lon="6.00174">
        <ele>430.5</ele>
        <time>2012-05-10T13:05:32Z</time>
      </trkpt>
      <trkpt lat="46.9774" lon="6.00165">
        <ele>430.2</ele>
        <time>2012-05-10T13:05:35Z</time>
      </trkpt>
      <trkpt lat="46.97741" lon="6.00155">
        <ele>430.7</ele>
        <time>2012-05-10T13:05:39Z</time>
      </trkpt>
      <trkpt lat="46.97736" lon="6.00148">
        <ele>430.1</ele>
        <time>2012-05-10T13:05:45Z</time>
      </trkpt>
      <trkpt lat="46.97733" lon="6.00139">
        <ele>430.7</ele>
        <time>2012-05-10T13:05:55Z</time>
      </trkpt>
      <trkpt lat="46.97733" lon="6.00139">
        <ele>368.4</ele>
        <time>2012-05-10T13:06:07Z</time>
      </trkpt>
      <trkpt lat="46.97733" lon="6.00139">
        <ele>368.4</ele>
        <time>2012-05-10T13:06:09Z</time>
      </trkpt>
      <trkpt lat="46.97736" lon="6.00119">
        <ele>425.3</ele>
        <time>2012-05-10T13:06:14Z</time>
      </trkpt>
      <trkpt lat="46.97738" lon="6.0011">
        <ele>424.6</ele>
        <time>2012-05-10T13:06:18Z</time>
      </trkpt>
      <trkpt lat="46.97742" lon="6.00101">
        <ele>421.8</ele>
        <time>2012-05-10T13:06:23Z</time>
      </trkpt>
      <trkpt lat="46.97746" lon="6.00091">
        <ele>420.6</ele>
        <time>2012-05-10T13:06:31Z</time>
      </trkpt>
      <trkpt lat="46.97747" lon="6.00082">
        <ele>419.9</ele>
        <time>2012-05-10T13:06:35Z</time>
      </trkpt>
      <trkpt lat="46.97751" lon="6.00072">
        <ele>420.5</ele>
        <time>2012-05-10T13:06:40Z</time>
      </trkpt>
      <trkpt lat="46.97756" lon="6.00066">
        <ele>421.4</ele>
        <time>2012-05-10T13:06:47Z</time>
      </trkpt>
      <trkpt lat="46.97756" lon="6.00066">
        <ele>365.4</ele>
        <time>2012-05-10T13:06:59Z</time>
      </trkpt>
      <trkpt lat="46.97756" lon="6.00066">
        <ele>365.4</ele>
        <time>2012-05-10T13:07:26Z</time>
      </trkpt>
      <trkpt lat="46.97756" lon="6.00066">
        <ele>365.4</ele>
        <time>2012-05-10T13:07:38Z</time>
      </trkpt>
      <trkpt lat="46.97756" lon="6.00066">
        <ele>365.4</ele>
        <time>2012-05-10T13:08:22Z</time>
      </trkpt>
      <trkpt lat="46.97756" lon="6.00066">
        <ele>365.4</ele>
        <time>2012-05-10T13:08:34Z</time>
      </trkpt>
      <trkpt lat="46.97756" lon="6.00066">
        <ele>365.4</ele>
        <time>2012-05-10T13:08:38Z</time>
      </trkpt>
      <trkpt lat="46.97767" lon="6.00034">
        <ele>415.9</ele>
        <time>2012-05-10T13:08:43Z</time>
      </trkpt>
      <trkpt lat="46.97765" lon="6.00024">
        <ele>417.7</ele>
        <time>2012-05-10T13:08:47Z</time>
      </trkpt>
      <trkpt lat="46.97764" lon="6.00013">
        <ele>419.6</ele>
        <time>2012-05-10T13:08:50Z</time>
      </trkpt>
      <trkpt lat="46.97757" lon="6.0001">
        <ele>421</ele>
        <time>2012-05-10T13:09:01Z</time>
      </trkpt>
      <trkpt lat="46.97751" lon="6.00002">
        <ele>420.8</ele>
        <time>2012-05-10T13:09:08Z</time>
      </trkpt>
      <trkpt lat="46.97749" lon="5.99993">
        <ele>422.2</ele>
        <time>2012-05-10T13:09:14Z</time>
      </trkpt>
      <trkpt lat="46.97744" lon="5.99986">
        <ele>422.1</ele>
        <time>2012-05-10T13:09:23Z</time>
      </trkpt>
      <trkpt lat="46.97744" lon="5.99986">
        <ele>364.6</ele>
        <time>2012-05-10T13:09:35Z</time>
      </trkpt>
      <trkpt lat="46.97744" lon="5.99986">
        <ele>364.6</ele>
        <time>2012-05-10T13:09:47Z</time>
      </trkpt>
      <trkpt lat="46.97744" lon="5.99986">
        <ele>364.6</ele>
        <time>2012-05-10T13:09:59Z</time>
      </trkpt>
      <trkpt lat="46.97744" lon="5.99986">
        <ele>364.6</ele>
        <time>2012-05-10T13:12:42Z</time>
      </trkpt>
      <trkpt lat="46.97744" lon="5.99986">
        <ele>364.6</ele>
        <time>2012-05-10T13:12:54Z</time>
      </trkpt>
      <trkpt lat="46.97744" lon="5.99986">
        <ele>364.6</ele>
        <time>2012-05-10T13:15:40Z</time>
      </trkpt>
      <trkpt lat="46.97744" lon="5.99986">
        <ele>364.6</ele>
        <time>2012-05-10T13:15:51Z</time>
      </trkpt>
      <trkpt lat="46.97744" lon="5.99986">
        <ele>364.6</ele>
        <time>2012-05-10T13:16:28Z</time>
      </trkpt>
      <trkpt lat="46.97744" lon="5.99986">
        <ele>364.6</ele>
        <time>2012-05-10T13:16:39Z</time>
      </trkpt>
      <trkpt lat="46.97744" lon="5.99986">
        <ele>364.6</ele>
        <time>2012-05-10T13:16:45Z</time>
      </trkpt>
      <trkpt lat="46.97723" lon="5.99963">
        <ele>409.8</ele>
        <time>2012-05-10T13:16:51Z</time>
      </trkpt>
      <trkpt lat="46.97717" lon="5.9996">
        <ele>410.9</ele>
        <time>2012-05-10T13:17:01Z</time>
      </trkpt>
      <trkpt lat="46.97723" lon="5.99963">
        <ele>411.1</ele>
        <time>2012-05-10T13:17:12Z</time>
      </trkpt>
      <trkpt lat="46.9773" lon="5.99968">
        <ele>412.8</ele>
        <time>2012-05-10T13:17:16Z</time>
      </trkpt>
      <trkpt lat="46.97736" lon="5.99973">
        <ele>413.7</ele>
        <time>2012-05-10T13:17:22Z</time>
      </trkpt>
      <trkpt lat="46.97742" lon="5.99979">
        <ele>415</ele>
        <time>2012-05-10T13:17:29Z</time>
      </trkpt>
      <trkpt lat="46.97747" lon="5.99982">
        <ele>415.2</ele>
        <time>2012-05-10T13:17:36Z</time>
      </trkpt>
      <trkpt lat="46.97753" lon="5.99988">
        <ele>416.7</ele>
        <time>2012-05-10T13:17:42Z</time>
      </trkpt>
      <trkpt lat="46.97757" lon="5.99996">
        <ele>415.6</ele>
        <time>2012-05-10T13:17:49Z</time>
      </trkpt>
      <trkpt lat="46.97762" lon="6.00002">
        <ele>415.7</ele>
        <time>2012-05-10T13:17:56Z</time>
      </trkpt>
      <trkpt lat="46.97767" lon="5.99996">
        <ele>416.3</ele>
        <time>2012-05-10T13:18:01Z</time>
      </trkpt>
      <trkpt lat="46.97774" lon="5.99989">
        <ele>417.2</ele>
        <time>2012-05-10T13:18:05Z</time>
      </trkpt>
      <trkpt lat="46.97781" lon="5.99985">
        <ele>417.7</ele>
        <time>2012-05-10T13:18:12Z</time>
      </trkpt>
      <trkpt lat="46.97787" lon="5.99979">
        <ele>417.9</ele>
        <time>2012-05-10T13:18:21Z</time>
      </trkpt>
      <trkpt lat="46.97787" lon="5.99979">
        <ele>365.2</ele>
        <time>2012-05-10T13:18:32Z</time>
      </trkpt>
      <trkpt lat="46.97787" lon="5.99979">
        <ele>365.2</ele>
        <time>2012-05-10T13:18:34Z</time>
      </trkpt>
      <trkpt lat="46.97787" lon="5.99979">
        <ele>365.2</ele>
        <time>2012-05-10T13:18:45Z</time>
      </trkpt>
      <trkpt lat="46.97787" lon="5.99979">
        <ele>365.2</ele>
        <time>2012-05-10T13:18:54Z</time>
      </trkpt>
      <trkpt lat="46.97805" lon="5.99961">
        <ele>415.9</ele>
        <time>2012-05-10T13:18:56Z</time>
      </trkpt>
      <trkpt lat="46.97811" lon="5.99954">
        <ele>415.8</ele>
        <time>2012-05-10T13:19:04Z</time>
      </trkpt>
      <trkpt lat="46.97821" lon="5.99952">
        <ele>418.1</ele>
        <time>2012-05-10T13:19:07Z</time>
      </trkpt>
      <trkpt lat="46.97827" lon="5.99951">
        <ele>420.2</ele>
        <time>2012-05-10T13:19:11Z</time>
      </trkpt>
      <trkpt lat="46.97827" lon="5.99951">
        <ele>366.2</ele>
        <time>2012-05-10T13:19:23Z</time>
      </trkpt>
      <trkpt lat="46.97827" lon="5.99951">
        <ele>366.2</ele>
        <time>2012-05-10T13:19:28Z</time>
      </trkpt>
      <trkpt lat="46.97838" lon="5.99938">
        <ele>421.4</ele>
        <time>2012-05-10T13:19:38Z</time>
      </trkpt>
      <trkpt lat="46.97849" lon="5.99931">
        <ele>420.9</ele>
        <time>2012-05-10T13:19:47Z</time>
      </trkpt>
      <trkpt lat="46.97855" lon="5.99926">
        <ele>422.3</ele>
        <time>2012-05-10T13:19:49Z</time>
      </trkpt>
      <trkpt lat="46.97858" lon="5.99916">
        <ele>423</ele>
        <time>2012-05-10T13:19:53Z</time>
      </trkpt>
      <trkpt lat="46.9786" lon="5.99907">
        <ele>423</ele>
        <time>2012-05-10T13:19:57Z</time>
      </trkpt>
      <trkpt lat="46.97866" lon="5.99903">
        <ele>423.3</ele>
        <time>2012-05-10T13:20:03Z</time>
      </trkpt>
      <trkpt lat="46.97873" lon="5.99896">
        <ele>424.7</ele>
        <time>2012-05-10T13:20:10Z</time>
      </trkpt>
      <trkpt lat="46.97879" lon="5.9989">
        <ele>423.5</ele>
        <time>2012-05-10T13:20:16Z</time>
      </trkpt>
      <trkpt lat="46.97883" lon="5.99883">
        <ele>423.7</ele>
        <time>2012-05-10T13:20:21Z</time>
      </trkpt>
      <trkpt lat="46.97887" lon="5.99875">
        <ele>421.5</ele>
        <time>2012-05-10T13:20:29Z</time>
      </trkpt>
      <trkpt lat="46.97893" lon="5.99873">
        <ele>421.1</ele>
        <time>2012-05-10T13:20:33Z</time>
      </trkpt>
      <trkpt lat="46.97897" lon="5.99865">
        <ele>420.6</ele>
        <time>2012-05-10T13:20:38Z</time>
      </trkpt>
      <trkpt lat="46.97897" lon="5.99865">
        <ele>368.6</ele>
        <time>2012-05-10T13:20:50Z</time>
      </trkpt>
      <trkpt lat="46.97897" lon="5.99865">
        <ele>368.6</ele>
        <time>2012-05-10T13:20:54Z</time>
      </trkpt>
      <trkpt lat="46.97908" lon="5.99852">
        <ele>416</ele>
        <time>2012-05-10T13:21:04Z</time>
      </trkpt>
      <trkpt lat="46.97915" lon="5.99846">
        <ele>417.4</ele>
        <time>2012-05-10T13:21:07Z</time>
      </trkpt>
      <trkpt lat="46.97921" lon="5.99842">
        <ele>418.9</ele>
        <time>2012-05-10T13:21:11Z</time>
      </trkpt>
      <trkpt lat="46.97928" lon="5.99837">
        <ele>419.9</ele>
        <time>2012-05-10T13:21:17Z</time>
      </trkpt>
      <trkpt lat="46.97928" lon="5.99837">
        <ele>367.9</ele>
        <time>2012-05-10T13:21:29Z</time>
      </trkpt>
      <trkpt lat="46.97928" lon="5.99837">
        <ele>367.9</ele>
        <time>2012-05-10T13:21:35Z</time>
      </trkpt>
      <trkpt lat="46.97944" lon="5.9983">
        <ele>418.5</ele>
        <time>2012-05-10T13:21:37Z</time>
      </trkpt>
      <trkpt lat="46.97952" lon="5.99824">
        <ele>417.8</ele>
        <time>2012-05-10T13:21:43Z</time>
      </trkpt>
      <trkpt lat="46.9796" lon="5.99823">
        <ele>417.9</ele>
        <time>2012-05-10T13:21:46Z</time>
      </trkpt>
      <trkpt lat="46.97967" lon="5.99821">
        <ele>417.3</ele>
        <time>2012-05-10T13:21:50Z</time>
      </trkpt>
      <trkpt lat="46.97971" lon="5.99814">
        <ele>415.5</ele>
        <time>2012-05-10T13:21:55Z</time>
      </trkpt>
      <trkpt lat="46.97978" lon="5.99808">
        <ele>415.5</ele>
        <time>2012-05-10T13:22:04Z</time>
      </trkpt>
      <trkpt lat="46.97983" lon="5.99803">
        <ele>415.7</ele>
        <time>2012-05-10T13:22:10Z</time>
      </trkpt>
      <trkpt lat="46.97988" lon="5.99796">
        <ele>416.9</ele>
        <time>2012-05-10T13:22:13Z</time>
      </trkpt>
      <trkpt lat="46.97996" lon="5.99791">
        <ele>418</ele>
        <time>2012-05-10T13:22:18Z</time>
      </trkpt>
      <trkpt lat="46.98001" lon="5.99786">
        <ele>420.2</ele>
        <time>2012-05-10T13:22:22Z</time>
      </trkpt>
      <trkpt lat="46.98008" lon="5.99785">
        <ele>420.4</ele>
        <time>2012-05-10T13:22:27Z</time>
      </trkpt>
      <trkpt lat="46.98014" lon="5.99782">
        <ele>421.6</ele>
        <time>2012-05-10T13:22:33Z</time>
      </trkpt>
      <trkpt lat="46.98021" lon="5.99779">
        <ele>421.9</ele>
        <time>2012-05-10T13:22:40Z</time>
      </trkpt>
      <trkpt lat="46.98028" lon="5.99777">
        <ele>423.9</ele>
        <time>2012-05-10T13:22:44Z</time>
      </trkpt>
      <trkpt lat="46.98035" lon="5.99775">
        <ele>422.7</ele>
        <time>2012-05-10T13:22:49Z</time>
      </trkpt>
      <trkpt lat="46.9804" lon="5.99769">
        <ele>422.6</ele>
        <time>2012-05-10T13:22:56Z</time>
      </trkpt>
      <trkpt lat="46.98046" lon="5.99763">
        <ele>422.2</ele>
        <time>2012-05-10T13:23:02Z</time>
      </trkpt>
      <trkpt lat="46.98053" lon="5.99761">
        <ele>421.5</ele>
        <time>2012-05-10T13:23:08Z</time>
      </trkpt>
      <trkpt lat="46.98058" lon="5.99754">
        <ele>422.5</ele>
        <time>2012-05-10T13:23:13Z</time>
      </trkpt>
      <trkpt lat="46.98064" lon="5.99751">
        <ele>422</ele>
        <time>2012-05-10T13:23:20Z</time>
      </trkpt>
      <trkpt lat="46.98071" lon="5.99747">
        <ele>421.7</ele>
        <time>2012-05-10T13:23:25Z</time>
      </trkpt>
      <trkpt lat="46.98079" lon="5.99746">
        <ele>420.7</ele>
        <time>2012-05-10T13:23:35Z</time>
      </trkpt>
      <trkpt lat="46.98086" lon="5.99746">
        <ele>420.8</ele>
        <time>2012-05-10T13:23:40Z</time>
      </trkpt>
      <trkpt lat="46.98093" lon="5.99744">
        <ele>422.5</ele>
        <time>2012-05-10T13:23:45Z</time>
      </trkpt>
      <trkpt lat="46.98099" lon="5.9974">
        <ele>421.3</ele>
        <time>2012-05-10T13:23:50Z</time>
      </trkpt>
      <trkpt lat="46.98106" lon="5.99738">
        <ele>421.6</ele>
        <time>2012-05-10T13:23:55Z</time>
      </trkpt>
      <trkpt lat="46.98106" lon="5.99738">
        <ele>365.4</ele>
        <time>2012-05-10T13:24:07Z</time>
      </trkpt>
      <trkpt lat="46.98106" lon="5.99738">
        <ele>365.4</ele>
        <time>2012-05-10T13:24:07Z</time>
      </trkpt>
      <trkpt lat="46.9812" lon="5.99729">
        <ele>421.9</ele>
        <time>2012-05-10T13:24:14Z</time>
      </trkpt>
      <trkpt lat="46.98125" lon="5.99723">
        <ele>421.2</ele>
        <time>2012-05-10T13:24:20Z</time>
      </trkpt>
      <trkpt lat="46.98132" lon="5.99721">
        <ele>420.1</ele>
        <time>2012-05-10T13:24:26Z</time>
      </trkpt>
      <trkpt lat="46.98137" lon="5.99715">
        <ele>421.2</ele>
        <time>2012-05-10T13:24:33Z</time>
      </trkpt>
      <trkpt lat="46.98144" lon="5.99712">
        <ele>421.7</ele>
        <time>2012-05-10T13:24:39Z</time>
      </trkpt>
      <trkpt lat="46.9815" lon="5.99712">
        <ele>420.4</ele>
        <time>2012-05-10T13:24:44Z</time>
      </trkpt>
      <trkpt lat="46.98156" lon="5.99708">
        <ele>419.6</ele>
        <time>2012-05-10T13:24:48Z</time>
      </trkpt>
      <trkpt lat="46.98162" lon="5.99701">
        <ele>419.6</ele>
        <time>2012-05-10T13:24:56Z</time>
      </trkpt>
      <trkpt lat="46.9817" lon="5.99698">
        <ele>418.8</ele>
        <time>2012-05-10T13:25:02Z</time>
      </trkpt>
      <trkpt lat="46.98177" lon="5.99701">
        <ele>419.3</ele>
        <time>2012-05-10T13:25:06Z</time>
      </trkpt>
      <trkpt lat="46.98183" lon="5.99698">
        <ele>420.7</ele>
        <time>2012-05-10T13:25:13Z</time>
      </trkpt>
      <trkpt lat="46.98189" lon="5.99695">
        <ele>420.6</ele>
        <time>2012-05-10T13:25:18Z</time>
      </trkpt>
      <trkpt lat="46.98196" lon="5.99696">
        <ele>420.1</ele>
        <time>2012-05-10T13:25:22Z</time>
      </trkpt>
      <trkpt lat="46.98201" lon="5.99691">
        <ele>420.7</ele>
        <time>2012-05-10T13:25:29Z</time>
      </trkpt>
      <trkpt lat="46.98208" lon="5.99691">
        <ele>420.5</ele>
        <time>2012-05-10T13:25:35Z</time>
      </trkpt>
      <trkpt lat="46.98214" lon="5.99692">
        <ele>419.6</ele>
        <time>2012-05-10T13:25:40Z</time>
      </trkpt>
      <trkpt lat="46.98221" lon="5.99693">
        <ele>419</ele>
        <time>2012-05-10T13:25:44Z</time>
      </trkpt>
      <trkpt lat="46.98227" lon="5.99691">
        <ele>419.4</ele>
        <time>2012-05-10T13:25:52Z</time>
      </trkpt>
      <trkpt lat="46.98233" lon="5.99686">
        <ele>420.3</ele>
        <time>2012-05-10T13:25:57Z</time>
      </trkpt>
      <trkpt lat="46.98233" lon="5.99686">
        <ele>363.4</ele>
        <time>2012-05-10T13:26:09Z</time>
      </trkpt>
      <trkpt lat="46.98233" lon="5.99686">
        <ele>363.4</ele>
        <time>2012-05-10T13:26:09Z</time>
      </trkpt>
      <trkpt lat="46.98432" lon="5.99701">
        <ele>422.8</ele>
        <time>2012-05-10T13:29:08Z</time>
      </trkpt>
      <trkpt lat="46.98432" lon="5.99701">
        <ele>367.8</ele>
        <time>2012-05-10T13:29:20Z</time>
      </trkpt>
      <trkpt lat="46.98432" lon="5.99701">
        <ele>367.8</ele>
        <time>2012-05-10T13:29:21Z</time>
      </trkpt>
      <trkpt lat="46.98445" lon="5.9971">
        <ele>423.7</ele>
        <time>2012-05-10T13:29:30Z</time>
      </trkpt>
      <trkpt lat="46.98445" lon="5.9971">
        <ele>371</ele>
        <time>2012-05-10T13:29:42Z</time>
      </trkpt>
      <trkpt lat="46.98445" lon="5.9971">
        <ele>371</ele>
        <time>2012-05-10T13:29:54Z</time>
      </trkpt>
      <trkpt lat="46.98458" lon="5.99719">
        <ele>428.7</ele>
        <time>2012-05-10T13:30:05Z</time>
      </trkpt>
      <trkpt lat="46.98465" lon="5.99725">
        <ele>427.9</ele>
        <time>2012-05-10T13:30:08Z</time>
      </trkpt>
      <trkpt lat="46.98472" lon="5.99728">
        <ele>426.9</ele>
        <time>2012-05-10T13:30:13Z</time>
      </trkpt>
      <trkpt lat="46.98484" lon="5.9973">
        <ele>429.5</ele>
        <time>2012-05-10T13:30:23Z</time>
      </trkpt>
      <trkpt lat="46.9849" lon="5.99732">
        <ele>429.9</ele>
        <time>2012-05-10T13:30:29Z</time>
      </trkpt>
      <trkpt lat="46.98498" lon="5.99735">
        <ele>429.7</ele>
        <time>2012-05-10T13:30:35Z</time>
      </trkpt>
      <trkpt lat="46.98504" lon="5.99734">
        <ele>430.4</ele>
        <time>2012-05-10T13:30:37Z</time>
      </trkpt>
      <trkpt lat="46.98512" lon="5.99737">
        <ele>431.3</ele>
        <time>2012-05-10T13:30:39Z</time>
      </trkpt>
      <trkpt lat="46.98519" lon="5.99738">
        <ele>432.7</ele>
        <time>2012-05-10T13:30:46Z</time>
      </trkpt>
      <trkpt lat="46.98526" lon="5.99745">
        <ele>432.7</ele>
        <time>2012-05-10T13:30:49Z</time>
      </trkpt>
      <trkpt lat="46.98526" lon="5.99745">
        <ele>368.2</ele>
        <time>2012-05-10T13:31:00Z</time>
      </trkpt>
      <trkpt lat="46.98526" lon="5.99745">
        <ele>368.2</ele>
        <time>2012-05-10T13:31:22Z</time>
      </trkpt>
      <trkpt lat="46.98551" lon="5.99763">
        <ele>428.8</ele>
        <time>2012-05-10T13:31:24Z</time>
      </trkpt>
      <trkpt lat="46.98557" lon="5.99765">
        <ele>429.2</ele>
        <time>2012-05-10T13:31:29Z</time>
      </trkpt>
      <trkpt lat="46.98565" lon="5.99764">
        <ele>429</ele>
        <time>2012-05-10T13:31:32Z</time>
      </trkpt>
      <trkpt lat="46.98574" lon="5.99768">
        <ele>431.8</ele>
        <time>2012-05-10T13:31:42Z</time>
      </trkpt>
      <trkpt lat="46.98589" lon="5.99779">
        <ele>429.4</ele>
        <time>2012-05-10T13:31:44Z</time>
      </trkpt>
      <trkpt lat="46.98595" lon="5.9978">
        <ele>428.5</ele>
        <time>2012-05-10T13:31:46Z</time>
      </trkpt>
      <trkpt lat="46.986" lon="5.99789">
        <ele>429.7</ele>
        <time>2012-05-10T13:31:49Z</time>
      </trkpt>
      <trkpt lat="46.98611" lon="5.99794">
        <ele>430.1</ele>
        <time>2012-05-10T13:31:52Z</time>
      </trkpt>
      <trkpt lat="46.98621" lon="5.99798">
        <ele>428.9</ele>
        <time>2012-05-10T13:31:54Z</time>
      </trkpt>
      <trkpt lat="46.98627" lon="5.99803">
        <ele>427.7</ele>
        <time>2012-05-10T13:31:58Z</time>
      </trkpt>
      <trkpt lat="46.98631" lon="5.99811">
        <ele>426.4</ele>
        <time>2012-05-10T13:32:01Z</time>
      </trkpt>
      <trkpt lat="46.98638" lon="5.99815">
        <ele>426.3</ele>
        <time>2012-05-10T13:32:05Z</time>
      </trkpt>
      <trkpt lat="46.9864" lon="5.99824">
        <ele>425.2</ele>
        <time>2012-05-10T13:32:10Z</time>
      </trkpt>
      <trkpt lat="46.98635" lon="5.99832">
        <ele>425.1</ele>
        <time>2012-05-10T13:32:14Z</time>
      </trkpt>
      <trkpt lat="46.98643" lon="5.99836">
        <ele>425.3</ele>
        <time>2012-05-10T13:32:16Z</time>
      </trkpt>
      <trkpt lat="46.98649" lon="5.99837">
        <ele>426.2</ele>
        <time>2012-05-10T13:32:18Z</time>
      </trkpt>
      <trkpt lat="46.98656" lon="5.9984">
        <ele>425.9</ele>
        <time>2012-05-10T13:32:22Z</time>
      </trkpt>
      <trkpt lat="46.98661" lon="5.99847">
        <ele>425.2</ele>
        <time>2012-05-10T13:32:27Z</time>
      </trkpt>
      <trkpt lat="46.9867" lon="5.99851">
        <ele>424.5</ele>
        <time>2012-05-10T13:32:35Z</time>
      </trkpt>
      <trkpt lat="46.98671" lon="5.99861">
        <ele>424.3</ele>
        <time>2012-05-10T13:32:40Z</time>
      </trkpt>
      <trkpt lat="46.98675" lon="5.99869">
        <ele>422.4</ele>
        <time>2012-05-10T13:32:45Z</time>
      </trkpt>
      <trkpt lat="46.98681" lon="5.9987">
        <ele>422.5</ele>
        <time>2012-05-10T13:32:48Z</time>
      </trkpt>
      <trkpt lat="46.98685" lon="5.99878">
        <ele>423.3</ele>
        <time>2012-05-10T13:32:54Z</time>
      </trkpt>
      <trkpt lat="46.9868" lon="5.99884">
        <ele>423.3</ele>
        <time>2012-05-10T13:32:57Z</time>
      </trkpt>
      <trkpt lat="46.98684" lon="5.99893">
        <ele>419.9</ele>
        <time>2012-05-10T13:33:05Z</time>
      </trkpt>
      <trkpt lat="46.98686" lon="5.99903">
        <ele>420.6</ele>
        <time>2012-05-10T13:33:12Z</time>
      </trkpt>
      <trkpt lat="46.9868" lon="5.99913">
        <ele>420.5</ele>
        <time>2012-05-10T13:33:17Z</time>
      </trkpt>
      <trkpt lat="46.98679" lon="5.99922">
        <ele>421.4</ele>
        <time>2012-05-10T13:33:24Z</time>
      </trkpt>
      <trkpt lat="46.98679" lon="5.99922">
        <ele>362.7</ele>
        <time>2012-05-10T13:33:36Z</time>
      </trkpt>
      <trkpt lat="46.98679" lon="5.99922">
        <ele>362.7</ele>
        <time>2012-05-10T13:33:49Z</time>
      </trkpt>
      <trkpt lat="46.98681" lon="5.99944">
        <ele>424.5</ele>
        <time>2012-05-10T13:33:52Z</time>
      </trkpt>
      <trkpt lat="46.98683" lon="5.99953">
        <ele>423.9</ele>
        <time>2012-05-10T13:33:56Z</time>
      </trkpt>
      <trkpt lat="46.98684" lon="5.99964">
        <ele>423.7</ele>
        <time>2012-05-10T13:34:02Z</time>
      </trkpt>
      <trkpt lat="46.98684" lon="5.99964">
        <ele>369.3</ele>
        <time>2012-05-10T13:34:14Z</time>
      </trkpt>
      <trkpt lat="46.98684" lon="5.99964">
        <ele>369.3</ele>
        <time>2012-05-10T13:34:16Z</time>
      </trkpt>
      <trkpt lat="46.98694" lon="5.99976">
        <ele>427.3</ele>
        <time>2012-05-10T13:34:21Z</time>
      </trkpt>
      <trkpt lat="46.98694" lon="5.99976">
        <ele>368.1</ele>
        <time>2012-05-10T13:34:33Z</time>
      </trkpt>
      <trkpt lat="46.98694" lon="5.99976">
        <ele>368.1</ele>
        <time>2012-05-10T13:35:52Z</time>
      </trkpt>
      <trkpt lat="46.98694" lon="5.99976">
        <ele>368.1</ele>
        <time>2012-05-10T13:36:04Z</time>
      </trkpt>
      <trkpt lat="46.98694" lon="5.99976">
        <ele>368.1</ele>
        <time>2012-05-10T13:36:32Z</time>
      </trkpt>
      <trkpt lat="46.9871" lon="5.99992">
        <ele>429.8</ele>
        <time>2012-05-10T13:36:34Z</time>
      </trkpt>
      <trkpt lat="46.98716" lon="5.99998">
        <ele>430.2</ele>
        <time>2012-05-10T13:36:40Z</time>
      </trkpt>
      <trkpt lat="46.98722" lon="6.00004">
        <ele>433.3</ele>
        <time>2012-05-10T13:36:45Z</time>
      </trkpt>
      <trkpt lat="46.98727" lon="6.0001">
        <ele>435.9</ele>
        <time>2012-05-10T13:36:50Z</time>
      </trkpt>
      <trkpt lat="46.98729" lon="6.0002">
        <ele>427.5</ele>
        <time>2012-05-10T13:37:00Z</time>
      </trkpt>
      <trkpt lat="46.98735" lon="6.00027">
        <ele>427.1</ele>
        <time>2012-05-10T13:37:07Z</time>
      </trkpt>
      <trkpt lat="46.98736" lon="6.00036">
        <ele>427.7</ele>
        <time>2012-05-10T13:37:15Z</time>
      </trkpt>
      <trkpt lat="46.98742" lon="6.00041">
        <ele>426.9</ele>
        <time>2012-05-10T13:37:20Z</time>
      </trkpt>
      <trkpt lat="46.98741" lon="6.00051">
        <ele>424.6</ele>
        <time>2012-05-10T13:37:27Z</time>
      </trkpt>
      <trkpt lat="46.98741" lon="6.00051">
        <ele>370.1</ele>
        <time>2012-05-10T13:37:39Z</time>
      </trkpt>
      <trkpt lat="46.98741" lon="6.00051">
        <ele>370.1</ele>
        <time>2012-05-10T13:40:25Z</time>
      </trkpt>
      <trkpt lat="46.98749" lon="6.00068">
        <ele>423.6</ele>
        <time>2012-05-10T13:40:29Z</time>
      </trkpt>
      <trkpt lat="46.9875" lon="6.00079">
        <ele>424.8</ele>
        <time>2012-05-10T13:40:35Z</time>
      </trkpt>
      <trkpt lat="46.98756" lon="6.00085">
        <ele>425.2</ele>
        <time>2012-05-10T13:40:40Z</time>
      </trkpt>
      <trkpt lat="46.9876" lon="6.00092">
        <ele>426</ele>
        <time>2012-05-10T13:40:44Z</time>
      </trkpt>
      <trkpt lat="46.98766" lon="6.00099">
        <ele>427.7</ele>
        <time>2012-05-10T13:40:52Z</time>
      </trkpt>
      <trkpt lat="46.98773" lon="6.00102">
        <ele>425.6</ele>
        <time>2012-05-10T13:41:03Z</time>
      </trkpt>
      <trkpt lat="46.9878" lon="6.00101">
        <ele>426.8</ele>
        <time>2012-05-10T13:41:06Z</time>
      </trkpt>
      <trkpt lat="46.98785" lon="6.00107">
        <ele>425.9</ele>
        <time>2012-05-10T13:41:13Z</time>
      </trkpt>
      <trkpt lat="46.98785" lon="6.00107">
        <ele>373.2</ele>
        <time>2012-05-10T13:41:24Z</time>
      </trkpt>
      <trkpt lat="46.98785" lon="6.00107">
        <ele>373.2</ele>
        <time>2012-05-10T13:41:28Z</time>
      </trkpt>
      <trkpt lat="46.98785" lon="6.00107">
        <ele>373.2</ele>
        <time>2012-05-10T13:41:39Z</time>
      </trkpt>
      <trkpt lat="46.98785" lon="6.00107">
        <ele>373.2</ele>
        <time>2012-05-10T13:41:43Z</time>
      </trkpt>
      <trkpt lat="46.98809" lon="6.0011">
        <ele>431.8</ele>
        <time>2012-05-10T13:41:46Z</time>
      </trkpt>
      <trkpt lat="46.98818" lon="6.00104">
        <ele>431.2</ele>
        <time>2012-05-10T13:41:52Z</time>
      </trkpt>
      <trkpt lat="46.98826" lon="6.00099">
        <ele>430.1</ele>
        <time>2012-05-10T13:42:01Z</time>
      </trkpt>
      <trkpt lat="46.98833" lon="6.00095">
        <ele>430.1</ele>
        <time>2012-05-10T13:42:04Z</time>
      </trkpt>
      <trkpt lat="46.98833" lon="6.00095">
        <ele>365.9</ele>
        <time>2012-05-10T13:43:33Z</time>
      </trkpt>
      <trkpt lat="46.98833" lon="6.00095">
        <ele>365.9</ele>
        <time>2012-05-10T13:43:45Z</time>
      </trkpt>
      <trkpt lat="46.98833" lon="6.00095">
        <ele>365.9</ele>
        <time>2012-05-10T13:43:54Z</time>
      </trkpt>
      <trkpt lat="46.98904" lon="6.00072">
        <ele>429.8</ele>
        <time>2012-05-10T13:43:55Z</time>
      </trkpt>
      <trkpt lat="46.98913" lon="6.00075">
        <ele>429.8</ele>
        <time>2012-05-10T13:43:59Z</time>
      </trkpt>
      <trkpt lat="46.9892" lon="6.00076">
        <ele>430</ele>
        <time>2012-05-10T13:44:04Z</time>
      </trkpt>
      <trkpt lat="46.98926" lon="6.00083">
        <ele>430.5</ele>
        <time>2012-05-10T13:44:07Z</time>
      </trkpt>
      <trkpt lat="46.98934" lon="6.00086">
        <ele>429.5</ele>
        <time>2012-05-10T13:44:12Z</time>
      </trkpt>
      <trkpt lat="46.98934" lon="6.00086">
        <ele>359.1</ele>
        <time>2012-05-10T13:44:24Z</time>
      </trkpt>
      <trkpt lat="46.98934" lon="6.00086">
        <ele>359.1</ele>
        <time>2012-05-10T13:44:41Z</time>
      </trkpt>
      <trkpt lat="46.98953" lon="6.0009">
        <ele>432.6</ele>
        <time>2012-05-10T13:44:43Z</time>
      </trkpt>
      <trkpt lat="46.9896" lon="6.00092">
        <ele>433.5</ele>
        <time>2012-05-10T13:44:48Z</time>
      </trkpt>
      <trkpt lat="46.9896" lon="6.00092">
        <ele>358.2</ele>
        <time>2012-05-10T13:45:00Z</time>
      </trkpt>
      <trkpt lat="46.9896" lon="6.00092">
        <ele>358.2</ele>
        <time>2012-05-10T13:45:04Z</time>
      </trkpt>
      <trkpt lat="46.98977" lon="6.00106">
        <ele>434.5</ele>
        <time>2012-05-10T13:45:07Z</time>
      </trkpt>
      <trkpt lat="46.98984" lon="6.00106">
        <ele>436.2</ele>
        <time>2012-05-10T13:45:14Z</time>
      </trkpt>
      <trkpt lat="46.98984" lon="6.00106">
        <ele>357.1</ele>
        <time>2012-05-10T13:45:26Z</time>
      </trkpt>
      <trkpt lat="46.98984" lon="6.00106">
        <ele>357.1</ele>
        <time>2012-05-10T13:45:36Z</time>
      </trkpt>
      <trkpt lat="46.98997" lon="6.0012">
        <ele>437.5</ele>
        <time>2012-05-10T13:45:39Z</time>
      </trkpt>
      <trkpt lat="46.99003" lon="6.00122">
        <ele>437.7</ele>
        <time>2012-05-10T13:45:43Z</time>
      </trkpt>
      <trkpt lat="46.9901" lon="6.00124">
        <ele>437.9</ele>
        <time>2012-05-10T13:45:45Z</time>
      </trkpt>
      <trkpt lat="46.99037" lon="6.00142">
        <ele>435.2</ele>
        <time>2012-05-10T13:45:55Z</time>
      </trkpt>
      <trkpt lat="46.99044" lon="6.00148">
        <ele>437</ele>
        <time>2012-05-10T13:45:57Z</time>
      </trkpt>
      <trkpt lat="46.99051" lon="6.00154">
        <ele>437.9</ele>
        <time>2012-05-10T13:45:59Z</time>
      </trkpt>
      <trkpt lat="46.99058" lon="6.00158">
        <ele>436.9</ele>
        <time>2012-05-10T13:46:00Z</time>
      </trkpt>
      <trkpt lat="46.99066" lon="6.00158">
        <ele>439.3</ele>
        <time>2012-05-10T13:46:02Z</time>
      </trkpt>
      <trkpt lat="46.99066" lon="6.00158">
        <ele>358.4</ele>
        <time>2012-05-10T13:46:14Z</time>
      </trkpt>
      <trkpt lat="46.99066" lon="6.00158">
        <ele>358.4</ele>
        <time>2012-05-10T13:46:18Z</time>
      </trkpt>
      <trkpt lat="46.99082" lon="6.00174">
        <ele>435.6</ele>
        <time>2012-05-10T13:46:20Z</time>
      </trkpt>
      <trkpt lat="46.99092" lon="6.00172">
        <ele>434.4</ele>
        <time>2012-05-10T13:46:31Z</time>
      </trkpt>
      <trkpt lat="46.99098" lon="6.00169">
        <ele>433.5</ele>
        <time>2012-05-10T13:46:39Z</time>
      </trkpt>
      <trkpt lat="46.99107" lon="6.00173">
        <ele>432.2</ele>
        <time>2012-05-10T13:46:44Z</time>
      </trkpt>
      <trkpt lat="46.99116" lon="6.00173">
        <ele>433.8</ele>
        <time>2012-05-10T13:46:47Z</time>
      </trkpt>
      <trkpt lat="46.99124" lon="6.00172">
        <ele>434.7</ele>
        <time>2012-05-10T13:46:53Z</time>
      </trkpt>
      <trkpt lat="46.99131" lon="6.00175">
        <ele>434.9</ele>
        <time>2012-05-10T13:47:04Z</time>
      </trkpt>
      <trkpt lat="46.99138" lon="6.00179">
        <ele>434.6</ele>
        <time>2012-05-10T13:47:07Z</time>
      </trkpt>
      <trkpt lat="46.99262" lon="6.00229">
        <ele>428.9</ele>
        <time>2012-05-10T13:49:11Z</time>
      </trkpt>
      <trkpt lat="46.99262" lon="6.00229">
        <ele>357.1</ele>
        <time>2012-05-10T13:49:23Z</time>
      </trkpt>
      <trkpt lat="46.99262" lon="6.00229">
        <ele>357.1</ele>
        <time>2012-05-10T13:49:28Z</time>
      </trkpt>
      <trkpt lat="46.99282" lon="6.00226">
        <ele>427.1</ele>
        <time>2012-05-10T13:49:32Z</time>
      </trkpt>
      <trkpt lat="46.99288" lon="6.00223">
        <ele>427.1</ele>
        <time>2012-05-10T13:49:40Z</time>
      </trkpt>
      <trkpt lat="46.99295" lon="6.00223">
        <ele>425.6</ele>
        <time>2012-05-10T13:49:48Z</time>
      </trkpt>
      <trkpt lat="46.99301" lon="6.00226">
        <ele>425.6</ele>
        <time>2012-05-10T13:49:53Z</time>
      </trkpt>
      <trkpt lat="46.99301" lon="6.00226">
        <ele>356.3</ele>
        <time>2012-05-10T13:50:05Z</time>
      </trkpt>
      <trkpt lat="46.99301" lon="6.00226">
        <ele>356.3</ele>
        <time>2012-05-10T13:50:09Z</time>
      </trkpt>
      <trkpt lat="46.99301" lon="6.00226">
        <ele>356.3</ele>
        <time>2012-05-10T13:50:21Z</time>
      </trkpt>
      <trkpt lat="46.99301" lon="6.00226">
        <ele>356.3</ele>
        <time>2012-05-10T13:53:45Z</time>
      </trkpt>
      <trkpt lat="46.99325" lon="6.0024">
        <ele>427.3</ele>
        <time>2012-05-10T13:53:48Z</time>
      </trkpt>
      <trkpt lat="46.99332" lon="6.0024">
        <ele>424.1</ele>
        <time>2012-05-10T13:53:59Z</time>
      </trkpt>
      <trkpt lat="46.99332" lon="6.0024">
        <ele>358.3</ele>
        <time>2012-05-10T13:54:11Z</time>
      </trkpt>
      <trkpt lat="46.99332" lon="6.0024">
        <ele>358.3</ele>
        <time>2012-05-10T13:54:18Z</time>
      </trkpt>
      <trkpt lat="46.99351" lon="6.00255">
        <ele>423.7</ele>
        <time>2012-05-10T13:54:20Z</time>
      </trkpt>
      <trkpt lat="46.99356" lon="6.00261">
        <ele>424.5</ele>
        <time>2012-05-10T13:54:21Z</time>
      </trkpt>
      <trkpt lat="46.99363" lon="6.00265">
        <ele>425.1</ele>
        <time>2012-05-10T13:54:24Z</time>
      </trkpt>
      <trkpt lat="46.9937" lon="6.00264">
        <ele>426</ele>
        <time>2012-05-10T13:54:28Z</time>
      </trkpt>
      <trkpt lat="46.99384" lon="6.0027">
        <ele>427.5</ele>
        <time>2012-05-10T13:54:40Z</time>
      </trkpt>
      <trkpt lat="46.9939" lon="6.00274">
        <ele>427.7</ele>
        <time>2012-05-10T13:54:42Z</time>
      </trkpt>
      <trkpt lat="46.99396" lon="6.00282">
        <ele>429.3</ele>
        <time>2012-05-10T13:54:46Z</time>
      </trkpt>
      <trkpt lat="46.99403" lon="6.00287">
        <ele>427.8</ele>
        <time>2012-05-10T13:54:48Z</time>
      </trkpt>
      <trkpt lat="46.9941" lon="6.00291">
        <ele>429.2</ele>
        <time>2012-05-10T13:54:54Z</time>
      </trkpt>
      <trkpt lat="46.99415" lon="6.00298">
        <ele>428.5</ele>
        <time>2012-05-10T13:54:58Z</time>
      </trkpt>
      <trkpt lat="46.99421" lon="6.00303">
        <ele>426.8</ele>
        <time>2012-05-10T13:55:02Z</time>
      </trkpt>
      <trkpt lat="46.99428" lon="6.00308">
        <ele>426.1</ele>
        <time>2012-05-10T13:55:04Z</time>
      </trkpt>
      <trkpt lat="46.99434" lon="6.00313">
        <ele>426.1</ele>
        <time>2012-05-10T13:55:08Z</time>
      </trkpt>
      <trkpt lat="46.99439" lon="6.00319">
        <ele>426.5</ele>
        <time>2012-05-10T13:55:12Z</time>
      </trkpt>
      <trkpt lat="46.99445" lon="6.00325">
        <ele>426.7</ele>
        <time>2012-05-10T13:55:16Z</time>
      </trkpt>
      <trkpt lat="46.99448" lon="6.00333">
        <ele>428.2</ele>
        <time>2012-05-10T13:55:23Z</time>
      </trkpt>
      <trkpt lat="46.99454" lon="6.00341">
        <ele>430.3</ele>
        <time>2012-05-10T13:55:32Z</time>
      </trkpt>
      <trkpt lat="46.99458" lon="6.00348">
        <ele>430.2</ele>
        <time>2012-05-10T13:55:38Z</time>
      </trkpt>
      <trkpt lat="46.99464" lon="6.00355">
        <ele>431.8</ele>
        <time>2012-05-10T13:55:46Z</time>
      </trkpt>
      <trkpt lat="46.99469" lon="6.00363">
        <ele>432</ele>
        <time>2012-05-10T13:55:53Z</time>
      </trkpt>
      <trkpt lat="46.99469" lon="6.00363">
        <ele>354.6</ele>
        <time>2012-05-10T13:56:05Z</time>
      </trkpt>
      <trkpt lat="46.99469" lon="6.00363">
        <ele>354.6</ele>
        <time>2012-05-10T13:56:19Z</time>
      </trkpt>
      <trkpt lat="46.99476" lon="6.00378">
        <ele>433.9</ele>
        <time>2012-05-10T13:56:25Z</time>
      </trkpt>
      <trkpt lat="46.99476" lon="6.00378">
        <ele>355.3</ele>
        <time>2012-05-10T13:56:37Z</time>
      </trkpt>
      <trkpt lat="46.99476" lon="6.00378">
        <ele>355.3</ele>
        <time>2012-05-10T13:57:04Z</time>
      </trkpt>
      <trkpt lat="46.99476" lon="6.00378">
        <ele>355.3</ele>
        <time>2012-05-10T13:57:16Z</time>
      </trkpt>
      <trkpt lat="46.99476" lon="6.00378">
        <ele>355.3</ele>
        <time>2012-05-10T13:57:28Z</time>
      </trkpt>
      <trkpt lat="46.99499" lon="6.00389">
        <ele>436.1</ele>
        <time>2012-05-10T13:57:32Z</time>
      </trkpt>
      <trkpt lat="46.99499" lon="6.00389">
        <ele>354.1</ele>
        <time>2012-05-10T13:57:44Z</time>
      </trkpt>
      <trkpt lat="46.99499" lon="6.00389">
        <ele>354.1</ele>
        <time>2012-05-10T13:57:49Z</time>
      </trkpt>
      <trkpt lat="46.99507" lon="6.00407">
        <ele>437.3</ele>
        <time>2012-05-10T13:57:53Z</time>
      </trkpt>
      <trkpt lat="46.99513" lon="6.0041">
        <ele>438.4</ele>
        <time>2012-05-10T13:57:58Z</time>
      </trkpt>
      <trkpt lat="46.99513" lon="6.0041">
        <ele>356.7</ele>
        <time>2012-05-10T13:58:10Z</time>
      </trkpt>
      <trkpt lat="46.99513" lon="6.0041">
        <ele>356.7</ele>
        <time>2012-05-10T13:58:18Z</time>
      </trkpt>
      <trkpt lat="46.99534" lon="6.00411">
        <ele>441.4</ele>
        <time>2012-05-10T13:58:27Z</time>
      </trkpt>
      <trkpt lat="46.99534" lon="6.00411">
        <ele>354.7</ele>
        <time>2012-05-10T13:58:39Z</time>
      </trkpt>
      <trkpt lat="46.99534" lon="6.00411">
        <ele>354.7</ele>
        <time>2012-05-10T13:58:46Z</time>
      </trkpt>
      <trkpt lat="46.9956" lon="6.00436">
        <ele>445.2</ele>
        <time>2012-05-10T13:58:49Z</time>
      </trkpt>
      <trkpt lat="46.99566" lon="6.00436">
        <ele>445.1</ele>
        <time>2012-05-10T13:58:51Z</time>
      </trkpt>
      <trkpt lat="46.99577" lon="6.00443">
        <ele>445.1</ele>
        <time>2012-05-10T13:58:53Z</time>
      </trkpt>
      <trkpt lat="46.99587" lon="6.00443">
        <ele>446.1</ele>
        <time>2012-05-10T13:58:55Z</time>
      </trkpt>
      <trkpt lat="46.99594" lon="6.00452">
        <ele>446.7</ele>
        <time>2012-05-10T13:58:57Z</time>
      </trkpt>
      <trkpt lat="46.99594" lon="6.00452">
        <ele>354.3</ele>
        <time>2012-05-10T13:59:09Z</time>
      </trkpt>
      <trkpt lat="46.99594" lon="6.00452">
        <ele>354.3</ele>
        <time>2012-05-10T13:59:28Z</time>
      </trkpt>
      <trkpt lat="46.99618" lon="6.00452">
        <ele>449.8</ele>
        <time>2012-05-10T13:59:30Z</time>
      </trkpt>
      <trkpt lat="46.99624" lon="6.00454">
        <ele>449.7</ele>
        <time>2012-05-10T13:59:40Z</time>
      </trkpt>
      <trkpt lat="46.9963" lon="6.00457">
        <ele>450.6</ele>
        <time>2012-05-10T13:59:43Z</time>
      </trkpt>
      <trkpt lat="46.9963" lon="6.00457">
        <ele>355.7</ele>
        <time>2012-05-10T13:59:54Z</time>
      </trkpt>
      <trkpt lat="46.9963" lon="6.00457">
        <ele>355.7</ele>
        <time>2012-05-10T14:00:33Z</time>
      </trkpt>
      <trkpt lat="46.99645" lon="6.00453">
        <ele>452.2</ele>
        <time>2012-05-10T14:00:39Z</time>
      </trkpt>
      <trkpt lat="46.99662" lon="6.00463">
        <ele>455.8</ele>
        <time>2012-05-10T14:00:42Z</time>
      </trkpt>
      <trkpt lat="46.99662" lon="6.00463">
        <ele>355.6</ele>
        <time>2012-05-10T14:00:53Z</time>
      </trkpt>
      <trkpt lat="46.99662" lon="6.00463">
        <ele>355.6</ele>
        <time>2012-05-10T14:00:56Z</time>
      </trkpt>
      <trkpt lat="46.9965" lon="6.00471">
        <ele>448.8</ele>
        <time>2012-05-10T14:00:58Z</time>
      </trkpt>
      <trkpt lat="46.99657" lon="6.0047">
        <ele>442.6</ele>
        <time>2012-05-10T14:01:09Z</time>
      </trkpt>
      <trkpt lat="46.99657" lon="6.0047">
        <ele>354.4</ele>
        <time>2012-05-10T14:01:20Z</time>
      </trkpt>
      <trkpt lat="46.99657" lon="6.0047">
        <ele>354.4</ele>
        <time>2012-05-10T14:02:09Z</time>
      </trkpt>
      <trkpt lat="46.9967" lon="6.00468">
        <ele>443.9</ele>
        <time>2012-05-10T14:02:11Z</time>
      </trkpt>
      <trkpt lat="46.99677" lon="6.00467">
        <ele>442.4</ele>
        <time>2012-05-10T14:02:15Z</time>
      </trkpt>
      <trkpt lat="46.99685" lon="6.0047">
        <ele>444.3</ele>
        <time>2012-05-10T14:02:19Z</time>
      </trkpt>
      <trkpt lat="46.99685" lon="6.0047">
        <ele>354.4</ele>
        <time>2012-05-10T14:02:31Z</time>
      </trkpt>
      <trkpt lat="46.99685" lon="6.0047">
        <ele>354.4</ele>
        <time>2012-05-10T14:02:53Z</time>
      </trkpt>
      <trkpt lat="46.99705" lon="6.00472">
        <ele>445.4</ele>
        <time>2012-05-10T14:02:54Z</time>
      </trkpt>
      <trkpt lat="46.99716" lon="6.00477">
        <ele>445.2</ele>
        <time>2012-05-10T14:02:56Z</time>
      </trkpt>
      <trkpt lat="46.99722" lon="6.00478">
        <ele>445.3</ele>
        <time>2012-05-10T14:02:58Z</time>
      </trkpt>
      <trkpt lat="46.99729" lon="6.00477">
        <ele>445.6</ele>
        <time>2012-05-10T14:03:02Z</time>
      </trkpt>
      <trkpt lat="46.99729" lon="6.00477">
        <ele>354.3</ele>
        <time>2012-05-10T14:03:14Z</time>
      </trkpt>
      <trkpt lat="46.99729" lon="6.00477">
        <ele>354.3</ele>
        <time>2012-05-10T14:03:25Z</time>
      </trkpt>
      <trkpt lat="46.99748" lon="6.00477">
        <ele>445</ele>
        <time>2012-05-10T14:03:27Z</time>
      </trkpt>
      <trkpt lat="46.99754" lon="6.00474">
        <ele>444.7</ele>
        <time>2012-05-10T14:03:30Z</time>
      </trkpt>
      <trkpt lat="46.9976" lon="6.00469">
        <ele>442.6</ele>
        <time>2012-05-10T14:03:37Z</time>
      </trkpt>
      <trkpt lat="46.9976" lon="6.00469">
        <ele>354.5</ele>
        <time>2012-05-10T14:03:49Z</time>
      </trkpt>
      <trkpt lat="46.9976" lon="6.00469">
        <ele>354.5</ele>
        <time>2012-05-10T14:03:53Z</time>
      </trkpt>
      <trkpt lat="46.99772" lon="6.00455">
        <ele>437.3</ele>
        <time>2012-05-10T14:03:57Z</time>
      </trkpt>
      <trkpt lat="46.99777" lon="6.00448">
        <ele>436.2</ele>
        <time>2012-05-10T14:04:02Z</time>
      </trkpt>
      <trkpt lat="46.99783" lon="6.00447">
        <ele>434.9</ele>
        <time>2012-05-10T14:04:09Z</time>
      </trkpt>
      <trkpt lat="46.9979" lon="6.00447">
        <ele>434</ele>
        <time>2012-05-10T14:04:10Z</time>
      </trkpt>
      <trkpt lat="46.99798" lon="6.00448">
        <ele>434</ele>
        <time>2012-05-10T14:04:13Z</time>
      </trkpt>
      <trkpt lat="46.99806" lon="6.00455">
        <ele>434</ele>
        <time>2012-05-10T14:04:15Z</time>
      </trkpt>
      <trkpt lat="46.99814" lon="6.00455">
        <ele>433</ele>
        <time>2012-05-10T14:04:19Z</time>
      </trkpt>
      <trkpt lat="46.99823" lon="6.00451">
        <ele>431</ele>
        <time>2012-05-10T14:04:24Z</time>
      </trkpt>
      <trkpt lat="46.99829" lon="6.00453">
        <ele>429.9</ele>
        <time>2012-05-10T14:04:30Z</time>
      </trkpt>
      <trkpt lat="46.9983" lon="6.00442">
        <ele>426.4</ele>
        <time>2012-05-10T14:04:39Z</time>
      </trkpt>
      <trkpt lat="46.99843" lon="6.00447">
        <ele>426.6</ele>
        <time>2012-05-10T14:04:41Z</time>
      </trkpt>
      <trkpt lat="46.99854" lon="6.00452">
        <ele>425.9</ele>
        <time>2012-05-10T14:04:42Z</time>
      </trkpt>
      <trkpt lat="46.9986" lon="6.00443">
        <ele>427.2</ele>
        <time>2012-05-10T14:04:45Z</time>
      </trkpt>
      <trkpt lat="46.99865" lon="6.00437">
        <ele>429.7</ele>
        <time>2012-05-10T14:04:53Z</time>
      </trkpt>
      <trkpt lat="46.99865" lon="6.00437">
        <ele>353.3</ele>
        <time>2012-05-10T14:05:05Z</time>
      </trkpt>
      <trkpt lat="46.99865" lon="6.00437">
        <ele>353.3</ele>
        <time>2012-05-10T14:05:24Z</time>
      </trkpt>
      <trkpt lat="46.99879" lon="6.0043">
        <ele>428.5</ele>
        <time>2012-05-10T14:05:27Z</time>
      </trkpt>
      <trkpt lat="46.99884" lon="6.00424">
        <ele>427</ele>
        <time>2012-05-10T14:05:29Z</time>
      </trkpt>
      <trkpt lat="46.99883" lon="6.00413">
        <ele>429.7</ele>
        <time>2012-05-10T14:05:31Z</time>
      </trkpt>
      <trkpt lat="46.99883" lon="6.00413">
        <ele>353.6</ele>
        <time>2012-05-10T14:05:43Z</time>
      </trkpt>
      <trkpt lat="46.99883" lon="6.00413">
        <ele>353.6</ele>
        <time>2012-05-10T14:05:53Z</time>
      </trkpt>
      <trkpt lat="46.99899" lon="6.00412">
        <ele>425.9</ele>
        <time>2012-05-10T14:05:54Z</time>
      </trkpt>
      <trkpt lat="46.99906" lon="6.00408">
        <ele>426.8</ele>
        <time>2012-05-10T14:05:56Z</time>
      </trkpt>
      <trkpt lat="46.99913" lon="6.0041">
        <ele>426.7</ele>
        <time>2012-05-10T14:05:58Z</time>
      </trkpt>
      <trkpt lat="46.99917" lon="6.00401">
        <ele>425.5</ele>
        <time>2012-05-10T14:06:02Z</time>
      </trkpt>
      <trkpt lat="46.99923" lon="6.00397">
        <ele>424.3</ele>
        <time>2012-05-10T14:06:07Z</time>
      </trkpt>
      <trkpt lat="46.99924" lon="6.00386">
        <ele>421.8</ele>
        <time>2012-05-10T14:06:12Z</time>
      </trkpt>
      <trkpt lat="46.99924" lon="6.00386">
        <ele>353.7</ele>
        <time>2012-05-10T14:06:24Z</time>
      </trkpt>
      <trkpt lat="46.99924" lon="6.00386">
        <ele>353.7</ele>
        <time>2012-05-10T14:06:25Z</time>
      </trkpt>
      <trkpt lat="46.99937" lon="6.00383">
        <ele>420.3</ele>
        <time>2012-05-10T14:06:27Z</time>
      </trkpt>
      <trkpt lat="46.99941" lon="6.00374">
        <ele>418.6</ele>
        <time>2012-05-10T14:06:31Z</time>
      </trkpt>
      <trkpt lat="46.9995" lon="6.00376">
        <ele>416.6</ele>
        <time>2012-05-10T14:06:33Z</time>
      </trkpt>
      <trkpt lat="46.99957" lon="6.00379">
        <ele>415.9</ele>
        <time>2012-05-10T14:06:37Z</time>
      </trkpt>
      <trkpt lat="46.99963" lon="6.00374">
        <ele>414.9</ele>
        <time>2012-05-10T14:06:42Z</time>
      </trkpt>
      <trkpt lat="46.99968" lon="6.00367">
        <ele>413.9</ele>
        <time>2012-05-10T14:06:46Z</time>
      </trkpt>
      <trkpt lat="46.99964" lon="6.00359">
        <ele>414.8</ele>
        <time>2012-05-10T14:06:49Z</time>
      </trkpt>
      <trkpt lat="46.99967" lon="6.00349">
        <ele>415.4</ele>
        <time>2012-05-10T14:06:59Z</time>
      </trkpt>
      <trkpt lat="46.99973" lon="6.0035">
        <ele>417.3</ele>
        <time>2012-05-10T14:07:03Z</time>
      </trkpt>
      <trkpt lat="46.99972" lon="6.00341">
        <ele>417.8</ele>
        <time>2012-05-10T14:07:09Z</time>
      </trkpt>
      <trkpt lat="46.99972" lon="6.00341">
        <ele>354.5</ele>
        <time>2012-05-10T14:07:21Z</time>
      </trkpt>
      <trkpt lat="46.99972" lon="6.00341">
        <ele>354.5</ele>
        <time>2012-05-10T14:07:22Z</time>
      </trkpt>
      <trkpt lat="46.99985" lon="6.00344">
        <ele>415.2</ele>
        <time>2012-05-10T14:07:27Z</time>
      </trkpt>
      <trkpt lat="46.99993" lon="6.00344">
        <ele>417.3</ele>
        <time>2012-05-10T14:07:29Z</time>
      </trkpt>
      <trkpt lat="47" lon="6.00346">
        <ele>419.3</ele>
        <time>2012-05-10T14:07:33Z</time>
      </trkpt>
      <trkpt lat="47" lon="6.00346">
        <ele>356.2</ele>
        <time>2012-05-10T14:07:44Z</time>
      </trkpt>
      <trkpt lat="47" lon="6.00346">
        <ele>356.2</ele>
        <time>2012-05-10T14:08:18Z</time>
      </trkpt>
      <trkpt lat="47" lon="6.00346">
        <ele>356.2</ele>
        <time>2012-05-10T14:08:30Z</time>
      </trkpt>
      <trkpt lat="47" lon="6.00346">
        <ele>356.2</ele>
        <time>2012-05-10T14:12:25Z</time>
      </trkpt>
      <trkpt lat="47.00016" lon="6.00364">
        <ele>415.3</ele>
        <time>2012-05-10T14:12:28Z</time>
      </trkpt>
      <trkpt lat="47.00016" lon="6.00364">
        <ele>359</ele>
        <time>2012-05-10T14:12:40Z</time>
      </trkpt>
      <trkpt lat="47.00016" lon="6.00364">
        <ele>359</ele>
        <time>2012-05-10T14:12:57Z</time>
      </trkpt>
      <trkpt lat="47.00001" lon="6.00363">
        <ele>413.1</ele>
        <time>2012-05-10T14:13:00Z</time>
      </trkpt>
      <trkpt lat="46.99993" lon="6.00362">
        <ele>415.3</ele>
        <time>2012-05-10T14:13:05Z</time>
      </trkpt>
      <trkpt lat="46.99987" lon="6.00364">
        <ele>416.3</ele>
        <time>2012-05-10T14:13:11Z</time>
      </trkpt>
      <trkpt lat="46.9998" lon="6.00361">
        <ele>418</ele>
        <time>2012-05-10T14:13:14Z</time>
      </trkpt>
      <trkpt lat="46.99974" lon="6.00362">
        <ele>421.3</ele>
        <time>2012-05-10T14:13:18Z</time>
      </trkpt>
      <trkpt lat="46.99981" lon="6.00366">
        <ele>424.3</ele>
        <time>2012-05-10T14:13:26Z</time>
      </trkpt>
      <trkpt lat="46.99981" lon="6.00366">
        <ele>356.8</ele>
        <time>2012-05-10T14:13:38Z</time>
      </trkpt>
      <trkpt lat="46.99981" lon="6.00366">
        <ele>356.8</ele>
        <time>2012-05-10T14:13:44Z</time>
      </trkpt>
      <trkpt lat="47.00012" lon="6.00371">
        <ele>426.3</ele>
        <time>2012-05-10T14:13:45Z</time>
      </trkpt>
      <trkpt lat="47.00007" lon="6.00378">
        <ele>427.7</ele>
        <time>2012-05-10T14:13:53Z</time>
      </trkpt>
      <trkpt lat="47.00007" lon="6.00378">
        <ele>357.4</ele>
        <time>2012-05-10T14:14:05Z</time>
      </trkpt>
      <trkpt lat="47.00007" lon="6.00378">
        <ele>357.4</ele>
        <time>2012-05-10T14:19:55Z</time>
      </trkpt>
      <trkpt lat="46.99993" lon="6.00364">
        <ele>450.1</ele>
        <time>2012-05-10T14:19:56Z</time>
      </trkpt>
      <trkpt lat="46.99986" lon="6.00364">
        <ele>453.9</ele>
        <time>2012-05-10T14:19:57Z</time>
      </trkpt>
      <trkpt lat="46.99979" lon="6.00362">
        <ele>460.6</ele>
        <time>2012-05-10T14:20:02Z</time>
      </trkpt>
      <trkpt lat="46.99979" lon="6.00362">
        <ele>355.8</ele>
        <time>2012-05-10T14:20:15Z</time>
      </trkpt>
      <trkpt lat="46.99979" lon="6.00362">
        <ele>355.8</ele>
        <time>2012-05-10T14:20:16Z</time>
      </trkpt>
      <trkpt lat="46.99983" lon="6.00354">
        <ele>476.5</ele>
        <time>2012-05-10T14:20:25Z</time>
      </trkpt>
      <trkpt lat="46.99983" lon="6.00354">
        <ele>355.5</ele>
        <time>2012-05-10T14:20:36Z</time>
      </trkpt>
      <trkpt lat="46.99983" lon="6.00354">
        <ele>355.5</ele>
        <time>2012-05-10T14:21:05Z</time>
      </trkpt>
      <trkpt lat="46.99965" lon="6.00358">
        <ele>478</ele>
        <time>2012-05-10T14:21:07Z</time>
      </trkpt>
      <trkpt lat="46.99959" lon="6.00355">
        <ele>479.5</ele>
        <time>2012-05-10T14:21:09Z</time>
      </trkpt>
      <trkpt lat="46.99952" lon="6.00352">
        <ele>481.5</ele>
        <time>2012-05-10T14:21:12Z</time>
      </trkpt>
      <trkpt lat="46.99945" lon="6.00348">
        <ele>481.5</ele>
        <time>2012-05-10T14:21:14Z</time>
      </trkpt>
      <trkpt lat="46.99941" lon="6.00356">
        <ele>484.9</ele>
        <time>2012-05-10T14:21:25Z</time>
      </trkpt>
      <trkpt lat="46.99932" lon="6.00352">
        <ele>484.4</ele>
        <time>2012-05-10T14:21:31Z</time>
      </trkpt>
      <trkpt lat="46.99926" lon="6.00347">
        <ele>492.6</ele>
        <time>2012-05-10T14:21:37Z</time>
      </trkpt>
      <trkpt lat="46.99918" lon="6.00338">
        <ele>501.1</ele>
        <time>2012-05-10T14:21:40Z</time>
      </trkpt>
      <trkpt lat="46.99918" lon="6.00338">
        <ele>356.4</ele>
        <time>2012-05-10T14:21:51Z</time>
      </trkpt>
      <trkpt lat="46.99918" lon="6.00338">
        <ele>356.4</ele>
        <time>2012-05-10T14:22:29Z</time>
      </trkpt>
      <trkpt lat="46.99918" lon="6.00338">
        <ele>356.4</ele>
        <time>2012-05-10T14:22:41Z</time>
      </trkpt>
      <trkpt lat="46.99918" lon="6.00338">
        <ele>356.4</ele>
        <time>2012-05-10T14:23:48Z</time>
      </trkpt>
      <trkpt lat="46.99899" lon="6.00309">
        <ele>509.2</ele>
        <time>2012-05-10T14:23:50Z</time>
      </trkpt>
      <trkpt lat="46.99905" lon="6.00307">
        <ele>512.2</ele>
        <time>2012-05-10T14:23:54Z</time>
      </trkpt>
      <trkpt lat="46.99912" lon="6.00311">
        <ele>512.7</ele>
        <time>2012-05-10T14:24:00Z</time>
      </trkpt>
      <trkpt lat="46.99921" lon="6.00319">
        <ele>511.9</ele>
        <time>2012-05-10T14:24:02Z</time>
      </trkpt>
      <trkpt lat="46.99921" lon="6.00319">
        <ele>359.5</ele>
        <time>2012-05-10T14:24:14Z</time>
      </trkpt>
      <trkpt lat="46.99921" lon="6.00319">
        <ele>359.5</ele>
        <time>2012-05-10T14:24:47Z</time>
      </trkpt>
      <trkpt lat="46.99937" lon="6.00342">
        <ele>501.4</ele>
        <time>2012-05-10T14:24:49Z</time>
      </trkpt>
      <trkpt lat="46.99934" lon="6.00357">
        <ele>500.4</ele>
        <time>2012-05-10T14:24:56Z</time>
      </trkpt>
      <trkpt lat="46.99928" lon="6.00365">
        <ele>498.9</ele>
        <time>2012-05-10T14:25:00Z</time>
      </trkpt>
      <trkpt lat="46.99928" lon="6.00365">
        <ele>353.6</ele>
        <time>2012-05-10T14:25:12Z</time>
      </trkpt>
      <trkpt lat="46.99928" lon="6.00365">
        <ele>353.6</ele>
        <time>2012-05-10T14:25:51Z</time>
      </trkpt>
      <trkpt lat="46.99934" lon="6.00386">
        <ele>495.5</ele>
        <time>2012-05-10T14:25:56Z</time>
      </trkpt>
      <trkpt lat="46.9994" lon="6.00389">
        <ele>489.9</ele>
        <time>2012-05-10T14:25:59Z</time>
      </trkpt>
      <trkpt lat="46.99936" lon="6.00396">
        <ele>488.2</ele>
        <time>2012-05-10T14:26:08Z</time>
      </trkpt>
      <trkpt lat="46.99936" lon="6.00386">
        <ele>486.6</ele>
        <time>2012-05-10T14:26:15Z</time>
      </trkpt>
      <trkpt lat="46.99933" lon="6.00377">
        <ele>486.8</ele>
        <time>2012-05-10T14:26:19Z</time>
      </trkpt>
      <trkpt lat="46.99926" lon="6.00373">
        <ele>486.2</ele>
        <time>2012-05-10T14:26:21Z</time>
      </trkpt>
      <trkpt lat="46.9992" lon="6.00365">
        <ele>486.6</ele>
        <time>2012-05-10T14:26:24Z</time>
      </trkpt>
      <trkpt lat="46.9992" lon="6.00365">
        <ele>353.9</ele>
        <time>2012-05-10T14:26:36Z</time>
      </trkpt>
      <trkpt lat="46.9992" lon="6.00365">
        <ele>353.9</ele>
        <time>2012-05-10T14:31:30Z</time>
      </trkpt>
      <trkpt lat="46.9992" lon="6.00365">
        <ele>353.9</ele>
        <time>2012-05-10T14:31:42Z</time>
      </trkpt>
      <trkpt lat="46.9992" lon="6.00365">
        <ele>353.9</ele>
        <time>2012-05-10T14:38:03Z</time>
      </trkpt>
      <trkpt lat="46.9992" lon="6.00365">
        <ele>353.9</ele>
        <time>2012-05-10T14:38:14Z</time>
      </trkpt>
      <trkpt lat="46.9992" lon="6.00365">
        <ele>353.9</ele>
        <time>2012-05-10T14:39:11Z</time>
      </trkpt>
      <trkpt lat="46.99948" lon="6.00384">
        <ele>486.8</ele>
        <time>2012-05-10T14:39:14Z</time>
      </trkpt>
      <trkpt lat="46.99953" lon="6.00394">
        <ele>489.2</ele>
        <time>2012-05-10T14:39:18Z</time>
      </trkpt>
      <trkpt lat="46.99956" lon="6.00409">
        <ele>491.3</ele>
        <time>2012-05-10T14:39:23Z</time>
      </trkpt>
      <trkpt lat="46.99962" lon="6.00413">
        <ele>491.3</ele>
        <time>2012-05-10T14:39:26Z</time>
      </trkpt>
      <trkpt lat="46.99958" lon="6.00423">
        <ele>494.5</ele>
        <time>2012-05-10T14:39:34Z</time>
      </trkpt>
      <trkpt lat="46.99959" lon="6.00433">
        <ele>500.1</ele>
        <time>2012-05-10T14:39:40Z</time>
      </trkpt>
      <trkpt lat="46.99967" lon="6.00434">
        <ele>503</ele>
        <time>2012-05-10T14:39:48Z</time>
      </trkpt>
      <trkpt lat="46.99964" lon="6.00444">
        <ele>504.2</ele>
        <time>2012-05-10T14:39:54Z</time>
      </trkpt>
      <trkpt lat="46.99958" lon="6.00453">
        <ele>507.2</ele>
        <time>2012-05-10T14:39:58Z</time>
      </trkpt>
      <trkpt lat="46.99953" lon="6.0046">
        <ele>506.8</ele>
        <time>2012-05-10T14:40:00Z</time>
      </trkpt>
      <trkpt lat="46.99959" lon="6.00464">
        <ele>506.3</ele>
        <time>2012-05-10T14:40:07Z</time>
      </trkpt>
      <trkpt lat="46.99963" lon="6.00474">
        <ele>509.2</ele>
        <time>2012-05-10T14:40:11Z</time>
      </trkpt>
      <trkpt lat="46.99969" lon="6.00479">
        <ele>507.9</ele>
        <time>2012-05-10T14:40:15Z</time>
      </trkpt>
      <trkpt lat="46.99976" lon="6.00484">
        <ele>507.4</ele>
        <time>2012-05-10T14:40:21Z</time>
      </trkpt>
      <trkpt lat="46.99958" lon="6.00604">
        <ele>546.8</ele>
        <time>2012-05-10T14:41:28Z</time>
      </trkpt>
      <trkpt lat="46.99959" lon="6.00614">
        <ele>550.5</ele>
        <time>2012-05-10T14:41:38Z</time>
      </trkpt>
      <trkpt lat="46.99964" lon="6.00621">
        <ele>552.4</ele>
        <time>2012-05-10T14:41:43Z</time>
      </trkpt>
      <trkpt lat="46.9997" lon="6.00622">
        <ele>554.1</ele>
        <time>2012-05-10T14:41:46Z</time>
      </trkpt>
      <trkpt lat="46.99969" lon="6.00634">
        <ele>553.3</ele>
        <time>2012-05-10T14:41:50Z</time>
      </trkpt>
      <trkpt lat="46.99963" lon="6.00646">
        <ele>554.7</ele>
        <time>2012-05-10T14:41:55Z</time>
      </trkpt>
      <trkpt lat="46.99967" lon="6.00653">
        <ele>554.8</ele>
        <time>2012-05-10T14:42:00Z</time>
      </trkpt>
      <trkpt lat="46.99964" lon="6.00664">
        <ele>559.1</ele>
        <time>2012-05-10T14:42:11Z</time>
      </trkpt>
      <trkpt lat="46.99962" lon="6.00676">
        <ele>561</ele>
        <time>2012-05-10T14:42:14Z</time>
      </trkpt>
      <trkpt lat="46.99969" lon="6.00673">
        <ele>558.1</ele>
        <time>2012-05-10T14:42:18Z</time>
      </trkpt>
      <trkpt lat="46.99967" lon="6.00682">
        <ele>560.2</ele>
        <time>2012-05-10T14:42:21Z</time>
      </trkpt>
      <trkpt lat="46.99968" lon="6.00691">
        <ele>561.8</ele>
        <time>2012-05-10T14:42:30Z</time>
      </trkpt>
      <trkpt lat="46.99974" lon="6.00696">
        <ele>560.3</ele>
        <time>2012-05-10T14:42:40Z</time>
      </trkpt>
      <trkpt lat="46.9998" lon="6.00701">
        <ele>559.7</ele>
        <time>2012-05-10T14:42:45Z</time>
      </trkpt>
      <trkpt lat="46.99978" lon="6.00713">
        <ele>561.8</ele>
        <time>2012-05-10T14:42:50Z</time>
      </trkpt>
      <trkpt lat="46.99978" lon="6.00713">
        <ele>430.4</ele>
        <time>2012-05-10T14:43:02Z</time>
      </trkpt>
      <trkpt lat="46.99978" lon="6.00713">
        <ele>430.4</ele>
        <time>2012-05-10T14:43:06Z</time>
      </trkpt>
      <trkpt lat="46.99975" lon="6.00731">
        <ele>564.6</ele>
        <time>2012-05-10T14:43:10Z</time>
      </trkpt>
      <trkpt lat="46.99975" lon="6.0074">
        <ele>569.5</ele>
        <time>2012-05-10T14:43:16Z</time>
      </trkpt>
      <trkpt lat="46.99975" lon="6.0075">
        <ele>572</ele>
        <time>2012-05-10T14:43:21Z</time>
      </trkpt>
      <trkpt lat="46.99983" lon="6.00755">
        <ele>571.2</ele>
        <time>2012-05-10T14:43:26Z</time>
      </trkpt>
      <trkpt lat="46.99985" lon="6.00764">
        <ele>571.9</ele>
        <time>2012-05-10T14:43:32Z</time>
      </trkpt>
      <trkpt lat="46.99993" lon="6.00762">
        <ele>573.2</ele>
        <time>2012-05-10T14:43:38Z</time>
      </trkpt>
      <trkpt lat="46.99998" lon="6.00767">
        <ele>572.4</ele>
        <time>2012-05-10T14:43:44Z</time>
      </trkpt>
      <trkpt lat="46.99999" lon="6.00777">
        <ele>570.4</ele>
        <time>2012-05-10T14:43:53Z</time>
      </trkpt>
      <trkpt lat="47" lon="6.00786">
        <ele>572.7</ele>
        <time>2012-05-10T14:43:59Z</time>
      </trkpt>
      <trkpt lat="46.99997" lon="6.00797">
        <ele>576.8</ele>
        <time>2012-05-10T14:44:04Z</time>
      </trkpt>
      <trkpt lat="47.00004" lon="6.00796">
        <ele>577.9</ele>
        <time>2012-05-10T14:44:10Z</time>
      </trkpt>
      <trkpt lat="47.00007" lon="6.00804">
        <ele>580.8</ele>
        <time>2012-05-10T14:44:15Z</time>
      </trkpt>
      <trkpt lat="47.0001" lon="6.00815">
        <ele>583.1</ele>
        <time>2012-05-10T14:44:21Z</time>
      </trkpt>
      <trkpt lat="47.00006" lon="6.00825">
        <ele>584.3</ele>
        <time>2012-05-10T14:44:25Z</time>
      </trkpt>
      <trkpt lat="47.00001" lon="6.00833">
        <ele>583.4</ele>
        <time>2012-05-10T14:44:29Z</time>
      </trkpt>
      <trkpt lat="46.99998" lon="6.00841">
        <ele>584.6</ele>
        <time>2012-05-10T14:44:34Z</time>
      </trkpt>
      <trkpt lat="46.99996" lon="6.00852">
        <ele>585.1</ele>
        <time>2012-05-10T14:44:40Z</time>
      </trkpt>
      <trkpt lat="47.00004" lon="6.00851">
        <ele>585.6</ele>
        <time>2012-05-10T14:44:43Z</time>
      </trkpt>
      <trkpt lat="47.00003" lon="6.00861">
        <ele>586.2</ele>
        <time>2012-05-10T14:44:47Z</time>
      </trkpt>
      <trkpt lat="47.00004" lon="6.00871">
        <ele>586.9</ele>
        <time>2012-05-10T14:44:51Z</time>
      </trkpt>
      <trkpt lat="47.00003" lon="6.00881">
        <ele>590.8</ele>
        <time>2012-05-10T14:44:54Z</time>
      </trkpt>
      <trkpt lat="47.00012" lon="6.00878">
        <ele>592.4</ele>
        <time>2012-05-10T14:44:58Z</time>
      </trkpt>
      <trkpt lat="47.00006" lon="6.00885">
        <ele>592.4</ele>
        <time>2012-05-10T14:45:04Z</time>
      </trkpt>
      <trkpt lat="47.00005" lon="6.00895">
        <ele>590.4</ele>
        <time>2012-05-10T14:45:12Z</time>
      </trkpt>
      <trkpt lat="47.00002" lon="6.00905">
        <ele>592.1</ele>
        <time>2012-05-10T14:45:14Z</time>
      </trkpt>
      <trkpt lat="47.00001" lon="6.00915">
        <ele>595.5</ele>
        <time>2012-05-10T14:45:20Z</time>
      </trkpt>
      <trkpt lat="47.00001" lon="6.00925">
        <ele>594.7</ele>
        <time>2012-05-10T14:45:25Z</time>
      </trkpt>
      <trkpt lat="47.00009" lon="6.00922">
        <ele>592.5</ele>
        <time>2012-05-10T14:45:32Z</time>
      </trkpt>
      <trkpt lat="47.00016" lon="6.00913">
        <ele>591.6</ele>
        <time>2012-05-10T14:45:35Z</time>
      </trkpt>
      <trkpt lat="47.00016" lon="6.00926">
        <ele>590.4</ele>
        <time>2012-05-10T14:45:41Z</time>
      </trkpt>
      <trkpt lat="47.00016" lon="6.00936">
        <ele>589.6</ele>
        <time>2012-05-10T14:45:46Z</time>
      </trkpt>
      <trkpt lat="47.0002" lon="6.00944">
        <ele>591.5</ele>
        <time>2012-05-10T14:45:49Z</time>
      </trkpt>
      <trkpt lat="47.00029" lon="6.00946">
        <ele>592.3</ele>
        <time>2012-05-10T14:45:55Z</time>
      </trkpt>
      <trkpt lat="47.00027" lon="6.00958">
        <ele>595.4</ele>
        <time>2012-05-10T14:46:00Z</time>
      </trkpt>
      <trkpt lat="47.0003" lon="6.00967">
        <ele>596.6</ele>
        <time>2012-05-10T14:46:06Z</time>
      </trkpt>
      <trkpt lat="47.0003" lon="6.00967">
        <ele>445.9</ele>
        <time>2012-05-10T14:46:18Z</time>
      </trkpt>
      <trkpt lat="47.0003" lon="6.00967">
        <ele>445.9</ele>
        <time>2012-05-10T14:46:18Z</time>
      </trkpt>
      <trkpt lat="47.00037" lon="6.00978">
        <ele>590.6</ele>
        <time>2012-05-10T14:46:23Z</time>
      </trkpt>
      <trkpt lat="47.00038" lon="6.00988">
        <ele>588.2</ele>
        <time>2012-05-10T14:46:32Z</time>
      </trkpt>
      <trkpt lat="47.00037" lon="6.00999">
        <ele>585.3</ele>
        <time>2012-05-10T14:46:41Z</time>
      </trkpt>
      <trkpt lat="47.00037" lon="6.01009">
        <ele>585.1</ele>
        <time>2012-05-10T14:46:52Z</time>
      </trkpt>
      <trkpt lat="47.00044" lon="6.01008">
        <ele>583.2</ele>
        <time>2012-05-10T14:46:57Z</time>
      </trkpt>
      <trkpt lat="47.00042" lon="6.01018">
        <ele>579.9</ele>
        <time>2012-05-10T14:47:03Z</time>
      </trkpt>
      <trkpt lat="47.00036" lon="6.01021">
        <ele>580.5</ele>
        <time>2012-05-10T14:47:05Z</time>
      </trkpt>
      <trkpt lat="47.00036" lon="6.01021">
        <ele>441.8</ele>
        <time>2012-05-10T14:47:17Z</time>
      </trkpt>
      <trkpt lat="47.00036" lon="6.01021">
        <ele>441.8</ele>
        <time>2012-05-10T14:47:18Z</time>
      </trkpt>
      <trkpt lat="47.00047" lon="6.01031">
        <ele>572.1</ele>
        <time>2012-05-10T14:47:22Z</time>
      </trkpt>
      <trkpt lat="47.00051" lon="6.01038">
        <ele>572.3</ele>
        <time>2012-05-10T14:47:29Z</time>
      </trkpt>
      <trkpt lat="47.00045" lon="6.01048">
        <ele>570.5</ele>
        <time>2012-05-10T14:47:35Z</time>
      </trkpt>
      <trkpt lat="47.00041" lon="6.01057">
        <ele>569.6</ele>
        <time>2012-05-10T14:47:42Z</time>
      </trkpt>
      <trkpt lat="47.00042" lon="6.01068">
        <ele>565.6</ele>
        <time>2012-05-10T14:47:51Z</time>
      </trkpt>
      <trkpt lat="47.00042" lon="6.01078">
        <ele>563.7</ele>
        <time>2012-05-10T14:47:58Z</time>
      </trkpt>
      <trkpt lat="47.0005" lon="6.0107">
        <ele>557.5</ele>
        <time>2012-05-10T14:48:05Z</time>
      </trkpt>
      <trkpt lat="47.00045" lon="6.01078">
        <ele>556.2</ele>
        <time>2012-05-10T14:48:12Z</time>
      </trkpt>
      <trkpt lat="47.00048" lon="6.01088">
        <ele>554.8</ele>
        <time>2012-05-10T14:48:19Z</time>
      </trkpt>
      <trkpt lat="47.00048" lon="6.01088">
        <ele>431.8</ele>
        <time>2012-05-10T14:48:31Z</time>
      </trkpt>
      <trkpt lat="47.00048" lon="6.01088">
        <ele>431.8</ele>
        <time>2012-05-10T14:48:32Z</time>
      </trkpt>
      <trkpt lat="47.00047" lon="6.01108">
        <ele>540.6</ele>
        <time>2012-05-10T14:48:36Z</time>
      </trkpt>
      <trkpt lat="47.00046" lon="6.01118">
        <ele>540</ele>
        <time>2012-05-10T14:48:42Z</time>
      </trkpt>
      <trkpt lat="47.00046" lon="6.01118">
        <ele>433.6</ele>
        <time>2012-05-10T14:48:54Z</time>
      </trkpt>
      <trkpt lat="47.00046" lon="6.01118">
        <ele>433.6</ele>
        <time>2012-05-10T14:49:03Z</time>
      </trkpt>
      <trkpt lat="47.00032" lon="6.01118">
        <ele>524.4</ele>
        <time>2012-05-10T14:49:06Z</time>
      </trkpt>
      <trkpt lat="47.00026" lon="6.01126">
        <ele>523.1</ele>
        <time>2012-05-10T14:49:14Z</time>
      </trkpt>
      <trkpt lat="47.00027" lon="6.01137">
        <ele>520.4</ele>
        <time>2012-05-10T14:49:19Z</time>
      </trkpt>
      <trkpt lat="47.00023" lon="6.01145">
        <ele>517.1</ele>
        <time>2012-05-10T14:49:22Z</time>
      </trkpt>
      <trkpt lat="47.00021" lon="6.01154">
        <ele>516</ele>
        <time>2012-05-10T14:49:25Z</time>
      </trkpt>
      <trkpt lat="47.00018" lon="6.01163">
        <ele>514.1</ele>
        <time>2012-05-10T14:49:34Z</time>
      </trkpt>
      <trkpt lat="47.00013" lon="6.01172">
        <ele>514.8</ele>
        <time>2012-05-10T14:49:39Z</time>
      </trkpt>
      <trkpt lat="47.00011" lon="6.01183">
        <ele>514.4</ele>
        <time>2012-05-10T14:49:45Z</time>
      </trkpt>
      <trkpt lat="47.00005" lon="6.01191">
        <ele>514.2</ele>
        <time>2012-05-10T14:49:48Z</time>
      </trkpt>
      <trkpt lat="47.00005" lon="6.01191">
        <ele>461.8</ele>
        <time>2012-05-10T14:50:00Z</time>
      </trkpt>
      <trkpt lat="47.00005" lon="6.01191">
        <ele>461.8</ele>
        <time>2012-05-10T14:50:02Z</time>
      </trkpt>
      <trkpt lat="47.00008" lon="6.01212">
        <ele>513.8</ele>
        <time>2012-05-10T14:50:08Z</time>
      </trkpt>
      <trkpt lat="47.00009" lon="6.01227">
        <ele>508.8</ele>
        <time>2012-05-10T14:50:10Z</time>
      </trkpt>
      <trkpt lat="47.00009" lon="6.01227">
        <ele>461.1</ele>
        <time>2012-05-10T14:50:22Z</time>
      </trkpt>
      <trkpt lat="47.00009" lon="6.01227">
        <ele>461.1</ele>
        <time>2012-05-10T14:50:24Z</time>
      </trkpt>
      <trkpt lat="47.00059" lon="6.01426">
        <ele>503.8</ele>
        <time>2012-05-10T14:52:28Z</time>
      </trkpt>
      <trkpt lat="47.00059" lon="6.01436">
        <ele>506.6</ele>
        <time>2012-05-10T14:52:34Z</time>
      </trkpt>
      <trkpt lat="47.00062" lon="6.01445">
        <ele>508.4</ele>
        <time>2012-05-10T14:52:38Z</time>
      </trkpt>
      <trkpt lat="47.00062" lon="6.01445">
        <ele>460.3</ele>
        <time>2012-05-10T14:52:50Z</time>
      </trkpt>
      <trkpt lat="47.00062" lon="6.01445">
        <ele>460.3</ele>
        <time>2012-05-10T14:52:50Z</time>
      </trkpt>
      <trkpt lat="47.00065" lon="6.01458">
        <ele>514.9</ele>
        <time>2012-05-10T14:52:53Z</time>
      </trkpt>
      <trkpt lat="47.00061" lon="6.01471">
        <ele>518.4</ele>
        <time>2012-05-10T14:53:04Z</time>
      </trkpt>
      <trkpt lat="47.00066" lon="6.01479">
        <ele>522.7</ele>
        <time>2012-05-10T14:53:12Z</time>
      </trkpt>
      <trkpt lat="47.00069" lon="6.01488">
        <ele>526.2</ele>
        <time>2012-05-10T14:53:19Z</time>
      </trkpt>
      <trkpt lat="47.00073" lon="6.01495">
        <ele>527</ele>
        <time>2012-05-10T14:53:28Z</time>
      </trkpt>
      <trkpt lat="47.0008" lon="6.01494">
        <ele>525.3</ele>
        <time>2012-05-10T14:53:35Z</time>
      </trkpt>
      <trkpt lat="47.00084" lon="6.015">
        <ele>527.2</ele>
        <time>2012-05-10T14:53:40Z</time>
      </trkpt>
      <trkpt lat="47.00084" lon="6.01513">
        <ele>529</ele>
        <time>2012-05-10T14:53:44Z</time>
      </trkpt>
      <trkpt lat="47.00083" lon="6.01525">
        <ele>531.3</ele>
        <time>2012-05-10T14:53:49Z</time>
      </trkpt>
      <trkpt lat="47.00074" lon="6.0153">
        <ele>532.4</ele>
        <time>2012-05-10T14:53:53Z</time>
      </trkpt>
      <trkpt lat="47.00069" lon="6.01537">
        <ele>531.9</ele>
        <time>2012-05-10T14:53:55Z</time>
      </trkpt>
      <trkpt lat="47.00064" lon="6.01543">
        <ele>531.5</ele>
        <time>2012-05-10T14:54:03Z</time>
      </trkpt>
      <trkpt lat="47.0007" lon="6.01536">
        <ele>531.8</ele>
        <time>2012-05-10T14:54:08Z</time>
      </trkpt>
      <trkpt lat="47.00069" lon="6.01549">
        <ele>529.7</ele>
        <time>2012-05-10T14:54:12Z</time>
      </trkpt>
      <trkpt lat="47.00075" lon="6.01549">
        <ele>526.8</ele>
        <time>2012-05-10T14:54:17Z</time>
      </trkpt>
      <trkpt lat="47.0007" lon="6.01558">
        <ele>522.2</ele>
        <time>2012-05-10T14:54:21Z</time>
      </trkpt>
      <trkpt lat="47.00065" lon="6.01565">
        <ele>519.9</ele>
        <time>2012-05-10T14:54:26Z</time>
      </trkpt>
      <trkpt lat="47.00065" lon="6.01565">
        <ele>487.3</ele>
        <time>2012-05-10T14:54:38Z</time>
      </trkpt>
      <trkpt lat="47.00065" lon="6.01565">
        <ele>487.3</ele>
        <time>2012-05-10T14:54:38Z</time>
      </trkpt>
      <trkpt lat="47.00077" lon="6.01575">
        <ele>513.4</ele>
        <time>2012-05-10T14:54:43Z</time>
      </trkpt>
      <trkpt lat="47.00077" lon="6.01575">
        <ele>478.6</ele>
        <time>2012-05-10T14:54:55Z</time>
      </trkpt>
      <trkpt lat="47.00077" lon="6.01575">
        <ele>478.6</ele>
        <time>2012-05-10T14:54:58Z</time>
      </trkpt>
      <trkpt lat="47.00083" lon="6.01594">
        <ele>504.6</ele>
        <time>2012-05-10T14:55:03Z</time>
      </trkpt>
      <trkpt lat="47.00084" lon="6.01603">
        <ele>505.2</ele>
        <time>2012-05-10T14:55:07Z</time>
      </trkpt>
      <trkpt lat="47.00089" lon="6.01609">
        <ele>504.1</ele>
        <time>2012-05-10T14:55:10Z</time>
      </trkpt>
      <trkpt lat="47.00086" lon="6.01619">
        <ele>504.5</ele>
        <time>2012-05-10T14:55:12Z</time>
      </trkpt>
      <trkpt lat="47.00085" lon="6.01631">
        <ele>505.4</ele>
        <time>2012-05-10T14:55:17Z</time>
      </trkpt>
      <trkpt lat="47.00081" lon="6.01641">
        <ele>505.1</ele>
        <time>2012-05-10T14:55:21Z</time>
      </trkpt>
      <trkpt lat="47.00088" lon="6.01639">
        <ele>506.6</ele>
        <time>2012-05-10T14:55:23Z</time>
      </trkpt>
      <trkpt lat="47.00087" lon="6.01652">
        <ele>507.8</ele>
        <time>2012-05-10T14:55:28Z</time>
      </trkpt>
      <trkpt lat="47.00092" lon="6.01659">
        <ele>508.1</ele>
        <time>2012-05-10T14:55:32Z</time>
      </trkpt>
      <trkpt lat="47.001" lon="6.01663">
        <ele>508.7</ele>
        <time>2012-05-10T14:55:36Z</time>
      </trkpt>
      <trkpt lat="47.00106" lon="6.01668">
        <ele>509.8</ele>
        <time>2012-05-10T14:55:40Z</time>
      </trkpt>
      <trkpt lat="47.00103" lon="6.01677">
        <ele>510.1</ele>
        <time>2012-05-10T14:55:44Z</time>
      </trkpt>
      <trkpt lat="47.00099" lon="6.01686">
        <ele>510.6</ele>
        <time>2012-05-10T14:55:50Z</time>
      </trkpt>
      <trkpt lat="47.00099" lon="6.01697">
        <ele>515.7</ele>
        <time>2012-05-10T14:55:59Z</time>
      </trkpt>
      <trkpt lat="47.00104" lon="6.01702">
        <ele>519.4</ele>
        <time>2012-05-10T14:56:05Z</time>
      </trkpt>
      <trkpt lat="47.00101" lon="6.01711">
        <ele>519.9</ele>
        <time>2012-05-10T14:56:09Z</time>
      </trkpt>
      <trkpt lat="47.00099" lon="6.01722">
        <ele>520.9</ele>
        <time>2012-05-10T14:56:14Z</time>
      </trkpt>
      <trkpt lat="47.00099" lon="6.01732">
        <ele>522.2</ele>
        <time>2012-05-10T14:56:21Z</time>
      </trkpt>
      <trkpt lat="47.00107" lon="6.01735">
        <ele>523.8</ele>
        <time>2012-05-10T14:56:25Z</time>
      </trkpt>
      <trkpt lat="47.00116" lon="6.01734">
        <ele>524.6</ele>
        <time>2012-05-10T14:56:31Z</time>
      </trkpt>
      <trkpt lat="47.00122" lon="6.01729">
        <ele>524.4</ele>
        <time>2012-05-10T14:56:34Z</time>
      </trkpt>
      <trkpt lat="47.00129" lon="6.0173">
        <ele>523.6</ele>
        <time>2012-05-10T14:56:38Z</time>
      </trkpt>
      <trkpt lat="47.00128" lon="6.0174">
        <ele>524.2</ele>
        <time>2012-05-10T14:56:44Z</time>
      </trkpt>
      <trkpt lat="47.00123" lon="6.01747">
        <ele>525.2</ele>
        <time>2012-05-10T14:56:46Z</time>
      </trkpt>
      <trkpt lat="47.00113" lon="6.0175">
        <ele>528.4</ele>
        <time>2012-05-10T14:56:50Z</time>
      </trkpt>
      <trkpt lat="47.00109" lon="6.0176">
        <ele>530.7</ele>
        <time>2012-05-10T14:56:52Z</time>
      </trkpt>
      <trkpt lat="47.00104" lon="6.0177">
        <ele>532.1</ele>
        <time>2012-05-10T14:56:54Z</time>
      </trkpt>
      <trkpt lat="47.00106" lon="6.01776">
        <ele>531.2</ele>
        <time>2012-05-10T14:57:00Z</time>
      </trkpt>
      <trkpt lat="47.00106" lon="6.01776">
        <ele>499.7</ele>
        <time>2012-05-10T14:57:12Z</time>
      </trkpt>
      <trkpt lat="47.00106" lon="6.01776">
        <ele>499.7</ele>
        <time>2012-05-10T14:57:14Z</time>
      </trkpt>
      <trkpt lat="47.00097" lon="6.01793">
        <ele>533</ele>
        <time>2012-05-10T14:57:17Z</time>
      </trkpt>
      <trkpt lat="47.00098" lon="6.01803">
        <ele>534.7</ele>
        <time>2012-05-10T14:57:23Z</time>
      </trkpt>
      <trkpt lat="47.00104" lon="6.01798">
        <ele>531.6</ele>
        <time>2012-05-10T14:57:27Z</time>
      </trkpt>
      <trkpt lat="47.001" lon="6.01806">
        <ele>526.2</ele>
        <time>2012-05-10T14:57:33Z</time>
      </trkpt>
      <trkpt lat="47.00107" lon="6.01808">
        <ele>521</ele>
        <time>2012-05-10T14:57:38Z</time>
      </trkpt>
      <trkpt lat="47.00115" lon="6.01803">
        <ele>515.9</ele>
        <time>2012-05-10T14:57:44Z</time>
      </trkpt>
      <trkpt lat="47.00115" lon="6.01803">
        <ele>497</ele>
        <time>2012-05-10T14:57:55Z</time>
      </trkpt>
      <trkpt lat="47.00115" lon="6.01803">
        <ele>497</ele>
        <time>2012-05-10T14:58:07Z</time>
      </trkpt>
      <trkpt lat="47.00116" lon="6.01822">
        <ele>491.3</ele>
        <time>2012-05-10T14:58:17Z</time>
      </trkpt>
      <trkpt lat="47.00122" lon="6.01826">
        <ele>489.9</ele>
        <time>2012-05-10T14:58:27Z</time>
      </trkpt>
      <trkpt lat="47.00122" lon="6.01826">
        <ele>496.2</ele>
        <time>2012-05-10T14:58:39Z</time>
      </trkpt>
      <trkpt lat="47.00122" lon="6.01826">
        <ele>496.2</ele>
        <time>2012-05-10T14:59:34Z</time>
      </trkpt>
      <trkpt lat="47.00131" lon="6.0184">
        <ele>486.8</ele>
        <time>2012-05-10T14:59:36Z</time>
      </trkpt>
      <trkpt lat="47.00135" lon="6.01849">
        <ele>485.1</ele>
        <time>2012-05-10T14:59:38Z</time>
      </trkpt>
      <trkpt lat="47.00136" lon="6.01859">
        <ele>482.9</ele>
        <time>2012-05-10T14:59:40Z</time>
      </trkpt>
      <trkpt lat="47.00135" lon="6.0187">
        <ele>482.6</ele>
        <time>2012-05-10T14:59:42Z</time>
      </trkpt>
      <trkpt lat="47.00139" lon="6.01878">
        <ele>481.7</ele>
        <time>2012-05-10T14:59:44Z</time>
      </trkpt>
      <trkpt lat="47.00142" lon="6.01887">
        <ele>480</ele>
        <time>2012-05-10T14:59:46Z</time>
      </trkpt>
      <trkpt lat="47.00142" lon="6.01899">
        <ele>479.8</ele>
        <time>2012-05-10T14:59:48Z</time>
      </trkpt>
      <trkpt lat="47.00146" lon="6.01906">
        <ele>479.5</ele>
        <time>2012-05-10T14:59:51Z</time>
      </trkpt>
      <trkpt lat="47.00149" lon="6.01917">
        <ele>480.6</ele>
        <time>2012-05-10T14:59:54Z</time>
      </trkpt>
      <trkpt lat="47.00151" lon="6.01927">
        <ele>480.6</ele>
        <time>2012-05-10T14:59:57Z</time>
      </trkpt>
      <trkpt lat="47.00148" lon="6.01936">
        <ele>481.5</ele>
        <time>2012-05-10T14:59:59Z</time>
      </trkpt>
      <trkpt lat="47.00152" lon="6.01943">
        <ele>484.2</ele>
        <time>2012-05-10T15:00:03Z</time>
      </trkpt>
      <trkpt lat="47.00153" lon="6.01956">
        <ele>484.4</ele>
        <time>2012-05-10T15:00:07Z</time>
      </trkpt>
      <trkpt lat="47.00161" lon="6.01959">
        <ele>485.4</ele>
        <time>2012-05-10T15:00:12Z</time>
      </trkpt>
      <trkpt lat="47.00161" lon="6.01969">
        <ele>487.2</ele>
        <time>2012-05-10T15:00:16Z</time>
      </trkpt>
      <trkpt lat="47.00163" lon="6.0198">
        <ele>490.5</ele>
        <time>2012-05-10T15:00:21Z</time>
      </trkpt>
      <trkpt lat="47.00164" lon="6.01989">
        <ele>493</ele>
        <time>2012-05-10T15:00:26Z</time>
      </trkpt>
      <trkpt lat="47.00162" lon="6.01998">
        <ele>493.9</ele>
        <time>2012-05-10T15:00:29Z</time>
      </trkpt>
      <trkpt lat="47.00162" lon="6.02008">
        <ele>493.5</ele>
        <time>2012-05-10T15:00:38Z</time>
      </trkpt>
      <trkpt lat="47.00167" lon="6.02016">
        <ele>495.2</ele>
        <time>2012-05-10T15:00:43Z</time>
      </trkpt>
      <trkpt lat="47.00172" lon="6.02022">
        <ele>494.8</ele>
        <time>2012-05-10T15:00:46Z</time>
      </trkpt>
      <trkpt lat="47.00176" lon="6.0203">
        <ele>495</ele>
        <time>2012-05-10T15:00:51Z</time>
      </trkpt>
      <trkpt lat="47.00182" lon="6.02034">
        <ele>490.4</ele>
        <time>2012-05-10T15:00:55Z</time>
      </trkpt>
      <trkpt lat="47.00188" lon="6.02041">
        <ele>489.7</ele>
        <time>2012-05-10T15:01:04Z</time>
      </trkpt>
      <trkpt lat="47.00192" lon="6.02049">
        <ele>492.3</ele>
        <time>2012-05-10T15:01:10Z</time>
      </trkpt>
      <trkpt lat="47.00189" lon="6.02058">
        <ele>492.9</ele>
        <time>2012-05-10T15:01:12Z</time>
      </trkpt>
      <trkpt lat="47.00196" lon="6.02057">
        <ele>493.6</ele>
        <time>2012-05-10T15:01:18Z</time>
      </trkpt>
      <trkpt lat="47.00203" lon="6.02054">
        <ele>493</ele>
        <time>2012-05-10T15:01:22Z</time>
      </trkpt>
      <trkpt lat="47.00205" lon="6.02063">
        <ele>495.3</ele>
        <time>2012-05-10T15:01:31Z</time>
      </trkpt>
      <trkpt lat="47.00211" lon="6.02064">
        <ele>497.4</ele>
        <time>2012-05-10T15:01:34Z</time>
      </trkpt>
      <trkpt lat="47.00213" lon="6.02074">
        <ele>499.1</ele>
        <time>2012-05-10T15:01:37Z</time>
      </trkpt>
      <trkpt lat="47.0022" lon="6.02075">
        <ele>500.8</ele>
        <time>2012-05-10T15:01:42Z</time>
      </trkpt>
      <trkpt lat="47.0022" lon="6.02088">
        <ele>501.6</ele>
        <time>2012-05-10T15:01:52Z</time>
      </trkpt>
      <trkpt lat="47.00226" lon="6.0209">
        <ele>499.1</ele>
        <time>2012-05-10T15:01:59Z</time>
      </trkpt>
      <trkpt lat="47.00229" lon="6.02098">
        <ele>501.1</ele>
        <time>2012-05-10T15:02:04Z</time>
      </trkpt>
      <trkpt lat="47.00227" lon="6.02107">
        <ele>500.4</ele>
        <time>2012-05-10T15:02:06Z</time>
      </trkpt>
      <trkpt lat="47.00228" lon="6.02116">
        <ele>499.5</ele>
        <time>2012-05-10T15:02:10Z</time>
      </trkpt>
      <trkpt lat="47.00235" lon="6.02115">
        <ele>498.2</ele>
        <time>2012-05-10T15:02:15Z</time>
      </trkpt>
      <trkpt lat="47.00235" lon="6.02115">
        <ele>478.6</ele>
        <time>2012-05-10T15:02:27Z</time>
      </trkpt>
      <trkpt lat="47.00235" lon="6.02115">
        <ele>478.6</ele>
        <time>2012-05-10T15:03:21Z</time>
      </trkpt>
      <trkpt lat="47.00237" lon="6.02143">
        <ele>491.8</ele>
        <time>2012-05-10T15:03:24Z</time>
      </trkpt>
      <trkpt lat="47.00243" lon="6.02149">
        <ele>492.5</ele>
        <time>2012-05-10T15:03:30Z</time>
      </trkpt>
      <trkpt lat="47.00243" lon="6.02149">
        <ele>487</ele>
        <time>2012-05-10T15:03:43Z</time>
      </trkpt>
      <trkpt lat="47.00243" lon="6.02149">
        <ele>487</ele>
        <time>2012-05-10T15:03:58Z</time>
      </trkpt>
      <trkpt lat="47.00249" lon="6.0217">
        <ele>488</ele>
        <time>2012-05-10T15:04:00Z</time>
      </trkpt>
      <trkpt lat="47.00246" lon="6.02185">
        <ele>486.6</ele>
        <time>2012-05-10T15:04:02Z</time>
      </trkpt>
      <trkpt lat="47.00254" lon="6.02182">
        <ele>485</ele>
        <time>2012-05-10T15:04:04Z</time>
      </trkpt>
      <trkpt lat="47.00258" lon="6.02192">
        <ele>483.3</ele>
        <time>2012-05-10T15:04:06Z</time>
      </trkpt>
      <trkpt lat="47.00265" lon="6.02201">
        <ele>482.4</ele>
        <time>2012-05-10T15:04:09Z</time>
      </trkpt>
      <trkpt lat="47.00271" lon="6.02208">
        <ele>482.6</ele>
        <time>2012-05-10T15:04:11Z</time>
      </trkpt>
      <trkpt lat="47.00277" lon="6.02214">
        <ele>482.6</ele>
        <time>2012-05-10T15:04:14Z</time>
      </trkpt>
      <trkpt lat="47.00283" lon="6.02219">
        <ele>483.8</ele>
        <time>2012-05-10T15:04:17Z</time>
      </trkpt>
      <trkpt lat="47.00288" lon="6.02224">
        <ele>483.3</ele>
        <time>2012-05-10T15:04:21Z</time>
      </trkpt>
      <trkpt lat="47.00294" lon="6.02222">
        <ele>482.8</ele>
        <time>2012-05-10T15:04:23Z</time>
      </trkpt>
      <trkpt lat="47.00292" lon="6.02231">
        <ele>482.1</ele>
        <time>2012-05-10T15:04:26Z</time>
      </trkpt>
      <trkpt lat="47.0029" lon="6.02243">
        <ele>484.1</ele>
        <time>2012-05-10T15:04:29Z</time>
      </trkpt>
      <trkpt lat="47.00294" lon="6.02252">
        <ele>484.1</ele>
        <time>2012-05-10T15:04:34Z</time>
      </trkpt>
      <trkpt lat="47.00293" lon="6.02262">
        <ele>484.8</ele>
        <time>2012-05-10T15:04:38Z</time>
      </trkpt>
      <trkpt lat="47.00295" lon="6.02272">
        <ele>485.5</ele>
        <time>2012-05-10T15:04:44Z</time>
      </trkpt>
      <trkpt lat="47.00292" lon="6.02282">
        <ele>484</ele>
        <time>2012-05-10T15:04:47Z</time>
      </trkpt>
      <trkpt lat="47.00298" lon="6.02286">
        <ele>485.5</ele>
        <time>2012-05-10T15:04:52Z</time>
      </trkpt>
      <trkpt lat="47.00305" lon="6.02283">
        <ele>487.2</ele>
        <time>2012-05-10T15:04:54Z</time>
      </trkpt>
      <trkpt lat="47.00314" lon="6.02281">
        <ele>490.6</ele>
        <time>2012-05-10T15:04:57Z</time>
      </trkpt>
      <trkpt lat="47.00321" lon="6.02278">
        <ele>490.7</ele>
        <time>2012-05-10T15:04:59Z</time>
      </trkpt>
      <trkpt lat="47.00326" lon="6.02284">
        <ele>491.8</ele>
        <time>2012-05-10T15:05:03Z</time>
      </trkpt>
      <trkpt lat="47.00326" lon="6.02296">
        <ele>493.5</ele>
        <time>2012-05-10T15:05:07Z</time>
      </trkpt>
      <trkpt lat="47.00326" lon="6.02309">
        <ele>494.4</ele>
        <time>2012-05-10T15:05:15Z</time>
      </trkpt>
      <trkpt lat="47.00332" lon="6.02312">
        <ele>498.8</ele>
        <time>2012-05-10T15:05:24Z</time>
      </trkpt>
      <trkpt lat="47.0034" lon="6.02308">
        <ele>497.3</ele>
        <time>2012-05-10T15:05:27Z</time>
      </trkpt>
      <trkpt lat="47.00346" lon="6.02313">
        <ele>499.9</ele>
        <time>2012-05-10T15:05:31Z</time>
      </trkpt>
      <trkpt lat="47.00352" lon="6.02308">
        <ele>500.5</ele>
        <time>2012-05-10T15:05:32Z</time>
      </trkpt>
      <trkpt lat="47.00358" lon="6.02303">
        <ele>500.2</ele>
        <time>2012-05-10T15:05:35Z</time>
      </trkpt>
      <trkpt lat="47.00363" lon="6.02298">
        <ele>500.8</ele>
        <time>2012-05-10T15:05:38Z</time>
      </trkpt>
      <trkpt lat="47.00363" lon="6.02298">
        <ele>478.1</ele>
        <time>2012-05-10T15:05:49Z</time>
      </trkpt>
      <trkpt lat="47.00363" lon="6.02298">
        <ele>478.1</ele>
        <time>2012-05-10T15:12:08Z</time>
      </trkpt>
      <trkpt lat="47.00346" lon="6.02314">
        <ele>506.7</ele>
        <time>2012-05-10T15:12:10Z</time>
      </trkpt>
      <trkpt lat="47.00338" lon="6.02322">
        <ele>506.9</ele>
        <time>2012-05-10T15:12:12Z</time>
      </trkpt>
      <trkpt lat="47.00329" lon="6.02331">
        <ele>507.9</ele>
        <time>2012-05-10T15:12:15Z</time>
      </trkpt>
      <trkpt lat="47.00329" lon="6.02331">
        <ele>508.5</ele>
        <time>2012-05-10T15:12:26Z</time>
      </trkpt>
      <trkpt lat="47.00329" lon="6.02331">
        <ele>508.5</ele>
        <time>2012-05-10T15:12:28Z</time>
      </trkpt>
      <trkpt lat="47.00334" lon="6.02312">
        <ele>509.4</ele>
        <time>2012-05-10T15:12:31Z</time>
      </trkpt>
      <trkpt lat="47.00334" lon="6.02312">
        <ele>498.4</ele>
        <time>2012-05-10T15:12:42Z</time>
      </trkpt>
      <trkpt lat="47.00334" lon="6.02312">
        <ele>498.4</ele>
        <time>2012-05-10T15:12:45Z</time>
      </trkpt>
      <trkpt lat="47.00338" lon="6.02303">
        <ele>499.5</ele>
        <time>2012-05-10T15:12:56Z</time>
      </trkpt>
      <trkpt lat="47.00339" lon="6.02291">
        <ele>504</ele>
        <time>2012-05-10T15:13:00Z</time>
      </trkpt>
      <trkpt lat="47.00335" lon="6.02282">
        <ele>509.4</ele>
        <time>2012-05-10T15:13:05Z</time>
      </trkpt>
      <trkpt lat="47.00329" lon="6.02283">
        <ele>506</ele>
        <time>2012-05-10T15:13:13Z</time>
      </trkpt>
      <trkpt lat="47.00323" lon="6.02287">
        <ele>505.6</ele>
        <time>2012-05-10T15:13:15Z</time>
      </trkpt>
      <trkpt lat="47.00329" lon="6.0228">
        <ele>508.5</ele>
        <time>2012-05-10T15:13:17Z</time>
      </trkpt>
      <trkpt lat="47.00322" lon="6.02279">
        <ele>508.7</ele>
        <time>2012-05-10T15:13:23Z</time>
      </trkpt>
      <trkpt lat="47.00316" lon="6.02277">
        <ele>503.9</ele>
        <time>2012-05-10T15:13:28Z</time>
      </trkpt>
      <trkpt lat="47.00318" lon="6.02267">
        <ele>506.4</ele>
        <time>2012-05-10T15:13:33Z</time>
      </trkpt>
      <trkpt lat="47.00314" lon="6.02258">
        <ele>507.9</ele>
        <time>2012-05-10T15:13:41Z</time>
      </trkpt>
      <trkpt lat="47.00314" lon="6.02258">
        <ele>503.9</ele>
        <time>2012-05-10T15:13:52Z</time>
      </trkpt>
      <trkpt lat="47.00314" lon="6.02258">
        <ele>503.9</ele>
        <time>2012-05-10T15:13:55Z</time>
      </trkpt>
      <trkpt lat="47.00312" lon="6.02242">
        <ele>506</ele>
        <time>2012-05-10T15:13:58Z</time>
      </trkpt>
      <trkpt lat="47.00308" lon="6.02236">
        <ele>503</ele>
        <time>2012-05-10T15:14:07Z</time>
      </trkpt>
      <trkpt lat="47.00299" lon="6.0223">
        <ele>499.3</ele>
        <time>2012-05-10T15:14:10Z</time>
      </trkpt>
      <trkpt lat="47.00306" lon="6.0222">
        <ele>501</ele>
        <time>2012-05-10T15:14:11Z</time>
      </trkpt>
      <trkpt lat="47.0031" lon="6.02214">
        <ele>502</ele>
        <time>2012-05-10T15:14:13Z</time>
      </trkpt>
      <trkpt lat="47.00302" lon="6.02217">
        <ele>504.3</ele>
        <time>2012-05-10T15:14:18Z</time>
      </trkpt>
      <trkpt lat="47.00303" lon="6.02207">
        <ele>501.3</ele>
        <time>2012-05-10T15:14:26Z</time>
      </trkpt>
      <trkpt lat="47.00293" lon="6.02208">
        <ele>499.1</ele>
        <time>2012-05-10T15:14:33Z</time>
      </trkpt>
      <trkpt lat="47.00297" lon="6.02196">
        <ele>500.6</ele>
        <time>2012-05-10T15:14:38Z</time>
      </trkpt>
      <trkpt lat="47.00296" lon="6.02186">
        <ele>503</ele>
        <time>2012-05-10T15:14:42Z</time>
      </trkpt>
      <trkpt lat="47.00292" lon="6.02179">
        <ele>501.4</ele>
        <time>2012-05-10T15:14:46Z</time>
      </trkpt>
      <trkpt lat="47.00293" lon="6.0217">
        <ele>499.4</ele>
        <time>2012-05-10T15:14:55Z</time>
      </trkpt>
      <trkpt lat="47.00289" lon="6.02162">
        <ele>496.5</ele>
        <time>2012-05-10T15:15:01Z</time>
      </trkpt>
      <trkpt lat="47.00295" lon="6.02156">
        <ele>496.3</ele>
        <time>2012-05-10T15:15:04Z</time>
      </trkpt>
      <trkpt lat="47.00295" lon="6.02156">
        <ele>476.7</ele>
        <time>2012-05-10T15:15:15Z</time>
      </trkpt>
      <trkpt lat="47.00295" lon="6.02156">
        <ele>476.7</ele>
        <time>2012-05-10T15:15:16Z</time>
      </trkpt>
      <trkpt lat="47.0028" lon="6.02152">
        <ele>492.9</ele>
        <time>2012-05-10T15:15:18Z</time>
      </trkpt>
      <trkpt lat="47.00271" lon="6.02157">
        <ele>494.2</ele>
        <time>2012-05-10T15:15:22Z</time>
      </trkpt>
      <trkpt lat="47.00271" lon="6.02157">
        <ele>485</ele>
        <time>2012-05-10T15:15:33Z</time>
      </trkpt>
      <trkpt lat="47.00271" lon="6.02157">
        <ele>485</ele>
        <time>2012-05-10T15:16:30Z</time>
      </trkpt>
      <trkpt lat="47.00264" lon="6.02135">
        <ele>502.8</ele>
        <time>2012-05-10T15:16:34Z</time>
      </trkpt>
      <trkpt lat="47.0026" lon="6.02128">
        <ele>502.3</ele>
        <time>2012-05-10T15:16:40Z</time>
      </trkpt>
      <trkpt lat="47.0026" lon="6.02128">
        <ele>475.6</ele>
        <time>2012-05-10T15:16:51Z</time>
      </trkpt>
      <trkpt lat="47.0026" lon="6.02128">
        <ele>475.6</ele>
        <time>2012-05-10T15:17:05Z</time>
      </trkpt>
      <trkpt lat="47.00249" lon="6.02107">
        <ele>497.9</ele>
        <time>2012-05-10T15:17:08Z</time>
      </trkpt>
      <trkpt lat="47.00247" lon="6.02097">
        <ele>499</ele>
        <time>2012-05-10T15:17:10Z</time>
      </trkpt>
      <trkpt lat="47.00247" lon="6.02087">
        <ele>498.4</ele>
        <time>2012-05-10T15:17:12Z</time>
      </trkpt>
      <trkpt lat="47.00244" lon="6.02076">
        <ele>497.7</ele>
        <time>2012-05-10T15:17:14Z</time>
      </trkpt>
      <trkpt lat="47.0024" lon="6.02068">
        <ele>498.9</ele>
        <time>2012-05-10T15:17:19Z</time>
      </trkpt>
      <trkpt lat="47.0024" lon="6.02068">
        <ele>464.2</ele>
        <time>2012-05-10T15:17:31Z</time>
      </trkpt>
      <trkpt lat="47.0024" lon="6.02068">
        <ele>464.2</ele>
        <time>2012-05-10T15:18:00Z</time>
      </trkpt>
      <trkpt lat="47.00237" lon="6.02048">
        <ele>495</ele>
        <time>2012-05-10T15:18:02Z</time>
      </trkpt>
      <trkpt lat="47.00234" lon="6.02033">
        <ele>493.1</ele>
        <time>2012-05-10T15:18:04Z</time>
      </trkpt>
      <trkpt lat="47.00236" lon="6.02019">
        <ele>488.3</ele>
        <time>2012-05-10T15:18:06Z</time>
      </trkpt>
      <trkpt lat="47.00236" lon="6.02008">
        <ele>476.7</ele>
        <time>2012-05-10T15:18:09Z</time>
      </trkpt>
      <trkpt lat="47.00235" lon="6.01996">
        <ele>467.3</ele>
        <time>2012-05-10T15:18:15Z</time>
      </trkpt>
      <trkpt lat="47.00233" lon="6.01981">
        <ele>457.8</ele>
        <time>2012-05-10T15:18:17Z</time>
      </trkpt>
      <trkpt lat="47.00235" lon="6.01972">
        <ele>453.1</ele>
        <time>2012-05-10T15:18:21Z</time>
      </trkpt>
      <trkpt lat="47.00229" lon="6.01964">
        <ele>450.9</ele>
        <time>2012-05-10T15:18:25Z</time>
      </trkpt>
      <trkpt lat="47.00229" lon="6.0195">
        <ele>439.1</ele>
        <time>2012-05-10T15:18:36Z</time>
      </trkpt>
      <trkpt lat="47.00229" lon="6.0195">
        <ele>434.2</ele>
        <time>2012-05-10T15:18:47Z</time>
      </trkpt>
      <trkpt lat="47.00229" lon="6.0195">
        <ele>434.2</ele>
        <time>2012-05-10T15:19:18Z</time>
      </trkpt>
      <trkpt lat="47.00223" lon="6.01928">
        <ele>439.9</ele>
        <time>2012-05-10T15:19:22Z</time>
      </trkpt>
      <trkpt lat="47.0022" lon="6.0192">
        <ele>442.9</ele>
        <time>2012-05-10T15:19:27Z</time>
      </trkpt>
      <trkpt lat="47.0022" lon="6.0192">
        <ele>432.3</ele>
        <time>2012-05-10T15:19:38Z</time>
      </trkpt>
      <trkpt lat="47.0022" lon="6.0192">
        <ele>432.3</ele>
        <time>2012-05-10T15:19:43Z</time>
      </trkpt>
      <trkpt lat="47.0022" lon="6.0192">
        <ele>432.3</ele>
        <time>2012-05-10T15:19:54Z</time>
      </trkpt>
      <trkpt lat="47.0022" lon="6.0192">
        <ele>432.3</ele>
        <time>2012-05-10T15:20:24Z</time>
      </trkpt>
      <trkpt lat="47.00223" lon="6.01893">
        <ele>439.2</ele>
        <time>2012-05-10T15:20:25Z</time>
      </trkpt>
      <trkpt lat="47.00227" lon="6.0188">
        <ele>439.9</ele>
        <time>2012-05-10T15:20:27Z</time>
      </trkpt>
      <trkpt lat="47.00225" lon="6.01871">
        <ele>437.7</ele>
        <time>2012-05-10T15:20:30Z</time>
      </trkpt>
      <trkpt lat="47.00221" lon="6.01862">
        <ele>439.3</ele>
        <time>2012-05-10T15:20:32Z</time>
      </trkpt>
      <trkpt lat="47.00222" lon="6.01851">
        <ele>436.5</ele>
        <time>2012-05-10T15:20:36Z</time>
      </trkpt>
      <trkpt lat="47.00221" lon="6.01841">
        <ele>438.3</ele>
        <time>2012-05-10T15:20:41Z</time>
      </trkpt>
      <trkpt lat="47.00219" lon="6.01831">
        <ele>440.8</ele>
        <time>2012-05-10T15:20:48Z</time>
      </trkpt>
      <trkpt lat="47.00221" lon="6.01822">
        <ele>440.6</ele>
        <time>2012-05-10T15:20:53Z</time>
      </trkpt>
      <trkpt lat="47.00217" lon="6.01814">
        <ele>440.3</ele>
        <time>2012-05-10T15:20:59Z</time>
      </trkpt>
      <trkpt lat="47.00217" lon="6.01814">
        <ele>406.4</ele>
        <time>2012-05-10T15:21:10Z</time>
      </trkpt>
      <trkpt lat="47.00217" lon="6.01814">
        <ele>406.4</ele>
        <time>2012-05-10T15:21:57Z</time>
      </trkpt>
      <trkpt lat="47.00222" lon="6.01783">
        <ele>438.2</ele>
        <time>2012-05-10T15:22:00Z</time>
      </trkpt>
      <trkpt lat="47.00224" lon="6.01773">
        <ele>438.9</ele>
        <time>2012-05-10T15:22:03Z</time>
      </trkpt>
      <trkpt lat="47.0022" lon="6.01763">
        <ele>441.9</ele>
        <time>2012-05-10T15:22:05Z</time>
      </trkpt>
      <trkpt lat="47.00217" lon="6.01752">
        <ele>443.7</ele>
        <time>2012-05-10T15:22:10Z</time>
      </trkpt>
      <trkpt lat="47.00217" lon="6.01742">
        <ele>446</ele>
        <time>2012-05-10T15:22:13Z</time>
      </trkpt>
      <trkpt lat="47.0022" lon="6.01732">
        <ele>446.6</ele>
        <time>2012-05-10T15:22:19Z</time>
      </trkpt>
      <trkpt lat="47.00217" lon="6.01721">
        <ele>448.6</ele>
        <time>2012-05-10T15:22:26Z</time>
      </trkpt>
      <trkpt lat="47.00215" lon="6.01712">
        <ele>448.7</ele>
        <time>2012-05-10T15:22:28Z</time>
      </trkpt>
      <trkpt lat="47.00208" lon="6.0171">
        <ele>449.3</ele>
        <time>2012-05-10T15:22:30Z</time>
      </trkpt>
      <trkpt lat="47.00211" lon="6.01719">
        <ele>452.7</ele>
        <time>2012-05-10T15:22:34Z</time>
      </trkpt>
      <trkpt lat="47.00208" lon="6.01728">
        <ele>460.8</ele>
        <time>2012-05-10T15:22:38Z</time>
      </trkpt>
      <trkpt lat="47.00208" lon="6.01728">
        <ele>405.2</ele>
        <time>2012-05-10T15:22:49Z</time>
      </trkpt>
      <trkpt lat="47.00208" lon="6.01728">
        <ele>405.2</ele>
        <time>2012-05-10T15:23:02Z</time>
      </trkpt>
      <trkpt lat="47.00213" lon="6.0171">
        <ele>472.3</ele>
        <time>2012-05-10T15:23:06Z</time>
      </trkpt>
      <trkpt lat="47.00207" lon="6.01703">
        <ele>476.9</ele>
        <time>2012-05-10T15:23:15Z</time>
      </trkpt>
      <trkpt lat="47.00213" lon="6.01695">
        <ele>480.5</ele>
        <time>2012-05-10T15:23:23Z</time>
      </trkpt>
      <trkpt lat="47.00206" lon="6.01692">
        <ele>481.9</ele>
        <time>2012-05-10T15:23:27Z</time>
      </trkpt>
      <trkpt lat="47.00206" lon="6.01692">
        <ele>406.1</ele>
        <time>2012-05-10T15:23:38Z</time>
      </trkpt>
      <trkpt lat="47.00206" lon="6.01692">
        <ele>406.1</ele>
        <time>2012-05-10T15:24:14Z</time>
      </trkpt>
      <trkpt lat="47.0021" lon="6.01673">
        <ele>479.5</ele>
        <time>2012-05-10T15:24:16Z</time>
      </trkpt>
      <trkpt lat="47.00212" lon="6.01662">
        <ele>481</ele>
        <time>2012-05-10T15:24:19Z</time>
      </trkpt>
      <trkpt lat="47.0021" lon="6.01653">
        <ele>482</ele>
        <time>2012-05-10T15:24:23Z</time>
      </trkpt>
      <trkpt lat="47.00207" lon="6.01644">
        <ele>484.1</ele>
        <time>2012-05-10T15:24:27Z</time>
      </trkpt>
      <trkpt lat="47.00209" lon="6.01634">
        <ele>486.2</ele>
        <time>2012-05-10T15:24:30Z</time>
      </trkpt>
      <trkpt lat="47.00208" lon="6.01624">
        <ele>488.3</ele>
        <time>2012-05-10T15:24:35Z</time>
      </trkpt>
      <trkpt lat="47.00202" lon="6.01617">
        <ele>491.1</ele>
        <time>2012-05-10T15:24:39Z</time>
      </trkpt>
      <trkpt lat="47.00202" lon="6.01617">
        <ele>397.1</ele>
        <time>2012-05-10T15:24:50Z</time>
      </trkpt>
      <trkpt lat="47.00202" lon="6.01617">
        <ele>397.1</ele>
        <time>2012-05-10T15:25:01Z</time>
      </trkpt>
      <trkpt lat="47.00205" lon="6.01596">
        <ele>492.6</ele>
        <time>2012-05-10T15:25:08Z</time>
      </trkpt>
      <trkpt lat="47.00209" lon="6.01585">
        <ele>493.5</ele>
        <time>2012-05-10T15:25:13Z</time>
      </trkpt>
      <trkpt lat="47.00207" lon="6.01576">
        <ele>494.9</ele>
        <time>2012-05-10T15:25:20Z</time>
      </trkpt>
      <trkpt lat="47.00207" lon="6.01564">
        <ele>497.6</ele>
        <time>2012-05-10T15:25:24Z</time>
      </trkpt>
      <trkpt lat="47.0021" lon="6.01553">
        <ele>497.5</ele>
        <time>2012-05-10T15:25:31Z</time>
      </trkpt>
      <trkpt lat="47.00209" lon="6.01541">
        <ele>498.9</ele>
        <time>2012-05-10T15:25:36Z</time>
      </trkpt>
      <trkpt lat="47.00209" lon="6.01541">
        <ele>396.4</ele>
        <time>2012-05-10T15:25:47Z</time>
      </trkpt>
      <trkpt lat="47.00209" lon="6.01541">
        <ele>396.4</ele>
        <time>2012-05-10T15:25:49Z</time>
      </trkpt>
      <trkpt lat="47.00209" lon="6.01541">
        <ele>396.4</ele>
        <time>2012-05-10T15:26:00Z</time>
      </trkpt>
      <trkpt lat="47.00209" lon="6.01541">
        <ele>396.4</ele>
        <time>2012-05-10T15:26:32Z</time>
      </trkpt>
      <trkpt lat="47.00205" lon="6.01512">
        <ele>503.5</ele>
        <time>2012-05-10T15:26:39Z</time>
      </trkpt>
      <trkpt lat="47.00205" lon="6.01512">
        <ele>396.2</ele>
        <time>2012-05-10T15:26:50Z</time>
      </trkpt>
      <trkpt lat="47.00205" lon="6.01512">
        <ele>396.2</ele>
        <time>2012-05-10T15:26:57Z</time>
      </trkpt>
      <trkpt lat="47.00204" lon="6.01486">
        <ele>504.4</ele>
        <time>2012-05-10T15:27:00Z</time>
      </trkpt>
      <trkpt lat="47.00205" lon="6.01473">
        <ele>504.9</ele>
        <time>2012-05-10T15:27:03Z</time>
      </trkpt>
      <trkpt lat="47.00202" lon="6.01462">
        <ele>506.7</ele>
        <time>2012-05-10T15:27:13Z</time>
      </trkpt>
      <trkpt lat="47.00202" lon="6.01449">
        <ele>509.6</ele>
        <time>2012-05-10T15:27:16Z</time>
      </trkpt>
      <trkpt lat="47.00197" lon="6.01443">
        <ele>511.2</ele>
        <time>2012-05-10T15:27:24Z</time>
      </trkpt>
      <trkpt lat="47.00197" lon="6.01443">
        <ele>390.6</ele>
        <time>2012-05-10T15:27:35Z</time>
      </trkpt>
      <trkpt lat="47.00197" lon="6.01443">
        <ele>390.6</ele>
        <time>2012-05-10T15:31:06Z</time>
      </trkpt>
      <trkpt lat="47.00215" lon="6.01449">
        <ele>511.1</ele>
        <time>2012-05-10T15:31:08Z</time>
      </trkpt>
      <trkpt lat="47.00224" lon="6.01453">
        <ele>512.4</ele>
        <time>2012-05-10T15:31:10Z</time>
      </trkpt>
      <trkpt lat="47.00231" lon="6.01453">
        <ele>510.6</ele>
        <time>2012-05-10T15:31:11Z</time>
      </trkpt>
      <trkpt lat="47.00234" lon="6.01461">
        <ele>510.6</ele>
        <time>2012-05-10T15:31:13Z</time>
      </trkpt>
      <trkpt lat="47.00239" lon="6.01469">
        <ele>510.4</ele>
        <time>2012-05-10T15:31:16Z</time>
      </trkpt>
      <trkpt lat="47.00239" lon="6.0148">
        <ele>513.4</ele>
        <time>2012-05-10T15:31:19Z</time>
      </trkpt>
      <trkpt lat="47.00242" lon="6.0149">
        <ele>517.1</ele>
        <time>2012-05-10T15:31:23Z</time>
      </trkpt>
      <trkpt lat="47.00249" lon="6.01497">
        <ele>519.3</ele>
        <time>2012-05-10T15:31:26Z</time>
      </trkpt>
      <trkpt lat="47.00252" lon="6.01508">
        <ele>519.2</ele>
        <time>2012-05-10T15:31:30Z</time>
      </trkpt>
      <trkpt lat="47.00254" lon="6.01517">
        <ele>521.3</ele>
        <time>2012-05-10T15:31:35Z</time>
      </trkpt>
      <trkpt lat="47.00259" lon="6.01524">
        <ele>524.5</ele>
        <time>2012-05-10T15:31:41Z</time>
      </trkpt>
      <trkpt lat="47.00259" lon="6.01524">
        <ele>428.8</ele>
        <time>2012-05-10T15:31:53Z</time>
      </trkpt>
      <trkpt lat="47.00259" lon="6.01524">
        <ele>428.8</ele>
        <time>2012-05-10T15:33:07Z</time>
      </trkpt>
      <trkpt lat="47.00268" lon="6.01543">
        <ele>528</ele>
        <time>2012-05-10T15:33:09Z</time>
      </trkpt>
      <trkpt lat="47.00275" lon="6.01543">
        <ele>527.6</ele>
        <time>2012-05-10T15:33:14Z</time>
      </trkpt>
      <trkpt lat="47.00281" lon="6.01548">
        <ele>527.6</ele>
        <time>2012-05-10T15:33:18Z</time>
      </trkpt>
      <trkpt lat="47.00281" lon="6.01548">
        <ele>439</ele>
        <time>2012-05-10T15:33:30Z</time>
      </trkpt>
      <trkpt lat="47.00281" lon="6.01548">
        <ele>439</ele>
        <time>2012-05-10T15:34:38Z</time>
      </trkpt>
      <trkpt lat="47.00287" lon="6.01574">
        <ele>528.1</ele>
        <time>2012-05-10T15:34:40Z</time>
      </trkpt>
      <trkpt lat="47.00295" lon="6.01576">
        <ele>528.7</ele>
        <time>2012-05-10T15:34:42Z</time>
      </trkpt>
      <trkpt lat="47.003" lon="6.01583">
        <ele>530.2</ele>
        <time>2012-05-10T15:34:46Z</time>
      </trkpt>
      <trkpt lat="47.00298" lon="6.01592">
        <ele>529.2</ele>
        <time>2012-05-10T15:34:51Z</time>
      </trkpt>
      <trkpt lat="47.00298" lon="6.01592">
        <ele>445.8</ele>
        <time>2012-05-10T15:35:02Z</time>
      </trkpt>
      <trkpt lat="47.00298" lon="6.01592">
        <ele>445.8</ele>
        <time>2012-05-10T15:35:20Z</time>
      </trkpt>
      <trkpt lat="47.00308" lon="6.01609">
        <ele>525.5</ele>
        <time>2012-05-10T15:35:22Z</time>
      </trkpt>
      <trkpt lat="47.00312" lon="6.01619">
        <ele>522.7</ele>
        <time>2012-05-10T15:35:24Z</time>
      </trkpt>
      <trkpt lat="47.0031" lon="6.01629">
        <ele>524.8</ele>
        <time>2012-05-10T15:35:26Z</time>
      </trkpt>
      <trkpt lat="47.00311" lon="6.01642">
        <ele>528.8</ele>
        <time>2012-05-10T15:35:30Z</time>
      </trkpt>
      <trkpt lat="47.00311" lon="6.01651">
        <ele>527.4</ele>
        <time>2012-05-10T15:35:33Z</time>
      </trkpt>
      <trkpt lat="47.00311" lon="6.01661">
        <ele>526.3</ele>
        <time>2012-05-10T15:35:36Z</time>
      </trkpt>
      <trkpt lat="47.00318" lon="6.01664">
        <ele>526.2</ele>
        <time>2012-05-10T15:35:40Z</time>
      </trkpt>
      <trkpt lat="47.00318" lon="6.01664">
        <ele>452.9</ele>
        <time>2012-05-10T15:35:51Z</time>
      </trkpt>
      <trkpt lat="47.00318" lon="6.01664">
        <ele>452.9</ele>
        <time>2012-05-10T15:36:57Z</time>
      </trkpt>
      <trkpt lat="47.00321" lon="6.01686">
        <ele>526</ele>
        <time>2012-05-10T15:36:59Z</time>
      </trkpt>
      <trkpt lat="47.00329" lon="6.01697">
        <ele>522.4</ele>
        <time>2012-05-10T15:37:01Z</time>
      </trkpt>
      <trkpt lat="47.00334" lon="6.01708">
        <ele>516.4</ele>
        <time>2012-05-10T15:37:03Z</time>
      </trkpt>
      <trkpt lat="47.00332" lon="6.01718">
        <ele>517.2</ele>
        <time>2012-05-10T15:37:05Z</time>
      </trkpt>
      <trkpt lat="47.00337" lon="6.01725">
        <ele>520.7</ele>
        <time>2012-05-10T15:37:08Z</time>
      </trkpt>
      <trkpt lat="47.0034" lon="6.01735">
        <ele>524.3</ele>
        <time>2012-05-10T15:37:13Z</time>
      </trkpt>
      <trkpt lat="47.0034" lon="6.01745">
        <ele>524.4</ele>
        <time>2012-05-10T15:37:18Z</time>
      </trkpt>
      <trkpt lat="47.00334" lon="6.01751">
        <ele>523.7</ele>
        <time>2012-05-10T15:37:20Z</time>
      </trkpt>
      <trkpt lat="47.00337" lon="6.0176">
        <ele>522.5</ele>
        <time>2012-05-10T15:37:24Z</time>
      </trkpt>
      <trkpt lat="47.00339" lon="6.01771">
        <ele>525.2</ele>
        <time>2012-05-10T15:37:32Z</time>
      </trkpt>
      <trkpt lat="47.00345" lon="6.01772">
        <ele>526.5</ele>
        <time>2012-05-10T15:37:35Z</time>
      </trkpt>
      <trkpt lat="47.00347" lon="6.01781">
        <ele>527</ele>
        <time>2012-05-10T15:37:42Z</time>
      </trkpt>
      <trkpt lat="47.00351" lon="6.01789">
        <ele>525.6</ele>
        <time>2012-05-10T15:37:48Z</time>
      </trkpt>
      <trkpt lat="47.00358" lon="6.01787">
        <ele>523.4</ele>
        <time>2012-05-10T15:37:58Z</time>
      </trkpt>
      <trkpt lat="47.00358" lon="6.01787">
        <ele>467.5</ele>
        <time>2012-05-10T15:38:09Z</time>
      </trkpt>
      <trkpt lat="47.00358" lon="6.01787">
        <ele>467.5</ele>
        <time>2012-05-10T15:38:25Z</time>
      </trkpt>
      <trkpt lat="47.00372" lon="6.01797">
        <ele>519.5</ele>
        <time>2012-05-10T15:38:27Z</time>
      </trkpt>
      <trkpt lat="47.0038" lon="6.01798">
        <ele>518</ele>
        <time>2012-05-10T15:38:31Z</time>
      </trkpt>
      <trkpt lat="47.00383" lon="6.01807">
        <ele>519.2</ele>
        <time>2012-05-10T15:38:36Z</time>
      </trkpt>
      <trkpt lat="47.00383" lon="6.01807">
        <ele>478.8</ele>
        <time>2012-05-10T15:38:47Z</time>
      </trkpt>
      <trkpt lat="47.00383" lon="6.01807">
        <ele>478.8</ele>
        <time>2012-05-10T15:40:06Z</time>
      </trkpt>
      <trkpt lat="47.00394" lon="6.01827">
        <ele>517.1</ele>
        <time>2012-05-10T15:40:08Z</time>
      </trkpt>
      <trkpt lat="47.00398" lon="6.01836">
        <ele>516.9</ele>
        <time>2012-05-10T15:40:11Z</time>
      </trkpt>
      <trkpt lat="47.00404" lon="6.01839">
        <ele>517.2</ele>
        <time>2012-05-10T15:40:14Z</time>
      </trkpt>
      <trkpt lat="47.0041" lon="6.01844">
        <ele>518.2</ele>
        <time>2012-05-10T15:40:20Z</time>
      </trkpt>
      <trkpt lat="47.0041" lon="6.01856">
        <ele>519.9</ele>
        <time>2012-05-10T15:40:25Z</time>
      </trkpt>
      <trkpt lat="47.00416" lon="6.01856">
        <ele>524.4</ele>
        <time>2012-05-10T15:40:33Z</time>
      </trkpt>
      <trkpt lat="47.00416" lon="6.01856">
        <ele>483.7</ele>
        <time>2012-05-10T15:40:44Z</time>
      </trkpt>
      <trkpt lat="47.00416" lon="6.01856">
        <ele>483.7</ele>
        <time>2012-05-10T15:41:30Z</time>
      </trkpt>
      <trkpt lat="47.00429" lon="6.0187">
        <ele>520.6</ele>
        <time>2012-05-10T15:41:31Z</time>
      </trkpt>
      <trkpt lat="47.00434" lon="6.01883">
        <ele>518.6</ele>
        <time>2012-05-10T15:41:33Z</time>
      </trkpt>
      <trkpt lat="47.00441" lon="6.01889">
        <ele>517</ele>
        <time>2012-05-10T15:41:37Z</time>
      </trkpt>
      <trkpt lat="47.00448" lon="6.01892">
        <ele>518.3</ele>
        <time>2012-05-10T15:41:39Z</time>
      </trkpt>
      <trkpt lat="47.00449" lon="6.01901">
        <ele>518.4</ele>
        <time>2012-05-10T15:41:41Z</time>
      </trkpt>
      <trkpt lat="47.00456" lon="6.01905">
        <ele>518.8</ele>
        <time>2012-05-10T15:41:44Z</time>
      </trkpt>
      <trkpt lat="47.00461" lon="6.01912">
        <ele>517.7</ele>
        <time>2012-05-10T15:41:48Z</time>
      </trkpt>
      <trkpt lat="47.00468" lon="6.01912">
        <ele>519.4</ele>
        <time>2012-05-10T15:41:50Z</time>
      </trkpt>
      <trkpt lat="47.00469" lon="6.01922">
        <ele>520.5</ele>
        <time>2012-05-10T15:41:53Z</time>
      </trkpt>
      <trkpt lat="47.0047" lon="6.01931">
        <ele>522.4</ele>
        <time>2012-05-10T15:41:59Z</time>
      </trkpt>
      <trkpt lat="47.00474" lon="6.01941">
        <ele>525.1</ele>
        <time>2012-05-10T15:42:07Z</time>
      </trkpt>
      <trkpt lat="47.0048" lon="6.01945">
        <ele>527.3</ele>
        <time>2012-05-10T15:42:11Z</time>
      </trkpt>
      <trkpt lat="47.00486" lon="6.0195">
        <ele>529.3</ele>
        <time>2012-05-10T15:42:17Z</time>
      </trkpt>
      <trkpt lat="47.00483" lon="6.01961">
        <ele>531.3</ele>
        <time>2012-05-10T15:42:25Z</time>
      </trkpt>
      <trkpt lat="47.00488" lon="6.01968">
        <ele>535</ele>
        <time>2012-05-10T15:42:34Z</time>
      </trkpt>
      <trkpt lat="47.00495" lon="6.01967">
        <ele>537</ele>
        <time>2012-05-10T15:42:44Z</time>
      </trkpt>
      <trkpt lat="47.00501" lon="6.0197">
        <ele>537.7</ele>
        <time>2012-05-10T15:42:50Z</time>
      </trkpt>
      <trkpt lat="47.00509" lon="6.01973">
        <ele>541</ele>
        <time>2012-05-10T15:43:01Z</time>
      </trkpt>
      <trkpt lat="47.00516" lon="6.01971">
        <ele>542.3</ele>
        <time>2012-05-10T15:43:04Z</time>
      </trkpt>
      <trkpt lat="47.00521" lon="6.01978">
        <ele>546.3</ele>
        <time>2012-05-10T15:43:13Z</time>
      </trkpt>
      <trkpt lat="47.00528" lon="6.01974">
        <ele>546.2</ele>
        <time>2012-05-10T15:43:16Z</time>
      </trkpt>
      <trkpt lat="47.00533" lon="6.01981">
        <ele>548.5</ele>
        <time>2012-05-10T15:43:27Z</time>
      </trkpt>
      <trkpt lat="47.00539" lon="6.01977">
        <ele>548.7</ele>
        <time>2012-05-10T15:43:33Z</time>
      </trkpt>
      <trkpt lat="47.00546" lon="6.01977">
        <ele>549.2</ele>
        <time>2012-05-10T15:43:39Z</time>
      </trkpt>
      <trkpt lat="47.00553" lon="6.01975">
        <ele>549.8</ele>
        <time>2012-05-10T15:43:41Z</time>
      </trkpt>
      <trkpt lat="47.00559" lon="6.01979">
        <ele>554.2</ele>
        <time>2012-05-10T15:43:47Z</time>
      </trkpt>
      <trkpt lat="47.00559" lon="6.01979">
        <ele>515.1</ele>
        <time>2012-05-10T15:43:58Z</time>
      </trkpt>
      <trkpt lat="47.00559" lon="6.01979">
        <ele>515.1</ele>
        <time>2012-05-10T15:48:46Z</time>
      </trkpt>
      <trkpt lat="47.00559" lon="6.01979">
        <ele>515.1</ele>
        <time>2012-05-10T15:48:58Z</time>
      </trkpt>
      <trkpt lat="47.00559" lon="6.01979">
        <ele>515.1</ele>
        <time>2012-05-10T15:58:33Z</time>
      </trkpt>
      <trkpt lat="47.00559" lon="6.01979">
        <ele>515.1</ele>
        <time>2012-05-10T15:58:44Z</time>
      </trkpt>
      <trkpt lat="47.00559" lon="6.01979">
        <ele>515.1</ele>
        <time>2012-05-10T15:59:42Z</time>
      </trkpt>
      <trkpt lat="47.00559" lon="6.01979">
        <ele>515.1</ele>
        <time>2012-05-10T15:59:53Z</time>
      </trkpt>
      <trkpt lat="47.00559" lon="6.01979">
        <ele>515.1</ele>
        <time>2012-05-10T16:01:48Z</time>
      </trkpt>
      <trkpt lat="47.00559" lon="6.01979">
        <ele>515.1</ele>
        <time>2012-05-10T16:01:59Z</time>
      </trkpt>
      <trkpt lat="47.00559" lon="6.01979">
        <ele>515.1</ele>
        <time>2012-05-10T16:03:55Z</time>
      </trkpt>
      <trkpt lat="47.00559" lon="6.01979">
        <ele>515.1</ele>
        <time>2012-05-10T16:04:06Z</time>
      </trkpt>
      <trkpt lat="47.00559" lon="6.01979">
        <ele>515.1</ele>
        <time>2012-05-10T16:07:00Z</time>
      </trkpt>
      <trkpt lat="47.00823" lon="6.02128">
        <ele>588.2</ele>
        <time>2012-05-10T16:07:00Z</time>
      </trkpt>
      <trkpt lat="47.00837" lon="6.02149">
        <ele>588.2</ele>
        <time>2012-05-10T16:07:02Z</time>
      </trkpt>
      <trkpt lat="47.00848" lon="6.02167">
        <ele>588.3</ele>
        <time>2012-05-10T16:07:05Z</time>
      </trkpt>
      <trkpt lat="47.00859" lon="6.02187">
        <ele>588.2</ele>
        <time>2012-05-10T16:07:07Z</time>
      </trkpt>
      <trkpt lat="47.00879" lon="6.02169">
        <ele>589</ele>
        <time>2012-05-10T16:07:10Z</time>
      </trkpt>
      <trkpt lat="47.00879" lon="6.02157">
        <ele>588.3</ele>
        <time>2012-05-10T16:07:15Z</time>
      </trkpt>
      <trkpt lat="47.00887" lon="6.02156">
        <ele>588.3</ele>
        <time>2012-05-10T16:07:16Z</time>
      </trkpt>
      <trkpt lat="47.00887" lon="6.02173">
        <ele>588</ele>
        <time>2012-05-10T16:07:18Z</time>
      </trkpt>
      <trkpt lat="47.00894" lon="6.02169">
        <ele>588.5</ele>
        <time>2012-05-10T16:07:21Z</time>
      </trkpt>
      <trkpt lat="47.00897" lon="6.02187">
        <ele>588.3</ele>
        <time>2012-05-10T16:07:22Z</time>
      </trkpt>
      <trkpt lat="47.00903" lon="6.02191">
        <ele>588.3</ele>
        <time>2012-05-10T16:07:24Z</time>
      </trkpt>
      <trkpt lat="47.00959" lon="6.02312">
        <ele>587</ele>
        <time>2012-05-10T16:07:31Z</time>
      </trkpt>
      <trkpt lat="47.00982" lon="6.02345">
        <ele>587.2</ele>
        <time>2012-05-10T16:07:35Z</time>
      </trkpt>
      <trkpt lat="47.00988" lon="6.02375">
        <ele>587.1</ele>
        <time>2012-05-10T16:07:37Z</time>
      </trkpt>
      <trkpt lat="47.01012" lon="6.024">
        <ele>587.1</ele>
        <time>2012-05-10T16:07:39Z</time>
      </trkpt>
      <trkpt lat="47.01023" lon="6.02422">
        <ele>587.1</ele>
        <time>2012-05-10T16:07:40Z</time>
      </trkpt>
      <trkpt lat="47.01035" lon="6.02429">
        <ele>586.6</ele>
        <time>2012-05-10T16:07:43Z</time>
      </trkpt>
      <trkpt lat="47.01057" lon="6.02458">
        <ele>586.3</ele>
        <time>2012-05-10T16:07:45Z</time>
      </trkpt>
      <trkpt lat="47.01045" lon="6.02477">
        <ele>587.6</ele>
        <time>2012-05-10T16:07:48Z</time>
      </trkpt>
      <trkpt lat="47.01031" lon="6.02479">
        <ele>589.2</ele>
        <time>2012-05-10T16:07:50Z</time>
      </trkpt>
      <trkpt lat="47.01028" lon="6.0249">
        <ele>589.1</ele>
        <time>2012-05-10T16:07:51Z</time>
      </trkpt>
      <trkpt lat="47.01024" lon="6.02514">
        <ele>589.2</ele>
        <time>2012-05-10T16:07:55Z</time>
      </trkpt>
      <trkpt lat="47.0101" lon="6.02535">
        <ele>588.9</ele>
        <time>2012-05-10T16:07:57Z</time>
      </trkpt>
      <trkpt lat="47.00965" lon="6.02566">
        <ele>588.1</ele>
        <time>2012-05-10T16:07:59Z</time>
      </trkpt>
      <trkpt lat="47.00941" lon="6.02587">
        <ele>586.9</ele>
        <time>2012-05-10T16:08:00Z</time>
      </trkpt>
      <trkpt lat="47.00914" lon="6.02607">
        <ele>586.3</ele>
        <time>2012-05-10T16:08:03Z</time>
      </trkpt>
      <trkpt lat="47.00891" lon="6.02635">
        <ele>590.6</ele>
        <time>2012-05-10T16:08:05Z</time>
      </trkpt>
      <trkpt lat="47.00851" lon="6.02721">
        <ele>589.4</ele>
        <time>2012-05-10T16:08:11Z</time>
      </trkpt>
      <trkpt lat="47.00835" lon="6.02752">
        <ele>588.5</ele>
        <time>2012-05-10T16:08:12Z</time>
      </trkpt>
      <trkpt lat="47.00823" lon="6.0278">
        <ele>588.7</ele>
        <time>2012-05-10T16:08:15Z</time>
      </trkpt>
      <trkpt lat="47.00811" lon="6.0281">
        <ele>588.4</ele>
        <time>2012-05-10T16:08:17Z</time>
      </trkpt>
      <trkpt lat="47.00804" lon="6.02835">
        <ele>588.6</ele>
        <time>2012-05-10T16:08:18Z</time>
      </trkpt>
      <trkpt lat="47.00792" lon="6.02861">
        <ele>588</ele>
        <time>2012-05-10T16:08:20Z</time>
      </trkpt>
      <trkpt lat="47.00781" lon="6.02889">
        <ele>587</ele>
        <time>2012-05-10T16:08:22Z</time>
      </trkpt>
      <trkpt lat="47.00772" lon="6.02913">
        <ele>583.1</ele>
        <time>2012-05-10T16:08:24Z</time>
      </trkpt>
      <trkpt lat="47.00775" lon="6.02913">
        <ele>580.9</ele>
        <time>2012-05-10T16:08:27Z</time>
      </trkpt>
      <trkpt lat="47.00758" lon="6.02941">
        <ele>580.9</ele>
        <time>2012-05-10T16:08:30Z</time>
      </trkpt>
      <trkpt lat="47.00758" lon="6.02941">
        <ele>512.1</ele>
        <time>2012-05-10T16:08:42Z</time>
      </trkpt>
      <trkpt lat="47.00758" lon="6.02941">
        <ele>512.1</ele>
        <time>2012-05-10T16:08:46Z</time>
      </trkpt>
      <trkpt lat="47.00765" lon="6.0294">
        <ele>586.4</ele>
        <time>2012-05-10T16:08:50Z</time>
      </trkpt>
      <trkpt lat="47.00771" lon="6.02945">
        <ele>585.5</ele>
        <time>2012-05-10T16:08:52Z</time>
      </trkpt>
      <trkpt lat="47.00771" lon="6.02945">
        <ele>510.7</ele>
        <time>2012-05-10T16:09:04Z</time>
      </trkpt>
      <trkpt lat="47.00771" lon="6.02945">
        <ele>510.7</ele>
        <time>2012-05-10T16:12:06Z</time>
      </trkpt>
      <trkpt lat="47.00771" lon="6.02945">
        <ele>510.7</ele>
        <time>2012-05-10T16:12:09Z</time>
      </trkpt>
    </trkseg>
  </trk>
</gpx>